[[{"header":{"parameterUnit":"m.s-1","parameterCategory":1,"la1":31.0,"la2":29.5877,"lo1":-88.7671,"lo2":-86.6584,"dy":0.0162,"dx":0.0185,"nx":115,"ny":88,"refTime":"2023-06-20T18:00:00:Z","depth":0,"parameterNumber":2,"parameterNumberName":"U-component_of_WINDS"},"data":[0.0,0.0,0.0,0.0,0.0,0.0,0.0,0.0,0.0,0.0,0.0,0.0,0.0,0.0,0.0,0.0,0.0,0.0,0.0,0.0,0.0,0.0,0.0,0.0,0.0,0.0,0.0,0.0,0.0,0.0,0.0,0.0,0.0,0.0,0.0,0.0,0.0,0.0,0.0,0.0,0.0,0.0,0.0,0.0,0.0,0.0,0.0,0.0,0.0,0.0,0.0,0.0,0.0,0.0,0.0,0.0,0.0,0.0,0.0,0.0,0.0,0.0,0.0,0.0,0.0,0.0,0.0,0.0,0.0,0.0,0.0,0.0,0.0,0.0,0.0,0.0,0.0,0.0,0.0,0.0,0.0,0.0,0.0,0.0,0.0,0.0,0.0,0.0,0.0,0.0,0.0,0.0,0.0,0.0,0.0,0.0,0.0,0.0,0.0,0.0,0.0,0.0,0.0,0.0,0.0,0.0,0.0,0.0,0.0,0.0,0.0,0.0,0.0,0.0,0.0,0.0,0.0,0.0,0.0,0.0,0.0,0.0,0.0,0.0,0.0,0.0,0.0,0.0,0.0,0.0,0.0,0.0,0.0,0.0,0.0,0.0,0.0,0.0,0.0,0.0,0.0,0.0,0.0,0.0,0.0,0.0,0.0,0.0,0.0,0.0,0.0,0.0,0.0,0.0,0.0,0.0,0.0,0.0,0.0,0.0,0.0,0.0,0.0,0.0,0.0,0.0,0.0,0.0,0.0,0.0,0.0,0.0,0.0,0.0,0.0,0.0,0.0,0.0,0.0,0.0,0.0,0.0,0.0,0.0,0.0,0.0,0.0,0.0,0.0,0.0,0.0,0.0,0.0,0.0,0.0,0.0,0.0,0.0,0.0,0.0,0.0,0.0,0.0,0.0,0.0,0.0,0.0,0.0,0.0,0.0,0.0,0.0,0.0,0.0,0.0,0.0,0.0,0.0,0.0,0.0,0.0,0.0,0.0,0.0,0.0,0.0,0.0,0.0,0.0,0.0,0.0,0.0,0.0,0.0,0.0,0.0,0.0,0.0,0.0,0.0,0.0,0.0,0.0,0.0,0.0,0.0,0.0,0.0,0.0,0.0,0.0,0.0,0.0,0.0,0.0,0.0,0.0,0.0,0.0,0.0,0.0,0.0,0.0,0.0,0.0,0.0,0.0,0.0,0.0,0.0,0.0,0.0,0.0,0.0,0.0,0.0,0.0,0.0,0.0,0.0,0.0,0.0,0.0,0.0,0.0,0.0,0.0,0.0,0.0,0.0,0.0,0.0,0.0,0.0,0.0,0.0,0.0,0.0,0.0,0.0,0.0,0.0,0.0,0.0,0.0,0.0,0.0,0.0,0.0,0.0,0.0,0.0,0.0,0.0,0.0,0.0,0.0,0.0,0.0,0.0,0.0,0.0,0.0,0.0,0.0,0.0,0.0,0.0,0.0,0.0,0.0,0.0,0.0,0.0,0.0,0.0,0.0,0.0,0.0,0.0,0.0,0.0,0.0,0.0,0.0,0.0,0.0,0.0,0.0,0.0,0.0,0.0,0.0,0.0,0.0,0.0,0.0,0.0,0.0,0.0,0.0,0.0,0.0,0.0,0.0,0.0,0.0,0.0,0.0,0.0,0.0,0.0,0.0,0.0,0.0,0.0,0.0,0.0,0.0,0.0,0.0,0.0,0.0,0.0,0.0,0.0,0.0,0.0,0.0,0.0,0.0,0.0,0.0,0.0,0.0,0.0,0.0,0.0,0.0,0.0,0.0,0.0,0.0,0.0,0.0,0.0,0.0,0.0,0.0,0.0,0.0,0.0,0.0,0.0,0.0,0.0,0.0,0.0,0.0,0.0,0.0,0.0,0.0,0.0,0.0,0.0,0.0,0.0,0.0,0.0,0.0,0.0,0.0,0.0,0.0,0.0,0.0,0.0,0.0,0.0,0.0,0.0,0.0,0.0,0.0,0.0,0.0,0.0,0.0,0.0,0.0,0.0,0.0,0.0,0.0,0.0,0.0,0.0,0.0,0.0,0.0,0.0,0.0,0.0,0.0,0.0,0.0,0.0,0.0,0.0,0.0,0.0,0.0,0.0,0.0,0.0,0.0,0.0,0.0,0.0,0.0,0.0,0.0,0.0,0.0,0.0,0.0,0.0,0.0,0.0,0.0,0.0,0.0,0.0,0.0,0.0,0.0,0.0,0.0,0.0,0.0,0.0,0.0,0.0,0.0,0.0,0.0,0.0,0.0,0.0,0.0,0.0,0.0,0.0,0.0,0.0,0.0,0.0,0.0,0.0,0.0,0.0,0.0,0.0,0.0,0.0,0.0,0.0,0.0,0.0,0.0,0.0,0.0,0.0,0.0,0.0,0.0,0.0,0.0,0.0,0.0,0.0,0.0,0.0,0.0,0.0,0.0,0.0,0.0,0.0,0.0,0.0,0.0,0.0,0.0,0.0,0.0,0.0,0.0,0.0,0.0,0.0,0.0,0.0,0.0,0.0,0.0,0.0,0.0,0.0,0.0,0.0,0.0,0.0,0.0,0.0,0.0,0.0,0.0,0.0,0.0,0.0,0.0,0.0,0.0,0.0,0.0,0.0,0.0,0.0,0.0,0.0,0.0,0.0,0.0,0.0,0.0,0.0,0.0,0.0,0.0,0.0,0.0,0.0,0.0,0.0,0.0,0.0,0.0,0.0,0.0,0.0,0.0,0.0,0.0,0.0,0.0,0.0,0.0,0.0,0.0,0.0,0.0,0.0,0.0,0.0,0.0,0.0,0.0,0.0,0.0,0.0,0.0,0.0,0.0,0.0,0.0,0.0,0.0,0.0,0.0,0.0,0.0,0.0,0.0,0.0,0.0,0.0,0.0,0.0,0.0,0.0,0.0,0.0,0.0,0.0,0.0,0.0,0.0,0.0,0.0,0.0,0.0,0.0,0.0,0.0,0.0,0.0,0.0,0.0,0.0,0.0,0.0,0.0,0.0,0.0,0.0,0.0,0.0,0.0,0.0,0.0,0.0,0.0,0.0,0.0,0.0,0.0,0.0,0.0,0.0,0.0,0.0,0.0,0.0,0.0,0.0,0.0,0.0,0.0,0.0,0.0,0.0,0.0,0.0,0.0,0.0,0.0,0.0,0.0,0.0,0.0,0.0,0.0,0.0,0.0,0.0,0.0,0.0,0.0,0.0,0.0,0.0,0.0,0.0,0.0,0.0,0.0,0.0,0.0,0.0,0.0,0.0,0.0,0.0,0.0,0.0,0.0,0.0,0.0,0.0,0.0,0.0,0.0,0.0,0.0,0.0,0.0,0.0,0.0,0.0,0.0,0.0,0.0,0.0,0.0,0.0,0.0,0.0,0.0,0.0,0.0,0.0,0.0,0.0,0.0,0.0,0.0,0.0,0.0,0.0,0.0,0.0,0.0,0.0,0.0,0.0,0.0,0.0,0.0,0.0,0.0,0.0,0.0,0.0,0.0,0.0,0.0,0.0,0.0,0.0,0.0,0.0,0.0,0.0,0.0,0.0,0.0,0.0,0.0,0.0,0.0,0.0,0.0,0.0,0.0,0.0,0.0,0.0,0.0,0.0,0.0,0.0,0.0,0.0,0.0,0.0,0.0,0.0,0.0,0.0,0.0,0.0,0.0,0.0,0.0,0.0,0.0,0.0,0.0,0.0,0.0,0.0,0.0,0.0,0.0,0.0,0.0,0.0,0.0,0.0,0.0,0.0,0.0,0.0,0.0,0.0,0.0,0.0,0.0,0.0,0.0,0.0,0.0,0.0,0.0,0.0,0.0,0.0,0.0,0.0,0.0,0.0,0.0,0.0,0.0,0.0,0.0,0.0,0.0,0.0,0.0,0.0,0.0,0.0,0.0,0.0,0.0,0.0,0.0,0.0,0.0,0.0,0.0,0.0,0.0,0.0,0.0,0.0,0.0,0.0,0.0,0.0,0.0,0.0,0.0,0.0,0.0,0.0,0.0,0.0,0.0,0.0,0.0,0.0,0.0,0.0,0.0,0.0,0.0,0.0,0.0,0.0,0.0,0.0,0.0,0.0,0.0,0.0,0.0,0.0,0.0,0.0,0.0,0.0,0.0,0.0,0.0,0.0,0.0,0.0,0.0,0.0,0.0,0.0,0.0,0.0,0.0,0.0,0.0,0.0,0.0,0.0,0.0,0.0,0.0,0.0,0.0,0.0,0.0,0.0,0.0,0.0,0.0,0.0,0.0,0.0,0.0,0.0,0.0,0.0,0.0,0.0,0.0,0.0,0.0,-2.9686,0.0,0.0,0.0,0.0,0.0,0.0,0.0,0.0,0.0,0.0,0.0,0.0,0.0,0.0,0.0,0.0,0.0,0.0,0.0,0.0,0.0,0.0,0.0,0.0,0.0,0.0,0.0,0.0,0.0,0.0,0.0,0.0,0.0,0.0,0.0,0.0,0.0,0.0,0.0,0.0,0.0,0.0,0.0,0.0,0.0,0.0,0.0,0.0,0.0,0.0,0.0,0.0,0.0,0.0,0.0,0.0,0.0,0.0,0.0,0.0,0.0,0.0,0.0,0.0,0.0,0.0,0.0,0.0,0.0,0.0,0.0,0.0,0.0,0.0,0.0,0.0,0.0,0.0,0.0,0.0,0.0,0.0,0.0,0.0,0.0,0.0,0.0,0.0,0.0,0.0,0.0,0.0,0.0,0.0,0.0,0.0,0.0,0.0,0.0,0.0,0.0,0.0,0.0,0.0,0.0,0.0,0.0,0.0,0.0,0.0,-2.9324,-2.9306,-2.9446,-2.9456,-2.9316,0.0,0.0,0.0,0.0,0.0,0.0,0.0,0.0,0.0,0.0,0.0,0.0,0.0,0.0,0.0,0.0,0.0,0.0,0.0,0.0,0.0,0.0,0.0,0.0,0.0,0.0,0.0,0.0,0.0,0.0,0.0,0.0,0.0,0.0,0.0,0.0,0.0,0.0,0.0,0.0,0.0,0.0,0.0,0.0,0.0,0.0,0.0,0.0,0.0,0.0,0.0,0.0,0.0,0.0,0.0,0.0,0.0,0.0,0.0,0.0,0.0,0.0,0.0,0.0,0.0,0.0,0.0,0.0,0.0,0.0,0.0,0.0,0.0,0.0,0.0,0.0,0.0,0.0,0.0,0.0,0.0,0.0,0.0,0.0,0.0,0.0,0.0,0.0,0.0,0.0,0.0,0.0,0.0,0.0,0.0,0.0,0.0,0.0,0.0,0.0,0.0,0.0,0.0,0.0,0.0,0.0,0.0,0.0,0.0,0.0,0.0,0.0,-2.9192,-2.9203,-2.8998,0.0,0.0,0.0,0.0,0.0,0.0,0.0,0.0,0.0,0.0,0.0,0.0,0.0,0.0,0.0,0.0,0.0,0.0,0.0,0.0,0.0,0.0,0.0,0.0,0.0,0.0,0.0,0.0,0.0,0.0,0.0,0.0,0.0,0.0,0.0,0.0,0.0,0.0,0.0,0.0,0.0,0.0,0.0,0.0,0.0,0.0,0.0,0.0,0.0,0.0,0.0,0.0,0.0,0.0,0.0,0.0,0.0,0.0,0.0,0.0,0.0,0.0,0.0,0.0,0.0,0.0,0.0,0.0,0.0,0.0,0.0,0.0,0.0,0.0,0.0,0.0,0.0,0.0,0.0,0.0,0.0,0.0,0.0,0.0,0.0,0.0,0.0,0.0,0.0,0.0,0.0,0.0,0.0,0.0,0.0,0.0,0.0,0.0,0.0,0.0,0.0,0.0,0.0,0.0,0.0,0.0,0.0,0.0,0.0,0.0,-2.8987,-2.8987,-2.9028,0.0,-2.8987,0.0,0.0,0.0,0.0,0.0,0.0,0.0,0.0,0.0,0.0,0.0,0.0,0.0,0.0,0.0,0.0,0.0,0.0,0.0,0.0,0.0,0.0,0.0,0.0,0.0,0.0,0.0,0.0,0.0,0.0,0.0,0.0,0.0,0.0,0.0,0.0,0.0,0.0,0.0,0.0,0.0,0.0,0.0,0.0,0.0,0.0,0.0,0.0,0.0,0.0,0.0,0.0,0.0,0.0,0.0,0.0,0.0,0.0,0.0,0.0,0.0,0.0,0.0,0.0,0.0,0.0,0.0,0.0,0.0,0.0,0.0,0.0,0.0,0.0,0.0,0.0,0.0,0.0,0.0,0.0,0.0,0.0,0.0,0.0,0.0,0.0,0.0,0.0,0.0,0.0,0.0,0.0,0.0,0.0,0.0,0.0,0.0,0.0,0.0,0.0,0.0,0.0,0.0,0.0,0.0,0.0,0.0,0.0,0.0,0.0,-2.8987,-2.8987,-2.8987,-2.8987,0.0,0.0,0.0,0.0,0.0,0.0,0.0,0.0,0.0,0.0,0.0,0.0,0.0,0.0,0.0,0.0,0.0,0.0,0.0,0.0,0.0,0.0,0.0,0.0,0.0,0.0,0.0,0.0,0.0,0.0,0.0,0.0,0.0,0.0,0.0,0.0,0.0,0.0,0.0,0.0,0.0,0.0,0.0,0.0,0.0,0.0,0.0,0.0,0.0,0.0,0.0,0.0,0.0,0.0,0.0,0.0,0.0,0.0,0.0,0.0,0.0,0.0,0.0,0.0,0.0,0.0,0.0,0.0,0.0,0.0,0.0,0.0,0.0,0.0,0.0,0.0,0.0,0.0,0.0,0.0,0.0,0.0,0.0,0.0,0.0,0.0,0.0,0.0,0.0,0.0,0.0,0.0,0.0,0.0,0.0,0.0,0.0,0.0,0.0,0.0,0.0,0.0,0.0,0.0,0.0,0.0,0.0,0.0,0.0,0.0,-2.8839,-2.8791,-2.8718,-2.8688,-2.8706,-2.8688,0.0,0.0,0.0,0.0,0.0,0.0,0.0,0.0,0.0,0.0,0.0,0.0,0.0,0.0,0.0,0.0,0.0,0.0,0.0,0.0,0.0,0.0,0.0,0.0,0.0,0.0,0.0,0.0,0.0,0.0,0.0,0.0,0.0,0.0,0.0,0.0,0.0,0.0,0.0,0.0,0.0,0.0,0.0,0.0,0.0,0.0,0.0,0.0,0.0,0.0,0.0,0.0,0.0,0.0,0.0,0.0,0.0,0.0,0.0,0.0,0.0,0.0,0.0,0.0,0.0,0.0,0.0,0.0,0.0,0.0,0.0,0.0,0.0,0.0,0.0,0.0,0.0,0.0,0.0,0.0,0.0,0.0,0.0,0.0,0.0,0.0,0.0,0.0,0.0,0.0,0.0,0.0,0.0,0.0,0.0,0.0,0.0,0.0,0.0,0.0,0.0,0.0,0.0,0.0,0.0,0.0,0.0,0.0,-2.8446,-2.8433,-2.8277,-2.7982,-2.7954,-2.7954,0.0,0.0,0.0,0.0,0.0,0.0,0.0,0.0,0.0,0.0,0.0,0.0,0.0,0.0,0.0,0.0,0.0,0.0,0.0,0.0,0.0,0.0,0.0,0.0,0.0,0.0,0.0,0.0,0.0,0.0,0.0,0.0,0.0,0.0,0.0,0.0,0.0,0.0,0.0,0.0,0.0,0.0,0.0,0.0,0.0,0.0,0.0,0.0,0.0,0.0,0.0,0.0,0.0,0.0,0.0,0.0,0.0,0.0,0.0,0.0,0.0,0.0,0.0,0.0,0.0,0.0,0.0,0.0,0.0,0.0,0.0,0.0,0.0,0.0,0.0,0.0,0.0,0.0,0.0,0.0,0.0,0.0,0.0,0.0,0.0,0.0,0.0,0.0,0.0,0.0,0.0,0.0,0.0,0.0,0.0,0.0,0.0,0.0,0.0,0.0,0.0,0.0,0.0,0.0,0.0,0.0,0.0,0.0,0.0,-2.8088,-2.8075,-2.802,-2.7911,-2.7897,-2.7897,0.0,0.0,0.0,0.0,0.0,0.0,0.0,0.0,0.0,0.0,0.0,0.0,0.0,0.0,0.0,0.0,0.0,0.0,0.0,0.0,0.0,0.0,0.0,0.0,0.0,0.0,0.0,0.0,0.0,0.0,0.0,0.0,0.0,0.0,0.0,0.0,0.0,0.0,0.0,0.0,0.0,0.0,0.0,0.0,0.0,0.0,0.0,0.0,0.0,0.0,0.0,0.0,0.0,0.0,0.0,0.0,0.0,0.0,0.0,0.0,0.0,0.0,0.0,0.0,0.0,0.0,0.0,0.0,0.0,0.0,0.0,0.0,0.0,0.0,0.0,0.0,0.0,0.0,0.0,0.0,0.0,0.0,0.0,0.0,0.0,0.0,0.0,0.0,0.0,0.0,0.0,0.0,0.0,0.0,0.0,0.0,0.0,0.0,0.0,0.0,0.0,0.0,0.0,0.0,0.0,0.0,0.0,0.0,0.0,-2.7725,0.0,-2.75,-2.75,-2.75,-2.7517,0.0,0.0,0.0,0.0,0.0,0.0,0.0,0.0,0.0,0.0,0.0,0.0,0.0,0.0,0.0,0.0,0.0,0.0,0.0,0.0,0.0,0.0,0.0,0.0,0.0,0.0,0.0,0.0,0.0,0.0,0.0,0.0,0.0,0.0,0.0,0.0,0.0,0.0,0.0,0.0,0.0,0.0,0.0,0.0,0.0,0.0,0.0,0.0,0.0,0.0,0.0,0.0,0.0,0.0,0.0,0.0,0.0,0.0,0.0,0.0,0.0,0.0,0.0,0.0,0.0,0.0,0.0,0.0,0.0,0.0,0.0,0.0,0.0,0.0,0.0,0.0,0.0,0.0,0.0,0.0,0.0,0.0,0.0,0.0,0.0,0.0,0.0,0.0,0.0,0.0,0.0,0.0,0.0,0.0,0.0,0.0,0.0,0.0,0.0,0.0,0.0,0.0,0.0,0.0,0.0,0.0,0.0,0.0,-2.7695,-2.7303,-2.6923,-2.6758,-2.6708,-2.6741,-2.6725,0.0,0.0,0.0,0.0,0.0,0.0,0.0,0.0,0.0,0.0,0.0,0.0,0.0,0.0,0.0,0.0,0.0,0.0,0.0,0.0,0.0,0.0,0.0,0.0,0.0,0.0,0.0,0.0,0.0,0.0,0.0,0.0,0.0,0.0,0.0,0.0,0.0,0.0,0.0,0.0,0.0,0.0,0.0,0.0,0.0,0.0,0.0,0.0,0.0,0.0,0.0,0.0,0.0,0.0,0.0,0.0,0.0,0.0,0.0,0.0,0.0,0.0,0.0,0.0,0.0,0.0,0.0,0.0,0.0,0.0,0.0,0.0,0.0,0.0,0.0,0.0,0.0,0.0,0.0,0.0,0.0,0.0,0.0,0.0,0.0,0.0,0.0,0.0,0.0,0.0,0.0,0.0,0.0,0.0,0.0,0.0,0.0,0.0,0.0,0.0,0.0,0.0,0.0,0.0,0.0,0.0,0.0,0.0,0.0,-2.689,-2.6758,-2.6708,-2.6708,-2.6708,-2.6708,0.0,0.0,0.0,0.0,0.0,0.0,0.0,0.0,0.0,0.0,0.0,0.0,0.0,0.0,0.0,0.0,0.0,0.0,0.0,0.0,0.0,0.0,0.0,0.0,0.0,0.0,0.0,0.0,0.0,0.0,0.0,0.0,0.0,0.0,0.0,0.0,0.0,0.0,0.0,0.0,0.0,0.0,0.0,0.0,0.0,0.0,0.0,0.0,0.0,0.0,0.0,0.0,0.0,0.0,0.0,0.0,0.0,0.0,0.0,0.0,0.0,0.0,0.0,0.0,0.0,0.0,0.0,0.0,0.0,0.0,0.0,0.0,0.0,0.0,0.0,0.0,0.0,0.0,0.0,0.0,0.0,0.0,0.0,0.0,0.0,0.0,0.0,0.0,0.0,0.0,0.0,0.0,0.0,0.0,0.0,0.0,0.0,0.0,0.0,0.0,0.0,0.0,0.0,0.0,0.0,0.0,0.0,0.0,0.0,-2.7537,-2.6996,-2.6708,-2.6708,-2.6962,-2.6979,-2.6708,0.0,0.0,0.0,0.0,0.0,0.0,0.0,0.0,0.0,0.0,0.0,0.0,0.0,0.0,0.0,0.0,0.0,0.0,0.0,0.0,0.0,0.0,0.0,0.0,0.0,0.0,0.0,0.0,0.0,0.0,0.0,0.0,0.0,0.0,0.0,0.0,0.0,0.0,0.0,0.0,0.0,0.0,0.0,0.0,0.0,0.0,0.0,0.0,0.0,0.0,0.0,0.0,0.0,0.0,0.0,0.0,0.0,0.0,0.0,0.0,0.0,0.0,0.0,0.0,0.0,0.0,0.0,0.0,0.0,0.0,0.0,0.0,0.0,0.0,0.0,0.0,0.0,0.0,0.0,0.0,0.0,0.0,0.0,0.0,0.0,0.0,0.0,0.0,0.0,0.0,0.0,0.0,0.0,0.0,0.0,0.0,0.0,0.0,0.0,0.0,0.0,0.0,0.0,0.0,0.0,0.0,0.0,0.0,-2.8976,-2.7571,-2.686,-2.6843,-2.7503,-2.7536,0.0,0.0,0.0,0.0,0.0,0.0,0.0,0.0,0.0,0.0,0.0,0.0,0.0,0.0,0.0,0.0,0.0,0.0,0.0,0.0,0.0,0.0,0.0,0.0,0.0,0.0,0.0,0.0,0.0,0.0,0.0,0.0,0.0,0.0,0.0,0.0,0.0,0.0,0.0,0.0,0.0,0.0,0.0,0.0,0.0,0.0,0.0,0.0,0.0,0.0,0.0,0.0,0.0,0.0,0.0,0.0,0.0,0.0,0.0,0.0,0.0,0.0,0.0,0.0,0.0,0.0,0.0,0.0,0.0,0.0,0.0,0.0,0.0,0.0,0.0,0.0,0.0,0.0,0.0,0.0,0.0,0.0,0.0,0.0,0.0,0.0,0.0,0.0,0.0,0.0,0.0,0.0,0.0,0.0,0.0,0.0,0.0,0.0,0.0,0.0,0.0,0.0,0.0,0.0,0.0,0.0,0.0,0.0,0.0,-2.8976,-2.8604,-2.84,-2.84,-2.8586,-2.8604,0.0,0.0,0.0,0.0,0.0,0.0,0.0,0.0,0.0,0.0,0.0,0.0,0.0,0.0,0.0,0.0,0.0,0.0,0.0,0.0,0.0,0.0,0.0,0.0,0.0,0.0,0.0,0.0,0.0,0.0,0.0,0.0,0.0,0.0,0.0,0.0,0.0,0.0,0.0,0.0,0.0,0.0,0.0,0.0,0.0,0.0,0.0,0.0,0.0,0.0,0.0,0.0,0.0,0.0,0.0,0.0,0.0,0.0,0.0,0.0,0.0,0.0,0.0,0.0,0.0,0.0,0.0,0.0,0.0,0.0,0.0,0.0,0.0,0.0,0.0,0.0,0.0,0.0,0.0,0.0,0.0,0.0,0.0,0.0,0.0,0.0,0.0,0.0,0.0,0.0,0.0,0.0,0.0,0.0,0.0,0.0,0.0,0.0,0.0,0.0,0.0,0.0,0.0,0.0,0.0,0.0,0.0,0.0,-2.9507,-2.9546,-2.981,-2.9941,-2.9924,-2.9617,-2.9331,0.0,0.0,0.0,0.0,0.0,0.0,0.0,0.0,0.0,0.0,0.0,0.0,0.0,0.0,0.0,0.0,0.0,0.0,0.0,0.0,0.0,0.0,0.0,0.0,0.0,0.0,0.0,0.0,0.0,0.0,0.0,0.0,0.0,0.0,0.0,0.0,0.0,0.0,0.0,0.0,0.0,0.0,0.0,0.0,0.0,0.0,0.0,0.0,0.0,0.0,0.0,0.0,0.0,0.0,0.0,0.0,0.0,0.0,0.0,0.0,0.0,0.0,0.0,0.0,0.0,0.0,0.0,0.0,0.0,0.0,0.0,0.0,0.0,0.0,0.0,0.0,0.0,0.0,0.0,0.0,0.0,0.0,0.0,0.0,0.0,0.0,0.0,0.0,0.0,0.0,0.0,0.0,0.0,0.0,0.0,0.0,0.0,0.0,0.0,0.0,0.0,0.0,0.0,0.0,0.0,0.0,0.0,0.0,-3.0244,-3.0297,-3.0818,-3.1112,-3.1095,-3.047,-2.9831,0.0,0.0,0.0,0.0,0.0,0.0,0.0,0.0,0.0,0.0,0.0,0.0,0.0,0.0,0.0,0.0,0.0,0.0,0.0,0.0,0.0,0.0,0.0,0.0,0.0,0.0,0.0,0.0,0.0,0.0,0.0,0.0,0.0,0.0,0.0,0.0,0.0,0.0,0.0,0.0,0.0,0.0,0.0,0.0,0.0,0.0,0.0,0.0,0.0,0.0,0.0,0.0,0.0,0.0,0.0,0.0,0.0,0.0,0.0,0.0,0.0,0.0,0.0,0.0,0.0,0.0,0.0,0.0,0.0,0.0,0.0,0.0,0.0,0.0,0.0,0.0,0.0,0.0,0.0,0.0,0.0,0.0,0.0,0.0,0.0,0.0,0.0,0.0,0.0,0.0,0.0,0.0,0.0,0.0,0.0,0.0,0.0,0.0,0.0,0.0,0.0,0.0,0.0,0.0,0.0,0.0,0.0,0.0,-3.0747,-3.0314,-3.0435,-3.0497,-3.0497,-3.0344,-3.0416,0.0,0.0,0.0,0.0,0.0,0.0,0.0,0.0,0.0,0.0,0.0,0.0,0.0,0.0,0.0,0.0,0.0,0.0,0.0,0.0,0.0,0.0,0.0,0.0,0.0,0.0,0.0,0.0,0.0,0.0,0.0,0.0,0.0,0.0,0.0,0.0,0.0,0.0,0.0,0.0,0.0,0.0,0.0,0.0,0.0,0.0,0.0,0.0,-2.3595,0.0,0.0,0.0,0.0,0.0,0.0,0.0,0.0,0.0,0.0,0.0,0.0,0.0,0.0,0.0,0.0,0.0,0.0,0.0,0.0,0.0,0.0,0.0,0.0,0.0,0.0,0.0,0.0,0.0,0.0,0.0,0.0,0.0,0.0,0.0,0.0,0.0,0.0,0.0,0.0,0.0,0.0,0.0,0.0,0.0,0.0,0.0,0.0,0.0,0.0,0.0,0.0,0.0,0.0,0.0,0.0,0.0,0.0,0.0,-3.0351,-2.9496,-2.9739,-2.9886,-2.9886,-2.987,-3.0149,0.0,0.0,0.0,0.0,0.0,0.0,0.0,0.0,0.0,0.0,0.0,0.0,0.0,0.0,0.0,0.0,0.0,0.0,0.0,0.0,0.0,0.0,0.0,0.0,0.0,0.0,0.0,0.0,0.0,0.0,0.0,0.0,0.0,0.0,0.0,0.0,0.0,0.0,0.0,0.0,0.0,0.0,0.0,0.0,0.0,0.0,0.0,0.0,0.0,0.0,0.0,0.0,0.0,0.0,0.0,0.0,0.0,0.0,0.0,0.0,0.0,0.0,0.0,0.0,0.0,0.0,0.0,0.0,0.0,0.0,0.0,0.0,0.0,0.0,0.0,0.0,0.0,0.0,0.0,0.0,0.0,0.0,0.0,0.0,0.0,0.0,0.0,0.0,0.0,0.0,0.0,0.0,0.0,0.0,0.0,0.0,0.0,0.0,0.0,0.0,0.0,0.0,0.0,0.0,0.0,0.0,0.0,-2.9865,-2.9629,-2.8567,-2.9012,-2.9271,-2.9248,-2.9157,-2.9451,-3.0145,0.0,0.0,0.0,0.0,0.0,0.0,0.0,0.0,0.0,0.0,0.0,0.0,0.0,0.0,0.0,0.0,0.0,0.0,0.0,0.0,0.0,0.0,0.0,0.0,0.0,0.0,0.0,0.0,0.0,0.0,0.0,0.0,0.0,0.0,0.0,0.0,0.0,0.0,-2.3595,-2.3595,0.0,0.0,0.0,0.0,0.0,0.0,0.0,0.0,-2.3595,0.0,0.0,0.0,0.0,0.0,0.0,0.0,0.0,0.0,0.0,0.0,0.0,0.0,0.0,0.0,0.0,0.0,0.0,0.0,0.0,0.0,0.0,0.0,0.0,0.0,0.0,0.0,0.0,0.0,0.0,0.0,0.0,0.0,0.0,0.0,0.0,0.0,0.0,0.0,0.0,0.0,0.0,0.0,0.0,0.0,0.0,0.0,0.0,0.0,0.0,0.0,0.0,0.0,0.0,0.0,0.0,-2.8662,-2.9248,-2.9219,-2.8511,-2.8606,-2.8638,-2.8654,-2.8149,-2.8424,-2.9496,0.0,0.0,0.0,0.0,0.0,0.0,0.0,0.0,0.0,0.0,0.0,0.0,0.0,0.0,0.0,0.0,0.0,0.0,0.0,0.0,0.0,0.0,0.0,0.0,0.0,0.0,0.0,0.0,0.0,0.0,0.0,0.0,0.0,0.0,0.0,0.0,0.0,0.0,0.0,-2.3595,-2.3595,0.0,0.0,0.0,0.0,0.0,0.0,0.0,0.0,-2.3595,0.0,0.0,0.0,0.0,0.0,0.0,0.0,0.0,0.0,0.0,0.0,0.0,0.0,0.0,0.0,0.0,0.0,0.0,0.0,0.0,0.0,0.0,0.0,0.0,0.0,0.0,0.0,0.0,0.0,0.0,0.0,0.0,0.0,0.0,0.0,0.0,0.0,0.0,0.0,0.0,0.0,0.0,0.0,0.0,0.0,0.0,0.0,0.0,0.0,0.0,0.0,0.0,0.0,0.0,0.0,-3.0101,-2.9997,-2.9688,-2.9109,-2.9083,-2.9083,-2.9068,-2.9093,-2.9534,0.0,0.0,0.0,0.0,0.0,0.0,0.0,0.0,0.0,0.0,0.0,0.0,0.0,0.0,0.0,0.0,0.0,0.0,0.0,0.0,0.0,0.0,0.0,0.0,0.0,0.0,0.0,0.0,0.0,0.0,0.0,0.0,0.0,0.0,0.0,0.0,0.0,0.0,0.0,0.0,-2.3595,-2.3595,-2.3595,0.0,0.0,0.0,0.0,0.0,0.0,-2.2846,-2.2606,0.0,0.0,0.0,0.0,0.0,0.0,0.0,0.0,0.0,0.0,0.0,0.0,0.0,0.0,0.0,0.0,0.0,0.0,0.0,0.0,0.0,0.0,0.0,0.0,0.0,0.0,0.0,0.0,0.0,0.0,0.0,0.0,0.0,0.0,0.0,0.0,0.0,0.0,0.0,0.0,0.0,0.0,0.0,0.0,0.0,0.0,0.0,0.0,0.0,0.0,0.0,0.0,0.0,0.0,0.0,-3.1261,-3.0653,-3.0079,-2.9606,-2.9621,-2.9621,-2.9606,-3.0068,-3.0643,0.0,0.0,0.0,0.0,0.0,0.0,0.0,0.0,0.0,0.0,0.0,0.0,0.0,0.0,0.0,0.0,0.0,0.0,0.0,0.0,0.0,0.0,0.0,0.0,0.0,0.0,0.0,0.0,0.0,0.0,0.0,0.0,0.0,0.0,0.0,0.0,0.0,0.0,0.0,0.0,0.0,-2.3595,-2.3595,-2.3595,0.0,0.0,0.0,0.0,-2.2731,-2.2253,0.0,0.0,0.0,0.0,0.0,0.0,0.0,0.0,0.0,0.0,0.0,0.0,0.0,0.0,0.0,0.0,0.0,0.0,0.0,0.0,0.0,0.0,0.0,0.0,0.0,0.0,0.0,0.0,0.0,0.0,0.0,0.0,0.0,0.0,0.0,0.0,0.0,0.0,0.0,0.0,0.0,0.0,0.0,0.0,0.0,0.0,0.0,0.0,0.0,0.0,0.0,0.0,0.0,0.0,0.0,0.0,-3.0643,-3.0015,-2.9672,-2.9606,-2.9621,-2.9621,-2.9621,-2.9672,-2.9989,0.0,0.0,0.0,0.0,0.0,0.0,0.0,0.0,0.0,0.0,0.0,0.0,0.0,0.0,0.0,0.0,0.0,0.0,0.0,0.0,0.0,0.0,0.0,0.0,0.0,0.0,0.0,0.0,0.0,0.0,0.0,0.0,0.0,0.0,0.0,0.0,0.0,0.0,0.0,0.0,0.0,-2.3595,-2.3595,-2.3595,-2.3406,0.0,0.0,-2.3297,-2.2785,-2.2612,0.0,0.0,0.0,0.0,0.0,0.0,0.0,0.0,0.0,0.0,0.0,0.0,0.0,0.0,0.0,0.0,0.0,0.0,0.0,0.0,0.0,0.0,0.0,0.0,0.0,0.0,0.0,0.0,0.0,0.0,0.0,0.0,0.0,0.0,0.0,0.0,0.0,0.0,0.0,0.0,0.0,0.0,0.0,0.0,0.0,0.0,0.0,0.0,0.0,0.0,0.0,0.0,0.0,0.0,0.0,-3.1529,-3.1661,-3.1018,-3.0687,-3.0687,-3.0658,-3.0687,-3.0672,-3.0687,-3.0991,0.0,0.0,0.0,0.0,0.0,0.0,0.0,0.0,0.0,0.0,0.0,0.0,0.0,0.0,0.0,0.0,0.0,0.0,0.0,0.0,0.0,0.0,0.0,0.0,0.0,0.0,0.0,0.0,0.0,0.0,0.0,0.0,0.0,0.0,0.0,0.0,0.0,0.0,0.0,0.0,0.0,0.0,-2.3595,-2.3312,0.0,0.0,0.0,-2.2044,-2.2123,0.0,0.0,0.0,0.0,0.0,0.0,0.0,0.0,0.0,0.0,0.0,0.0,0.0,0.0,0.0,0.0,0.0,0.0,0.0,0.0,0.0,0.0,0.0,0.0,0.0,0.0,0.0,0.0,0.0,0.0,0.0,0.0,0.0,0.0,0.0,0.0,0.0,0.0,0.0,0.0,0.0,0.0,0.0,0.0,0.0,0.0,0.0,0.0,0.0,0.0,0.0,0.0,0.0,0.0,0.0,0.0,0.0,-3.2586,-3.1881,-3.1496,-3.1496,-3.1496,-3.1496,-3.1496,-3.1496,0.0,0.0,0.0,0.0,0.0,0.0,0.0,0.0,0.0,0.0,0.0,0.0,0.0,0.0,0.0,0.0,0.0,0.0,0.0,0.0,0.0,0.0,0.0,0.0,0.0,0.0,0.0,-2.3595,0.0,0.0,0.0,0.0,0.0,0.0,0.0,0.0,0.0,0.0,0.0,0.0,0.0,0.0,-2.3595,-2.3595,-2.3209,-2.2987,0.0,0.0,-2.1307,-2.1462,-2.067,-2.0093,0.0,0.0,0.0,0.0,0.0,0.0,0.0,0.0,0.0,0.0,0.0,0.0,0.0,0.0,0.0,0.0,0.0,0.0,0.0,0.0,0.0,0.0,0.0,0.0,0.0,0.0,0.0,0.0,0.0,0.0,0.0,0.0,0.0,0.0,0.0,0.0,0.0,0.0,0.0,0.0,0.0,0.0,0.0,0.0,0.0,0.0,0.0,0.0,0.0,0.0,0.0,0.0,0.0,0.0,0.0,-3.2559,-3.1881,-3.1496,-3.1496,-3.1496,-3.1496,-3.1496,-3.1496,-3.1524,0.0,0.0,0.0,0.0,0.0,0.0,0.0,0.0,0.0,0.0,0.0,0.0,0.0,0.0,0.0,0.0,0.0,0.0,0.0,0.0,0.0,0.0,0.0,0.0,0.0,0.0,0.0,0.0,0.0,0.0,0.0,0.0,0.0,0.0,0.0,0.0,0.0,0.0,0.0,0.0,0.0,-2.3595,-2.3595,-2.3566,-2.3128,0.0,0.0,-2.2175,-2.1028,-2.0795,-2.0917,-2.1472,0.0,0.0,0.0,0.0,0.0,0.0,0.0,0.0,0.0,0.0,0.0,0.0,0.0,0.0,0.0,0.0,0.0,0.0,0.0,0.0,0.0,0.0,0.0,0.0,0.0,0.0,0.0,0.0,0.0,0.0,0.0,0.0,0.0,0.0,0.0,0.0,0.0,0.0,0.0,0.0,0.0,0.0,0.0,0.0,0.0,0.0,0.0,0.0,0.0,0.0,0.0,0.0,0.0,-3.1923,-3.1923,-3.164,-3.1496,-3.1496,-3.1496,-3.1496,-3.1496,-3.1496,-3.1496,0.0,0.0,0.0,0.0,0.0,0.0,0.0,0.0,0.0,0.0,0.0,0.0,0.0,0.0,0.0,0.0,0.0,0.0,0.0,0.0,0.0,0.0,0.0,0.0,0.0,0.0,0.0,0.0,-2.2688,-2.2597,-2.3009,0.0,0.0,0.0,0.0,0.0,0.0,0.0,0.0,0.0,0.0,-2.3031,-2.3054,-2.2711,0.0,0.0,-2.2207,-2.1795,-2.0944,-2.1126,-2.1318,-2.1186,-2.0968,0.0,0.0,0.0,0.0,0.0,0.0,0.0,0.0,0.0,0.0,0.0,0.0,0.0,0.0,0.0,0.0,0.0,0.0,0.0,0.0,0.0,0.0,0.0,0.0,0.0,0.0,0.0,0.0,0.0,0.0,0.0,0.0,0.0,0.0,0.0,0.0,0.0,0.0,0.0,0.0,0.0,0.0,0.0,0.0,0.0,0.0,0.0,0.0,0.0,0.0,0.0,0.0,-3.1896,-3.2112,-3.1701,-3.1496,-3.1496,-3.1496,-3.1496,-3.1496,-3.1496,-3.1496,0.0,0.0,0.0,0.0,0.0,0.0,0.0,0.0,0.0,0.0,0.0,0.0,0.0,0.0,0.0,0.0,0.0,0.0,0.0,0.0,0.0,0.0,0.0,0.0,0.0,0.0,0.0,0.0,-2.2259,-2.2262,-2.2897,0.0,0.0,0.0,0.0,0.0,0.0,0.0,0.0,0.0,0.0,-2.3343,-2.3533,-2.3172,-2.2956,-2.3256,-2.2899,-2.2311,-2.1474,-2.1699,-2.1821,-2.1411,0.0,0.0,0.0,0.0,0.0,0.0,0.0,0.0,0.0,0.0,0.0,0.0,0.0,0.0,0.0,0.0,0.0,0.0,0.0,0.0,0.0,0.0,0.0,0.0,0.0,0.0,0.0,0.0,0.0,0.0,0.0,0.0,0.0,0.0,0.0,0.0,0.0,0.0,0.0,0.0,0.0,0.0,0.0,0.0,0.0,0.0,0.0,0.0,0.0,0.0,0.0,0.0,0.0,-3.2806,-3.3403,-3.2201,-3.154,-3.154,-3.1511,-3.154,-3.154,-3.1511,-3.1496,-3.1496,0.0,0.0,0.0,0.0,0.0,0.0,0.0,0.0,0.0,0.0,0.0,0.0,0.0,0.0,0.0,0.0,0.0,0.0,0.0,0.0,0.0,0.0,0.0,0.0,0.0,0.0,-2.2617,-2.2626,-2.2859,0.0,0.0,0.0,0.0,0.0,0.0,0.0,0.0,0.0,0.0,-2.4567,-2.4768,-2.538,-2.5508,-2.5174,-2.4679,-2.4606,-2.4138,-2.2764,-2.2578,-2.2605,0.0,0.0,0.0,0.0,0.0,0.0,0.0,0.0,0.0,0.0,0.0,0.0,0.0,0.0,0.0,0.0,0.0,0.0,0.0,0.0,0.0,0.0,0.0,0.0,0.0,0.0,0.0,-3.7898,-3.7898,0.0,0.0,0.0,0.0,0.0,0.0,0.0,0.0,0.0,0.0,0.0,-3.7131,-3.7398,0.0,0.0,0.0,0.0,0.0,0.0,0.0,0.0,0.0,0.0,0.0,0.0,-3.3812,-3.3501,-3.3051,-3.2841,-3.2841,-3.2841,-3.2841,-3.2826,-3.2422,-3.1944,-3.1511,0.0,0.0,0.0,0.0,0.0,0.0,0.0,0.0,0.0,0.0,0.0,0.0,0.0,0.0,0.0,0.0,0.0,0.0,0.0,0.0,0.0,0.0,0.0,0.0,0.0,-2.2485,0.0,0.0,0.0,0.0,0.0,0.0,0.0,0.0,0.0,0.0,0.0,-2.4115,-2.3957,-2.3498,-2.3402,-2.4184,-2.4273,-2.4387,0.0,0.0,0.0,0.0,0.0,0.0,0.0,0.0,0.0,0.0,0.0,0.0,0.0,0.0,-2.246,-2.2108,-2.2184,-2.2393,-2.2757,0.0,0.0,0.0,0.0,0.0,0.0,0.0,0.0,0.0,0.0,0.0,0.0,0.0,0.0,0.0,0.0,-3.8667,0.0,0.0,0.0,0.0,0.0,0.0,0.0,0.0,-3.8007,-3.7862,-3.7861,-3.7861,-3.7593,0.0,-3.6826,-3.7218,0.0,0.0,0.0,0.0,0.0,0.0,0.0,0.0,-3.4349,-3.386,-3.3619,-3.3499,-3.3499,-3.3499,-3.3499,-3.3484,-3.308,-3.2557,-3.1869,-3.1854,-3.175,0.0,0.0,0.0,0.0,0.0,0.0,0.0,0.0,0.0,0.0,0.0,0.0,0.0,0.0,0.0,0.0,0.0,0.0,0.0,0.0,0.0,0.0,0.0,-2.2304,0.0,0.0,0.0,0.0,0.0,0.0,0.0,0.0,0.0,-2.4144,-2.437,-2.443,-2.4278,-2.4034,-2.413,-2.4884,0.0,0.0,0.0,0.0,0.0,0.0,0.0,-2.438,-2.425,-2.3771,-2.3241,-2.2728,-2.2607,-2.2569,-2.2569,0.0,0.0,-2.2631,-2.2569,-2.2694,-2.3032,-2.3095,-2.3005,-2.272,-2.2032,-2.1221,0.0,0.0,0.0,0.0,0.0,0.0,0.0,0.0,-4.0079,-4.0062,0.0,-4.0045,0.0,0.0,0.0,0.0,0.0,0.0,0.0,0.0,-3.828,-3.7903,-3.7844,-3.7834,-3.7774,-3.7732,-3.6947,-3.7347,-3.8575,-3.664,0.0,0.0,0.0,0.0,0.0,0.0,-3.458,-3.4518,-3.3903,-3.3574,-3.3589,-3.3574,-3.3574,-3.3544,-3.3529,-3.3215,-3.2542,-3.2512,-3.2198,-3.157,-3.1511,0.0,0.0,0.0,0.0,0.0,0.0,0.0,0.0,0.0,0.0,0.0,0.0,0.0,0.0,0.0,0.0,0.0,0.0,0.0,0.0,-2.3103,0.0,0.0,0.0,0.0,0.0,0.0,0.0,0.0,0.0,0.0,-2.3505,-2.4028,-2.473,-2.5331,0.0,0.0,0.0,0.0,-2.7265,-2.6546,-2.6496,-2.6242,-2.5563,-2.4881,-2.4639,-2.5259,0.0,0.0,-2.3095,-2.3095,-2.3083,-2.3095,-2.3095,-2.3095,-2.3083,-2.307,-2.3083,-2.3095,-2.3095,-2.2823,-2.2075,-2.1336,-2.0575,-4.1035,0.0,0.0,0.0,0.0,-4.0113,-4.0113,-4.0113,-4.0113,-4.0113,-4.0113,-4.0113,0.0,0.0,0.0,0.0,0.0,0.0,-3.9791,-3.9724,-3.8972,-3.8616,-3.8558,-3.8038,-3.7482,-3.6934,-3.6707,-3.6554,-3.6461,-3.5829,-3.6073,-3.7201,0.0,0.0,0.0,0.0,-3.5734,-3.5222,-3.5026,-3.4936,-3.4936,-3.4921,-3.4681,-3.4203,-3.4203,-3.3888,-3.323,-3.2766,-3.2392,-3.2198,-3.175,0.0,0.0,0.0,0.0,0.0,0.0,0.0,0.0,0.0,0.0,0.0,0.0,0.0,0.0,0.0,0.0,0.0,0.0,0.0,-2.3514,-2.3077,-2.2946,0.0,0.0,0.0,0.0,0.0,0.0,0.0,0.0,0.0,-2.3232,-2.3849,-2.442,0.0,0.0,-2.4396,-2.5134,-2.5701,-2.6135,-2.6443,0.0,0.0,0.0,-2.6349,-2.5755,-2.5453,-2.4134,-2.3095,-2.3095,-2.3095,-2.3095,-2.3108,-2.3095,-2.3095,-2.3095,-2.3095,-2.3095,-2.3095,-2.3095,-2.2823,-2.2044,-2.144,-2.0798,-4.2033,-4.0959,-4.0646,-4.0367,-4.0113,-4.0113,-4.0113,-4.0113,-4.0113,-4.0113,-4.0113,-4.0113,-3.9927,-3.961,-3.9305,0.0,0.0,0.0,-3.9358,-3.961,-3.9113,-3.8745,-3.8442,-3.8007,-3.7544,-3.71,-3.6768,-3.6554,-3.6399,-3.6399,-3.6707,-3.7324,0.0,0.0,-3.5975,-3.6086,-3.5943,-3.5537,-3.5489,-3.5489,-3.5489,-3.5489,-3.531,-3.4891,-3.4891,-3.4577,-3.3918,-3.3499,-3.3051,-3.2542,-3.2108,-3.178,0.0,0.0,0.0,0.0,0.0,0.0,0.0,0.0,0.0,0.0,0.0,-2.6763,0.0,0.0,0.0,0.0,-2.3968,-2.3632,-2.3168,-2.3095,0.0,0.0,0.0,0.0,0.0,0.0,0.0,-2.3025,-2.3434,-2.3772,-2.3772,-2.419,-2.4524,-2.4603,-2.4629,-2.482,-2.5293,0.0,-2.6088,-2.6244,-2.6259,-2.6526,-2.7312,-2.6804,-2.6173,-2.5743,-2.4636,-2.3791,-2.3772,-2.3609,-2.3459,-2.3421,-2.3271,-2.3095,-2.3095,-2.3095,-2.3095,-2.3095,-2.2823,-2.2414,-2.1748,-2.1127,-2.0533,-4.325,-4.2506,-4.1863,-4.1068,-4.0299,-4.0282,-4.0282,-4.0282,-4.0299,-4.0248,-4.0172,-4.018,-3.9755,-3.8962,-3.829,0.0,-3.8897,-3.8206,-3.8246,-3.8799,-3.8756,-3.8342,-3.7735,-3.7648,-3.7618,-3.7573,-3.6859,-3.6889,-3.756,-3.7573,-3.7249,-3.6492,-3.5846,-3.5831,-3.643,-3.5831,-3.5489,-3.5489,-3.5489,-3.5489,-3.5489,-3.5489,-3.5489,-3.5489,-3.5489,-3.519,-3.4623,-3.4533,-3.3918,-3.2751,-3.2617,-3.2302,-3.163,0.0,0.0,0.0,0.0,0.0,0.0,0.0,0.0,0.0,0.0,0.0,0.0,0.0,0.0,0.0,-2.3559,0.0,-2.3246,-2.3246,0.0,0.0,0.0,-2.3233,-2.3233,-2.374,-2.4067,-2.4067,0.0,0.0,-2.48,0.0,-2.4938,-2.5118,-2.6119,-2.6838,-2.6838,-2.6783,-2.6674,-2.6012,-2.5972,-2.6279,-2.7026,-2.6589,-2.6073,-2.6012,-2.5345,-2.4757,-2.47,-2.4393,-2.4092,-2.4067,-2.359,-2.3195,-2.3183,-2.317,-2.3095,-2.3095,-2.2476,-2.1769,-2.1326,-2.0614,-2.0072,-4.5568,-4.4874,-4.4705,-4.3521,-4.1805,-4.1762,-4.1788,-4.1779,-4.1762,-4.1457,-4.095,-4.0933,-4.0518,-3.9808,-3.9627,-3.9332,-3.8897,-3.8718,-3.8414,-3.8019,-3.7424,-3.7054,-3.6859,-3.6305,-3.6053,-3.6022,-3.5846,-3.5878,-3.6068,-3.6053,-3.5973,-3.575,-3.5587,-3.5587,-3.575,-3.5587,-3.5489,-3.5489,-3.5489,-3.5489,-3.5489,-3.5489,-3.5489,-3.5489,-3.5489,-3.5429,-3.5265,-3.4788,-3.4369,-3.4054,-3.3529,-3.2961,-3.2288,-3.2243,0.0,0.0,0.0,0.0,0.0,0.0,0.0,0.0,0.0,-2.6925,-2.6276,0.0,-2.4619,0.0,-2.4462,-2.4387,-2.4387,-2.4387,0.0,0.0,-2.4387,-2.4399,-2.4387,-2.4512,-2.46,-2.4587,-2.4745,-2.48,-2.48,-2.5172,-2.5426,-2.547,-2.5409,-2.5345,-2.5345,-2.5826,-2.6109,-2.6025,-2.6394,-2.6794,-2.6998,-2.6428,-2.5977,-2.595,-2.5326,-2.4833,-2.4833,-2.4732,-2.4587,-2.4562,-2.418,-2.3841,-2.3803,-2.3409,-2.3145,-2.3065,-2.2445,-2.1769,-2.1306,-2.0795,-2.0329,-4.6853,-4.6194,-4.6194,-4.5449,-4.4231,-4.3234,-4.2608,-4.2303,-4.2303,-4.2066,-4.1668,-4.1359,-4.0973,-4.0605,-4.0198,-4.0007,-3.9896,-3.9556,-3.9156,-3.8704,-3.8269,-3.767,-3.6972,-3.6921,-3.6704,-3.6447,-3.6415,-3.6471,-3.6507,-3.6149,-3.6006,-3.5975,-3.5668,-3.5489,-3.5489,-3.5489,-3.5489,-3.5489,-3.5489,-3.5489,-3.5489,-3.5489,-3.5489,-3.5489,-3.5489,-3.5489,-3.5489,-3.513,-3.4818,-3.4518,-3.4128,-3.3634,-3.2991,-3.2647,-3.2347,0.0,0.0,0.0,0.0,0.0,0.0,0.0,0.0,0.0,0.0,0.0,-2.5059,0.0,-2.48,-2.48,-2.48,-2.48,-2.48,-2.48,-2.48,-2.4888,-2.5134,-2.5398,-2.5636,-2.5887,-2.6138,-2.6242,-2.6289,-2.6302,-2.6339,-2.6352,-2.5887,-2.5714,-2.6017,-2.6187,-2.6291,-2.6651,-2.7063,-2.7457,-2.7827,-2.7207,-2.6683,-2.6632,-2.6057,-2.5561,-2.5536,-2.5322,-2.5172,-2.5134,-2.4732,-2.4368,-2.4324,-2.4117,-2.3754,-2.3215,-2.2523,-2.1903,-2.1554,-2.0864,-2.0223,-4.7497,-4.6907,-4.7043,-4.7005,-4.6769,-4.4823,-4.3504,-4.2726,-4.2726,-4.2625,-4.2412,-4.1661,-4.1331,-4.1302,-4.0603,-4.0632,-4.116,-4.0456,-4.0082,-3.9916,-3.9916,-3.9141,-3.7767,-3.8448,-3.8463,-3.7904,-3.7904,-3.787,-3.7746,-3.7075,-3.6631,-3.6415,-3.5814,-3.5489,-3.5489,-3.5489,-3.5489,-3.5489,-3.5489,-3.5489,-3.5489,-3.5489,-3.5489,-3.5489,-3.5489,-3.5489,-3.5489,-3.5489,-3.5235,-3.4683,-3.4638,-3.4307,-3.3649,-3.308,-3.2721,0.0,-3.1989,0.0,0.0,0.0,0.0,0.0,0.0,0.0,0.0,-2.6935,-2.5523,-2.5071,-2.5021,-2.5059,-2.5101,-2.5134,-2.5172,-2.5234,-2.5202,-2.539,-2.5875,-2.6399,-2.6889,-2.7344,-2.7808,-2.8109,-2.8021,-2.767,-2.7394,-2.7341,-2.6901,-2.6845,-2.7529,-2.7027,-2.6693,-2.7471,-2.7537,-2.7624,-2.819,-2.79,-2.7439,-2.7411,-2.6896,-2.6487,-2.6424,-2.6059,-2.5711,-2.5661,-2.5272,-2.4933,-2.4888,-2.4825,-2.4434,-2.3472,-2.2683,-2.2034,-2.1708,-2.0788,-2.0115,-4.7587,-4.7519,-4.8267,-4.824,-4.7665,-4.7212,-4.6295,-4.506,-4.506,-4.435,-4.3139,-4.2422,-4.2082,-4.2099,-4.193,-4.1611,-4.1205,-4.1046,-4.0603,-3.9991,-3.9975,-3.9823,-3.9516,-3.967,-3.9684,-3.9524,-3.954,-3.8915,-3.7716,-3.7561,-3.689,-3.5748,-3.5554,-3.5489,-3.5489,0.0,0.0,0.0,-3.5489,-3.5489,-3.5489,-3.5489,-3.5489,-3.5489,-3.5489,0.0,-3.5489,-3.5489,-3.5444,-3.5325,-3.531,0.0,0.0,0.0,0.0,0.0,0.0,0.0,0.0,0.0,0.0,0.0,-2.9066,-2.7769,-2.7887,-2.6958,-2.6285,-2.6197,-2.6185,-2.6373,-2.6766,-2.6816,-2.6992,-2.7431,-2.7482,-2.7532,-2.7632,-2.7733,-2.7846,-2.7934,-2.8047,-2.8122,-2.8147,-2.8009,-2.7959,-2.7921,-2.7469,-2.7503,-2.8213,-2.7263,-2.6602,-2.6726,-2.685,-2.6816,-2.6939,-2.6884,-2.6816,-2.6679,-2.6658,-2.6487,-2.6474,-2.6424,-2.6323,-2.6298,-2.5871,-2.5448,-2.5448,-2.5121,-2.45,-2.3468,-2.2891,-2.2322,-2.1498,-2.0569,-2.0039,-4.6918,0.0,-4.7917,-4.8089,0.0,-4.8242,-4.7817,-4.6769,-4.6397,-4.5602,-4.4502,-4.3758,-4.343,-4.342,-4.3447,-4.3238,-4.2886,-4.2886,-4.2435,-4.1648,-4.1648,-4.1389,-4.0972,-4.0972,-4.0827,-4.049,-4.049,-4.0121,-3.9434,-3.9008,-3.8277,-3.7188,-3.6796,-3.6228,-3.5519,-3.5489,-3.5489,-3.5489,-3.5489,-3.5489,-3.5489,-3.5489,-3.5489,-3.5489,0.0,0.0,0.0,0.0,0.0,0.0,0.0,0.0,0.0,0.0,0.0,-3.3978,-3.3365,-3.2856,-3.2512,-3.1812,-3.1575,-3.1915,-3.0298,-2.8765,-2.7601,-2.7132,-2.7014,-2.7256,-2.7304,-2.7381,-2.7645,-2.7695,-2.7808,-2.8072,-2.8109,-2.8197,-2.8461,-2.8474,-2.8624,-2.89,-2.8938,-2.8938,-2.8938,-2.8674,-2.8487,-2.8486,-2.8034,-2.7748,-2.7806,-2.7125,-2.6624,-2.6973,-2.6714,-2.6645,-2.6973,-2.6714,-2.6487,-2.6487,-2.6487,-2.6487,-2.6487,-2.6487,-2.6487,-2.6474,-2.6235,-2.6025,-2.5966,-2.545,-2.4609,-2.3607,-2.2822,-2.2051,-2.1152,-2.0529,-2.0331,-4.6032,-4.6279,-4.7205,-4.7605,-4.7671,-4.8608,-4.8663,-4.8024,0.0,0.0,0.0,-4.5246,-4.4919,-4.4773,-4.4801,-4.4733,-4.4615,-4.4598,-4.4224,-4.3532,-4.3532,-4.3122,-4.2473,-4.2458,-4.2182,-4.1646,-4.1476,-4.1395,-4.1358,-4.0591,-3.9814,-3.9099,-3.8416,-3.7372,-3.5976,-3.5614,-3.5489,-3.5489,-3.5489,-3.5489,-3.5489,-3.5489,-3.5489,-3.5489,-3.5489,-3.5489,-3.5489,-3.5489,-3.5489,-3.5489,-3.5489,-3.5489,-3.5489,-3.4966,-3.4683,-3.4653,-3.4038,-3.3425,-3.2901,-3.2751,-3.2617,-3.2466,-3.1407,-2.9861,-2.7622,-2.7431,-2.7607,-2.8059,-2.8109,-2.8147,-2.8235,-2.826,-2.8261,-2.8386,-2.8398,-2.8599,-2.9001,-2.9038,-2.9264,-2.9691,-2.9729,-2.9779,-2.9729,-2.9352,-2.9051,-2.8976,-2.8599,-2.7996,-2.7381,-2.6873,-2.6692,-2.7162,-2.6816,-2.6748,-2.7196,-2.6939,-2.6521,-2.6487,-2.6487,-2.6487,-2.6487,-2.6487,-2.6487,-2.6487,-2.6487,-2.6461,-2.6405,-2.566,-2.4707,-2.3708,-2.2702,-2.1735,-2.0867,-2.0605,-2.0595,-4.5468,-4.6279,-4.7205,-4.7605,-4.7671,-4.8608,-4.8934,-4.8748,-4.7394,-4.6735,-4.6633,-4.6532,-4.6143,-4.5551,-4.5551,-4.5196,-4.4615,-4.4598,-4.4542,0.0,-4.4412,-4.4355,-4.4224,-4.4224,-4.4202,-4.4044,-4.332,-4.2703,-4.2104,-4.129,-4.0522,-3.9911,-3.974,-3.8886,-3.7419,-3.6133,-3.5489,-3.5489,-3.5489,-3.5489,-3.5489,-3.5489,-3.5489,-3.5489,-3.5489,-3.5489,-3.5489,-3.5489,-3.5489,-3.5489,-3.5489,-3.5489,-3.5489,-3.5415,-3.5355,-3.5325,-3.4743,-3.4324,-3.4219,-3.3679,-3.3044,-3.228,-3.1354,-2.9989,-2.8201,-2.7984,-2.8021,-2.8122,-2.8172,-2.8298,-2.87,-2.8812,-2.9001,-2.944,-2.9528,-2.9591,-2.9628,-2.9641,-2.9666,-2.9767,-2.9779,-2.9779,-2.9767,-2.9691,-2.9616,-2.9566,-2.9076,-2.8436,-2.757,-2.6839,-2.6559,-2.6658,-2.6589,-2.6555,-2.6679,-2.6624,-2.6487,-2.6487,-2.6487,-2.6487,-2.6487,-2.6487,-2.6487,-2.6487,-2.6487,-2.6487,-2.6452,-2.5699,-2.4671,-2.3635,-2.2664,-2.1631,-2.075,-2.0615,-2.0615,-4.4228,-4.4787,-4.6244,-4.685,-4.6952,-4.8401,-4.9018,-4.8951,-4.8308,-4.7767,-4.7378,-4.6972,-4.6599,-4.6312,-4.6295,-4.6109,-4.5788,-4.5799,-4.5551,-4.5213,-4.5196,-4.4976,-4.4615,-4.4598,-4.4598,-4.457,-4.4196,-4.3851,-4.3492,-4.266,-4.1662,-4.0523,-3.925,-3.8442,-3.8165,-3.6773,-3.6043,-3.6028,-3.5684,-3.5489,-3.5489,-3.5489,-3.5489,-3.5489,-3.5489,-3.5489,-3.5489,-3.5489,-3.5489,-3.5489,-3.5489,-3.5489,-3.5489,-3.5489,-3.5489,-3.5489,-3.5205,-3.4876,-3.4533,-3.4234,-3.3648,-3.2786,-3.2597,-3.1757,-2.9941,-2.8984,-2.865,-2.8976,-2.9026,-2.9114,-2.9365,-2.9402,-2.9503,-2.9767,-2.9779,-2.9779,-2.9779,-2.9779,-2.9779,-2.9779,-2.9779,-2.9779,-2.9779,-2.9779,-2.9779,-2.9741,-2.9251,-2.8712,-2.821,-2.7695,-2.7153,-2.665,-2.6487,-2.6487,-2.6499,-2.6487,-2.6487,-2.6487,-2.6487,-2.6487,-2.6487,-2.6487,-2.6487,-2.6487,-2.6487,-2.6487,-2.6487,-2.5205,-2.4145,-2.3599,-2.2226,-2.1155,-2.0673,-2.0615,-2.0683,-4.3448,-4.381,-4.5269,-4.6012,-4.6365,-4.7966,-4.8688,-4.8719,-4.8892,-4.8697,-4.8091,-4.753,-4.7192,-4.7056,-4.7039,-4.6955,-4.6802,-4.6786,-4.6481,-4.5991,-4.5957,-4.5551,-4.4891,-4.484,-4.4784,-4.4604,-4.4412,-4.4384,-4.4485,-4.3726,-4.2724,-4.1353,-3.9102,-3.8248,-3.8894,-3.744,-3.6686,-3.6656,-3.6058,-3.5669,-3.5504,-3.5489,-3.5489,-3.5489,-3.5489,-3.5489,-3.5489,-3.5489,-3.5489,-3.5489,-3.5489,-3.5489,-3.5489,-3.5489,-3.5489,-3.5489,-3.5489,-3.528,-3.4771,-3.4743,-3.4441,-3.3711,-3.3869,-3.331,-3.1679,-3.0256,-2.9505,-2.9742,-2.9741,-2.9754,-2.9754,-2.9767,-2.9779,-2.9779,-2.9779,-2.9779,-2.9779,-2.9779,-2.9779,-2.9779,-2.9779,-2.9779,-2.9779,-2.9779,-2.9779,-2.9716,-2.939,-2.9114,-2.8888,-2.8536,-2.7883,-2.7216,-2.6864,-2.6927,-2.6864,-2.6901,-2.6927,-2.6864,-2.6776,-2.6751,-2.6713,-2.6625,-2.6499,-2.6487,-2.6487,-2.6487,-2.6349,-2.4921,-2.3734,-2.3368,-2.2048,-2.0683,-2.0605,-2.0732,-2.081,-4.381,-4.4624,-4.4871,-4.5431,-4.6314,-4.734,-4.7786,-4.7901,-4.8625,-4.8984,-4.8849,-4.8832,-4.8392,-4.7868,-4.7787,-4.7479,-4.6887,-4.6802,-4.6786,-4.6718,-4.6701,-4.6312,-4.5635,-4.5585,-4.5246,-4.4615,-4.3889,-4.3931,-4.4542,-4.371,-4.3213,-4.2837,-4.0688,-3.949,-3.9431,-3.8091,-3.7315,-3.73,-3.6701,-3.6103,-3.5534,-3.5489,-3.5489,-3.5489,-3.5489,-3.5489,-3.5489,-3.5489,-3.5489,-3.5489,-3.5489,-3.5489,-3.5489,-3.5489,-3.5489,-3.5489,-3.5489,-3.5459,-3.54,-3.54,-3.5337,-3.5237,-3.4451,-3.3587,-3.2522,-3.1556,-3.0618,-3.0024,-2.9779,-2.9779,-2.9779,-2.9779,-2.9779,-2.9779,-2.9779,-2.9779,-2.9779,-2.9779,-2.9779,-2.9779,-2.9779,-2.9779,-2.9779,-2.9779,-2.9779,-2.9779,-2.9691,-2.9465,-2.9063,-2.8938,-2.865,-2.8134,-2.7946,-2.7921,-2.7871,-2.7946,-2.7808,-2.7821,-2.7507,-2.7243,-2.7128,-2.6813,-2.6487,-2.6499,-2.6487,-2.6487,-2.6082,-2.4909,-2.3588,-2.3257,-2.2086,-2.0615,-2.0654,-2.0859,-2.1103,-4.3551,-4.3966,-4.4564,-4.567,-4.7054,-4.8031,-4.8433,-4.8482,-4.8829,-4.9018,-4.9018,-4.9018,-4.8832,-4.8578,-4.8562,-4.8392,-4.8105,-4.8105,-4.7851,-4.7479,-4.7445,-4.7056,-4.6363,-4.5889,-4.5517,-4.5213,-4.4459,-4.4253,-4.4384,-4.3726,-4.3047,-4.2442,-4.0981,-4.0306,-4.0158,-3.8773,-3.7988,-3.7958,-3.736,-3.6731,-3.6118,-3.5699,-3.5489,-3.5489,-3.5489,-3.5489,-3.5489,-3.5489,-3.5489,-3.5489,-3.5489,-3.5489,-3.5489,-3.5489,-3.5489,-3.5489,-3.5489,-3.5489,-3.5489,-3.5489,-3.5489,-3.5489,-3.5133,-3.4259,-3.2784,-3.2249,-3.1439,-3.0062,-2.9779,-2.9779,-2.9779,-2.9779,-2.9779,-2.9779,-2.9779,-2.9779,-2.9779,-2.9779,-2.9779,-2.9779,-2.9779,-2.9779,-2.9779,-2.9779,-2.9779,-2.9779,-2.9779,-2.9654,-2.9453,-2.944,-2.9352,-2.9176,-2.9101,-2.8787,-2.8335,-2.8109,-2.8134,-2.8084,-2.7934,-2.772,-2.7344,-2.719,-2.6889,-2.6575,-2.6537,-2.6524,-2.6487,-2.4945,-2.3478,-2.3095,-2.2031,-2.0664,-2.0898,-2.1064,-2.1337,-4.3305,-4.3472,-4.4646,-4.5814,-4.6968,-4.8401,-4.8861,-4.8688,-4.8877,-4.9018,-4.9018,-4.9018,-4.9018,-4.9018,-4.9018,-4.9018,-4.9018,-4.9018,-4.8731,-4.821,-4.8193,-4.7834,-4.709,-4.6583,-4.6092,-4.5669,-4.5145,-4.479,-4.4519,-4.371,-4.297,-4.2284,-4.1247,-4.0724,-4.0576,-3.9334,-3.8676,-3.8616,-3.8018,-3.7464,-3.6971,-3.6193,-3.5684,-3.5534,-3.5489,-3.5489,-3.5489,-3.5489,-3.5489,-3.5489,-3.5489,-3.5489,-3.5489,-3.5489,-3.5489,-3.5489,-3.5489,-3.5489,-3.5489,-3.5489,-3.5489,-3.5489,-3.5489,-3.4773,-3.3394,-3.2996,-3.2105,-3.0495,-3.0177,-3.0152,-2.983,-2.9779,-2.9779,-2.9779,-2.9779,-2.9779,-2.9779,-2.9779,-2.9779,-2.9779,-2.9779,-2.9779,-2.9779,-2.9779,-2.9779,-2.9779,-2.9779,-2.9779,-2.9779,-2.9767,-2.9754,-2.9779,-2.9767,-2.9465,-2.8737,-2.8649,-2.8561,-2.8511,-2.8524,-2.8197,-2.7758,-2.767,-2.7318,-2.7014,-2.6813,-2.6531,-2.6327,-2.4981,-2.3216,-2.2698,-2.1781,-2.0918,-2.1328,-2.1434,-2.1836,-4.3305,-4.3591,-4.5327,-4.5654,-4.519,-4.7819,-4.8497,-4.7917,-4.8656,-4.9018,-4.9018,-4.9018,-4.9018,-4.9018,-4.9018,-4.9018,-4.9018,-4.9018,-4.8968,-4.8883,-4.8917,-4.8562,-4.7885,-4.7787,-4.7014,-4.569,-4.5387,-4.5024,-4.4446,-4.368,-4.3276,-4.3078,-4.1478,-4.069,-4.0519,-3.9733,-3.9328,-3.923,-3.8661,-3.8302,-3.8157,-3.706,-3.6193,-3.5639,-3.5504,-3.5489,-3.5489,-3.5489,-3.5489,-3.5489,-3.5489,-3.5489,-3.5489,-3.5489,-3.5489,-3.5489,-3.5489,-3.5489,-3.5489,-3.5489,-3.5489,-3.5489,-3.5489,-3.5052,-3.3959,-3.3808,-3.2961,-3.1291,-3.1007,-3.0733,-2.9921,-2.9779,-2.9779,-2.9779,-2.9779,-2.9779,-2.9779,-2.9779,-2.9779,-2.9779,-2.9779,-2.9779,-2.9779,-2.9779,-2.9779,-2.9779,-2.9779,-2.9779,-2.9779,-2.9779,-2.9779,-2.9779,-2.9779,-2.9754,-2.9691,-2.9453,-2.9515,-2.9453,-2.9063,-2.8837,-2.865,-2.8399,-2.7896,-2.7457,-2.7318,-2.6937,-2.6315,-2.498,-2.3172,-2.2271,-2.1778,-2.1387,-2.1768,-2.2187,-2.2461,-4.3305,-4.3409,-4.4743,-4.5431,-4.5869,-4.7456,-4.8208,-4.8497,-4.8861,-4.9018,-4.9018,-4.9018,-4.9018,-4.9018,-4.9018,-4.9018,-4.9018,-4.9018,-4.9018,-4.9018,-4.9018,-4.8553,-4.7729,-4.7248,-4.6417,-4.5342,-4.4411,-4.3611,-4.3005,-4.2598,-4.2157,-4.1642,-4.1062,-4.0432,-3.992,-3.9538,-3.9388,-3.9358,-3.917,-3.8841,-3.8422,-3.7928,-3.7225,-3.6178,-3.5714,-3.5489,-3.5489,-3.5489,-3.5489,-3.5489,-3.5489,-3.5489,-3.5489,-3.5489,-3.5489,-3.5489,-3.5489,-3.5489,-3.5489,-3.5489,-3.5489,-3.5489,-3.5489,-3.51,-3.4245,-3.3945,-3.3241,-3.1669,-3.1204,-3.0758,-3.0024,-2.9779,-2.9779,-2.9779,-2.9779,-2.9779,-2.9779,-2.9779,-2.9779,-2.9779,-2.9779,-2.9779,-2.9779,-2.9779,-2.9779,-2.9779,-2.9779,-2.9779,-2.9779,-2.9779,-2.9779,-2.9779,-2.9779,-2.9779,-2.9779,-2.9767,-2.9767,-2.9741,-2.9541,-2.9239,-2.8988,-2.885,-2.8436,-2.7984,-2.7821,-2.7248,-2.6493,-2.4777,-2.3037,-2.213,-2.165,-2.1816,-2.2207,-2.249,-2.2685,-4.3305,-4.3448,-4.4412,-4.5322,-4.6279,-4.7205,-4.8129,-4.897,-4.9018,-4.9018,-4.9018,-4.9018,-4.9018,-4.9018,-4.9018,-4.9018,-4.9018,-4.9018,-4.9018,-4.9018,-4.9018,-4.8639,-4.7996,-4.7242,-4.6405,-4.5399,-4.3792,-4.2749,-4.2349,-4.2093,-4.1691,-4.118,-4.0878,-4.0432,-3.9864,-3.9553,-3.9388,-3.9388,-3.9388,-3.917,-3.8736,-3.8497,-3.8003,-3.715,-3.6477,-3.5908,-3.5534,-3.5489,-3.5489,-3.5489,-3.5489,-3.5489,-3.5489,-3.5489,-3.5489,-3.5489,-3.5489,-3.5489,-3.5489,-3.5489,-3.5489,-3.5489,-3.5504,-3.5166,-3.4543,-3.4476,-3.3547,-3.2177,-3.1633,-3.123,-3.0139,-2.9779,-2.9779,-2.9779,-2.9779,-2.9779,-2.9779,-2.9779,-2.9779,-2.9779,-2.9779,-2.9779,-2.9779,-2.9779,-2.9779,-2.9779,-2.9779,-2.9779,-2.9779,-2.9779,-2.9779,-2.9779,-2.9779,-2.9779,-2.9779,-2.9779,-2.9779,-2.9767,-2.9754,-2.9503,-2.9352,-2.9227,-2.8963,-2.8561,-2.799,-2.7419,-2.6215,-2.4506,-2.3316,-2.2332,-2.2119,-2.2227,-2.25,-2.2705,-2.2818,-4.3305,-4.3448,-4.4373,-4.5227,-4.6138,-4.707,-4.8096,-4.8798,-4.8987,-4.9018,-4.9018,-4.9018,-4.9018,-4.9018,-4.9018,-4.9018,-4.9018,-4.9018,-4.9018,-4.9018,-4.9018,-4.894,-4.8671,-4.7867,-4.6947,-4.6011,-4.4022,-4.2952,-4.2661,-4.2104,-4.1769,-4.169,-4.0894,-4.0466,-4.0588,-3.9773,-3.9388,-3.9388,-3.9388,-3.9358,-3.9298,-3.8796,-3.8407,-3.8212,-3.7644,-3.6806,-3.5669,-3.5579,-3.5564,-3.5504,-3.5489,-3.5489,-3.5489,-3.5489,-3.5489,-3.5489,-3.5489,-3.5489,-3.5489,-3.5489,-3.5489,-3.5489,-3.5489,-3.5457,-3.5344,-3.5311,-3.4524,-3.2855,-3.2379,-3.1792,-3.0216,-2.9779,-2.9779,-2.9779,-2.9779,-2.9779,-2.9779,-2.9779,-2.9779,-2.9779,-2.9779,-2.9779,-2.9779,-2.9779,-2.9779,-2.9779,-2.9779,-2.9779,-2.9779,-2.9779,-2.9779,-2.9779,-2.9779,-2.9779,-2.9779,-2.9779,-2.9779,-2.9779,-2.9779,-2.9679,-2.9641,-2.9541,-2.9402,-2.8963,-2.8065,-2.7403,-2.5746,-2.419,-2.3412,-2.2623,-2.2627,-2.2598,-2.2783,-2.2916,-2.2974,-4.3305,-4.3329,-4.363,-4.4358,-4.5285,-4.626,-4.7172,-4.808,-4.8688,-4.9001,-4.9018,-4.9018,-4.9018,-4.9018,-4.9018,-4.9018,-4.9018,-4.9018,-4.9018,-4.9018,-4.9018,-4.8656,-4.8112,-4.7721,-4.6578,-4.4693,-4.3283,-4.2102,-4.1357,-4.1051,-4.0709,-4.0222,-3.997,-3.9793,-3.9829,-3.9517,-3.9388,-3.9388,-3.9388,-3.9388,-3.9409,-3.9215,-3.8886,-3.8422,-3.8182,-3.7659,-3.6866,-3.6402,-3.5953,-3.5549,-3.5489,-3.5489,-3.5489,-3.5489,-3.5489,-3.5489,-3.5489,-3.5489,-3.5489,-3.5489,-3.5489,-3.5489,-3.5489,-3.5489,-3.5489,-3.5489,-3.4639,-3.2961,-3.2558,-3.1829,-3.0279,-2.9779,-2.9779,-2.9779,-2.9779,-2.9779,-2.9779,-2.9779,-2.9779,-2.9779,-2.9779,-2.9779,-2.9779,-2.9779,-2.9779,-2.9779,-2.9779,-2.9779,-2.9779,-2.9779,-2.9779,-2.9779,-2.9779,-2.9779,-2.9779,-2.9779,-2.9779,-2.9779,-2.9779,-2.9779,-2.9779,-2.9767,-2.9641,-2.9155,-2.8252,-2.7012,-2.5347,-2.4096,-2.3283,-2.2998,-2.2924,-2.2945,-2.3052,-2.3101,-2.3101,-4.3305,-4.3305,-4.3305,-4.3873,-4.4871,-4.5814,-4.6747,-4.7671,-4.8576,-4.9001,-4.9018,-4.9018,-4.9018,-4.9018,-4.9018,-4.9018,-4.9018,-4.9018,-4.9018,-4.9018,-4.9018,-4.8656,-4.8015,-4.734,-4.6137,-4.4293,-4.2955,-4.1841,-4.0801,-4.0487,-4.0068,-3.9514,-3.9388,-3.9424,-3.9388,-3.9388,-3.9388,-3.9388,-3.9388,-3.9388,-3.9388,-3.9388,-3.92,-3.8841,-3.8781,-3.8437,-3.7793,-3.7165,-3.6522,-3.5953,-3.5669,-3.5504,-3.5489,-3.5489,-3.5489,-3.5489,-3.5489,-3.5489,-3.5489,-3.5489,-3.5489,-3.5489,-3.5489,-3.5489,-3.5489,-3.5489,-3.4706,-3.3449,-3.277,-3.201,-3.0633,-2.996,-2.9818,-2.9779,-2.9779,-2.9779,-2.9779,-2.9779,-2.9779,-2.9779,-2.9779,-2.9779,-2.9779,-2.9779,-2.9779,-2.9779,-2.9779,-2.9779,-2.9779,-2.9779,-2.9779,-2.9779,-2.9779,-2.9779,-2.9779,-2.9779,-2.9779,-2.9779,-2.9779,-2.9779,-2.9779,-2.9779,-2.9716,-2.9135,-2.829,-2.7163,-2.5598,-2.4089,-2.3061,-2.3081,-2.3091,-2.3101,-2.3101,-2.3101,-2.3101,-4.3305,-4.3305,-4.3305,-4.381,-4.4737,-4.5618,-4.6558,-4.7523,-4.8465,-4.8909,-4.897,-4.9018,-4.9018,-4.9018,-4.9018,-4.9018,-4.9018,-4.9018,-4.9018,-4.9018,-4.9018,-4.8909,-4.8688,-4.7172,-4.5857,-4.4849,-4.3266,-4.2156,-4.1467,-4.0846,-4.0127,-3.9619,-3.9463,-3.9388,-3.9388,-3.9388,-3.9388,-3.9388,-3.9388,-3.9388,-3.9388,-3.9388,-3.9394,-3.9313,-3.9298,-3.9065,-3.8467,-3.7734,-3.7045,-3.6432,-3.5759,-3.5489,-3.5489,-3.5489,-3.5489,-3.5489,-3.5489,-3.5489,-3.5489,-3.5489,-3.5489,-3.5489,-3.5489,-3.5489,-3.5489,-3.5457,-3.5052,-3.3945,-3.3101,-3.2213,-3.118,-3.0317,-2.9856,-2.9779,-2.9779,-2.9779,-2.9779,-2.9779,-2.9779,-2.9779,-2.9779,-2.9779,-2.9779,-2.9779,-2.9779,-2.9779,-2.9779,-2.9779,-2.9779,-2.9779,-2.9779,-2.9779,-2.9779,-2.9779,-2.9779,-2.9779,-2.9779,-2.9779,-2.9779,-2.9779,-2.9779,-2.9779,-2.9482,-2.891,-2.8383,-2.718,-2.585,-2.4339,-2.3299,-2.3135,-2.3135,-2.3091,-2.3101,-2.3101,-2.3101,-4.3305,-4.3305,-4.3305,-4.3433,-4.381,-4.4759,-4.5706,-4.6627,-4.7589,-4.8401,-4.8861,-4.9018,-4.9018,-4.9018,-4.9018,-4.9018,-4.9018,-4.9018,-4.9018,-4.9018,-4.9018,-4.9018,-4.8608,-4.7122,-4.6067,-4.555,-4.3938,-4.2731,-4.2126,-4.1399,-4.0756,-4.0142,-3.9634,-3.9388,-3.9388,-3.9388,-3.9388,-3.9388,-3.9388,-3.9388,-3.9388,-3.9388,-3.9388,-3.9388,-3.9388,-3.9284,-3.9035,-3.8018,-3.6866,-3.5863,-3.5624,-3.5489,-3.5489,-3.5489,-3.5489,-3.5489,-3.5489,-3.5489,-3.5489,-3.5489,-3.5489,-3.5489,-3.5489,-3.5489,-3.5489,-3.5489,-3.4986,-3.4109,-3.3136,-3.2249,-3.1328,-3.0343,-2.9856,-2.9779,-2.9779,-2.9779,-2.9779,-2.9779,-2.9779,-2.9779,-2.9779,-2.9779,-2.9779,-2.9779,-2.9779,-2.9779,-2.9779,-2.9779,-2.9779,-2.9779,-2.9779,-2.9779,-2.9779,-2.9779,-2.9779,-2.9779,-2.9779,-2.9779,-2.9779,-2.9779,-2.9779,-2.9779,-2.9236,-2.8557,-2.8359,-2.7441,-2.6036,-2.4575,-2.3953,-2.3377,-2.3135,-2.3144,-2.3101,-2.3101,-2.3101,-4.3305,-4.3305,-4.3305,-4.3305,-4.3448,-4.4373,-4.5116,-4.5798,-4.702,-4.7868,-4.8401,-4.8861,-4.9001,-4.9018,-4.9018,-4.9018,-4.9018,-4.9018,-4.9018,-4.9018,-4.9018,-4.9018,-4.8545,-4.7088,-4.6208,-4.5961,-4.4228,-4.3058,-4.2366,-4.1737,-4.1093,-4.0367,-3.9738,-3.9403,-3.9388,-3.9388,-3.9388,-3.9388,-3.9388,-3.9388,-3.9388,-3.9388,-3.9388,-3.9388,-3.9373,-3.9298,-3.8916,-3.7958,-3.6926,-3.6103,-3.5684,-3.5489,-3.5489,-3.5489,-3.5489,-3.5489,-3.5489,-3.5489,-3.5489,-3.5489,-3.5489,-3.5489,-3.5489,-3.5489,-3.5489,-3.5504,-3.5148,-3.4706,-3.3754,-3.282,-3.1829,-3.0595,-2.9895,-2.9779,-2.9779,-2.9779,-2.9779,-2.9779,-2.9779,-2.9779,-2.9779,-2.9779,-2.9779,-2.9779,-2.9779,-2.9779,-2.9779,-2.9779,-2.9779,-2.9779,-2.9779,-2.9779,-2.9779,-2.9779,-2.9779,-2.9779,-2.9779,-2.9779,-2.9779,-2.9779,-2.9779,-2.9779,-2.9482,-2.8937,-2.8466,-2.7792,-2.6591,-2.5399,-2.4532,-2.4006,-2.3517,-2.3135,-2.3135,-2.3101,-2.3101,-4.3305,-4.3305,-4.3305,-4.3305,-4.3448,-4.4259,-4.4796,-4.5322,-4.6678,-4.7589,-4.8015,-4.8688,-4.9001,-4.9018,-4.9018,-4.9018,-4.9018,-4.9018,-4.9018,-4.9018,-4.9018,-4.9018,-4.8781,-4.7088,-4.6138,-4.569,-4.4128,-4.3172,-4.2476,-4.1803,-4.1115,-4.0516,-3.9843,-3.9418,-3.9388,-3.9388,-3.9388,-3.9388,-3.9388,-3.9388,-3.9388,-3.9388,-3.9388,-3.9388,-3.9388,-3.9185,-3.8646,-3.7928,-3.724,-3.6596,-3.5908,-3.5534,-3.5489,-3.5489,-3.5489,-3.5489,-3.5489,-3.5489,-3.5489,-3.5489,-3.5489,-3.5489,-3.5489,-3.5489,-3.5489,-3.5504,-3.5424,-3.5311,-3.4576,-3.3415,-3.2213,-3.0846,-3.0075,-2.9856,-2.9779,-2.9779,-2.9779,-2.9779,-2.9779,-2.9779,-2.9779,-2.9779,-2.9779,-2.9779,-2.9779,-2.9779,-2.9779,-2.9779,-2.9779,-2.9779,-2.9779,-2.9779,-2.9779,-2.9779,-2.9779,-2.9779,-2.9779,-2.9779,-2.9779,-2.9779,-2.9779,-2.9779,-2.9779,-2.9521,-2.9067,-2.8518,-2.7792,-2.6644,-2.5566,-2.4532,-2.4039,-2.3551,-2.3178,-2.3135,-2.3101,-4.3305,-4.3305,-4.3305,-4.3305,-4.3329,-4.3551,-4.4479,-4.5869,-4.633,-4.734,-4.8465,-4.8909,-4.9001,-4.9018,-4.9018,-4.9018,-4.9018,-4.9018,-4.9018,-4.9018,-4.9018,-4.9001,-4.8576,-4.7054,-4.5869,-4.5101,-4.395,-4.324,-4.288,-4.1968,-4.1324,-4.104,-4.0008,-3.9388,-3.9388,-3.9388,-3.9388,-3.9388,-3.9388,-3.9388,-3.9388,-3.9388,-3.9388,-3.9388,-3.9388,-3.9328,-3.911,-3.8542,-3.7883,-3.712,-3.6207,-3.5579,-3.5504,-3.5489,-3.5489,-3.5489,-3.5489,-3.5489,-3.5489,-3.5489,-3.5489,-3.5489,-3.5489,-3.5489,-3.5489,-3.5489,-3.5489,-3.5311,-3.4576,-3.3415,-3.1924,-3.1254,-3.052,-2.9998,-2.9779,-2.9779,-2.9779,-2.9779,-2.9779,-2.9779,-2.9779,-2.9779,-2.9779,-2.9779,-2.9779,-2.9779,-2.9779,-2.9779,-2.9779,-2.9779,-2.9779,-2.9779,-2.9779,-2.9779,-2.9779,-2.9779,-2.9779,-2.9779,-2.9779,-2.9779,-2.9779,-2.9779,-2.9779,-2.9753,-2.9663,-2.9106,-2.8505,-2.7884,-2.6808,-2.5692,-2.4532,-2.392,-2.343,-2.3299,-2.3101,-4.3305,-4.3305,-4.3305,-4.3305,-4.3305,-4.3344,-4.4167,-4.5452,-4.6048,-4.6986,-4.8225,-4.875,-4.9001,-4.9018,-4.9018,-4.9018,-4.9018,-4.9018,-4.9018,-4.9018,-4.897,-4.875,-4.8112,-4.702,-4.5869,-4.5248,-4.395,-4.3369,-4.2961,-4.2117,-4.1422,-4.1302,-4.0068,-3.9448,-3.9388,-3.9388,-3.9388,-3.9388,-3.9388,-3.9388,-3.9388,-3.9388,-3.9388,-3.9388,-3.9388,-3.9388,-3.9313,-3.8751,-3.8063,-3.7345,-3.6507,-3.5804,-3.5549,-3.5489,-3.5489,-3.5489,-3.5489,-3.5489,-3.5489,-3.5489,-3.5489,-3.5489,-3.5489,-3.5489,-3.5489,-3.5489,-3.5489,-3.5392,-3.492,-3.3939,-3.2105,-3.1352,-3.0796,-3.0075,-2.9779,-2.9779,-2.9779,-2.9779,-2.9779,-2.9779,-2.9779,-2.9779,-2.9779,-2.9779,-2.9779,-2.9779,-2.9779,-2.9779,-2.9779,-2.9779,-2.9779,-2.9779,-2.9779,-2.9779,-2.9779,-2.9779,-2.9779,-2.9779,-2.9779,-2.9779,-2.9779,-2.9779,-2.9779,-2.974,-2.9753,-2.9663,-2.9106,-2.8518,-2.7763,-2.6408,-2.5252,-2.4339,-2.3681,-2.3387,-2.3178,-4.3305,-4.3305,-4.3305,-4.3305,-4.3305,-4.3305,-4.4028,-4.5116,-4.5834,-4.6884,-4.7836,-4.8688,-4.9018,-4.9018,-4.9018,-4.9018,-4.9018,-4.9018,-4.9018,-4.9018,-4.8719,-4.8321,-4.7556,-4.6574,-4.5798,-4.5778,-4.4167,-4.3369,-4.2961,-4.2117,-4.1452,-4.1197,-4.0068,-3.9448,-3.9388,-3.9388,-3.9388,-3.9388,-3.9388,-3.9388,-3.9388,-3.9388,-3.9388,-3.9388,-3.9388,-3.9388,-3.9298,-3.8886,-3.8227,-3.7449,-3.6911,-3.6267,-3.5699,-3.5489,-3.5489,-3.5489,-3.5489,-3.5489,-3.5489,-3.5489,-3.5489,-3.5489,-3.5489,-3.5489,-3.5489,-3.5489,-3.5489,-3.5392,-3.5067,-3.4293,-3.2784,-3.1756,-3.0796,-3.0062,-2.9779,-2.9779,-2.9779,-2.9779,-2.9779,-2.9779,-2.9779,-2.9779,-2.9779,-2.9779,-2.9779,-2.9779,-2.9779,-2.9779,-2.9779,-2.9779,-2.9779,-2.9779,-2.9779,-2.9779,-2.9779,-2.9779,-2.9779,-2.9779,-2.9779,-2.9779,-2.9779,-2.9779,-2.9779,-2.9779,-2.974,-2.9702,-2.9573,-2.9106,-2.8148,-2.6924,-2.6171,-2.5535,-2.4585,-2.3551,-2.3299,-4.3305,-4.3305,-4.3305,-4.3305,-4.3305,-4.3305,-4.4251,-4.5818,-4.6067,-4.7205,-4.8625,-4.894,-4.9018,-4.9018,-4.9018,-4.9018,-4.9018,-4.9018,-4.897,-4.8767,-4.8306,-4.7721,-4.7239,-4.5921,-4.5174,-4.4759,-4.3849,-4.3344,-4.3006,-4.2087,-4.1482,-4.1138,-4.0068,-3.9403,-3.9388,-3.9388,-3.9388,-3.9388,-3.9388,-3.9388,-3.9388,-3.9388,-3.9388,-3.9388,-3.9388,-3.9388,-3.9388,-3.9224,-3.8691,-3.7569,-3.733,-3.6611,-3.5789,-3.5489,-3.5489,-3.5489,-3.5489,-3.5489,-3.5489,-3.5489,-3.5489,-3.5489,-3.5489,-3.5489,-3.5489,-3.5489,-3.5489,-3.5311,-3.4758,-3.3842,-3.2735,-3.1865,-3.0833,-3.0139,-2.9779,-2.9779,-2.9779,-2.9779,-2.9779,-2.9779,-2.9779,-2.9779,-2.9779,-2.9779,-2.9779,-2.9779,-2.9779,-2.9779,-2.9779,-2.9779,-2.9779,-2.9779,-2.9779,-2.9779,-2.9779,-2.9779,-2.9779,-2.9779,-2.9779,-2.9779,-2.9779,-2.9779,-2.9779,-2.9779,-2.9779,-2.974,-2.9611,-2.9443,-2.8767,-2.7654,-2.7186,-2.6767,-2.5326,-2.4006,-2.3627,-4.3305,-4.3305,-4.3305,-4.3305,-4.3305,-4.3305,-4.4128,-4.5431,-4.6012,-4.6952,-4.808,-4.875,-4.9018,-4.9018,-4.9018,-4.9018,-4.9018,-4.9001,-4.875,-4.8257,-4.7803,-4.7273,-4.685,-4.5395,-4.4946,-4.4548,-4.3849,-4.329,-4.3155,-4.2013,-4.1482,-4.1085,-4.0068,-3.9388,-3.9388,-3.9388,-3.9388,-3.9388,-3.9388,-3.9388,-3.9388,-3.9388,-3.9388,-3.9388,-3.9388,-3.9388,-3.9388,-3.9388,-3.873,-3.7719,-3.7404,-3.6686,-3.5923,-3.5489,-3.5489,-3.5489,-3.5489,-3.5489,-3.5489,-3.5489,-3.5489,-3.5489,-3.5489,-3.5489,-3.5489,-3.5489,-3.5489,-3.5392,-3.518,-3.4143,-3.2784,-3.2177,-3.1304,-3.0139,-2.9779,-2.9779,-2.9779,-2.9779,-2.9779,-2.9779,-2.9779,-2.9779,-2.9779,-2.9779,-2.9779,-2.9779,-2.9779,-2.9779,-2.9779,-2.9779,-2.9779,-2.9779,-2.9779,-2.9779,-2.9779,-2.9779,-2.9779,-2.9779,-2.9779,-2.9779,-2.9779,-2.9779,-2.9779,-2.9779,-2.9779,-2.9779,-2.974,-2.9611,-2.8976,-2.8466,-2.7976,-2.7227,-2.5703,-2.4585,-2.4253,-4.3305,-4.3305,-4.3305,-4.3305,-4.3305,-4.3305,-4.3888,-4.4834,-4.5561,-4.6539,-4.7622,-4.8321,-4.8798,-4.897,-4.9018,-4.9018,-4.9018,-4.9018,-4.8513,-4.777,-4.734,-4.685,-4.6154,-4.5138,-4.4548,-4.4662,-4.381,-4.3269,-4.288,-4.1938,-4.1399,-4.0861,-3.9933,-3.9388,-3.9388,-3.9388,-3.9388,-3.9388,-3.9388,-3.9388,-3.9388,-3.9388,-3.9388,-3.9388,-3.9388,-3.9388,-3.9388,-3.92,-3.8571,-3.7704,-3.718,-3.6671,-3.5729,-3.5489,-3.5489,-3.5489,-3.5489,-3.5489,-3.5489,-3.5489,-3.5489,-3.5489,-3.5489,-3.5489,-3.5489,-3.5489,-3.5489,-3.5472,-3.5133,-3.4558,-3.3206,-3.2486,-3.1609,-3.0582,-2.996,-2.9779,-2.9779,-2.9779,-2.9779,-2.9779,-2.9779,-2.9779,-2.9779,-2.9779,-2.9779,-2.9779,-2.9779,-2.9779,-2.9779,-2.9779,-2.9779,-2.9779,-2.9779,-2.9779,-2.9779,-2.9779,-2.9779,-2.9779,-2.9779,-2.9779,-2.9779,-2.9779,-2.9779,-2.9779,-2.9779,-2.9779,-2.9779,-2.9779,-2.9365,-2.8976,-2.8609,-2.7896,-2.6737,-2.5661,-2.501,-4.3305,-4.3305,-4.3305,-4.3305,-4.3305,-4.3305,-4.3849,-4.4699,-4.4946,-4.5992,-4.7373,-4.7754,-4.8289,-4.8861,-4.9018,-4.9018,-4.9018,-4.897,-4.8482,-4.7638,-4.6952,-4.6558,-4.5961,-4.4251,-4.4396,-4.4624,-4.3834,-4.3049,-4.2462,-4.1713,-4.107,-4.0516,-3.9918,-3.9388,-3.9388,-3.9388,-3.9388,-3.9388,-3.9388,-3.9388,-3.9388,-3.9388,-3.9388,-3.9388,-3.9388,-3.9388,-3.9298,-3.8945,-3.8182,-3.7524,-3.6881,-3.6267,-3.5624,-3.5489,-3.5489,-3.5489,-3.5489,-3.5489,-3.5489,-3.5489,-3.5489,-3.5489,-3.5489,-3.5489,-3.5489,-3.5489,-3.5489,-3.5472,-3.4854,-3.4259,-3.3533,-3.2357,-3.1476,-3.0796,-3.0203,-2.9921,-2.9779,-2.9779,-2.9779,-2.9779,-2.9779,-2.9779,-2.9779,-2.9779,-2.9779,-2.9779,-2.9779,-2.9779,-2.9779,-2.9779,-2.9779,-2.9779,-2.9779,-2.9779,-2.9779,-2.9779,-2.9779,-2.9779,-2.9779,-2.9779,-2.9779,-2.9779,-2.9779,-2.9779,-2.9779,-2.9779,-2.9779,-2.974,-2.9702,-2.9495,-2.9197,-2.8688,-2.8096,-2.7023,-2.5922,-4.3305,-4.3305,-4.3305,-4.3305,-4.3305,-4.3305,-4.3512,-4.3989,-4.4564,-4.5227,-4.617,-4.7205,-4.8112,-4.8861,-4.9018,-4.9018,-4.9018,-4.9018,-4.8482,-4.777,-4.7138,-4.6712,-4.6138,-4.5363,-4.5174,-4.4699,-4.4235,-4.3198,-4.2296,-4.1557,-4.1055,-4.0367,-3.9768,-3.9388,-3.9388,-3.9388,-3.9388,-3.9388,-3.9388,-3.9388,-3.9388,-3.9388,-3.9388,-3.9388,-3.9388,-3.9388,-3.926,-3.8751,-3.8093,-3.7449,-3.6821,-3.6193,-3.5684,-3.5489,-3.5489,-3.5489,-3.5489,-3.5489,-3.5489,-3.5489,-3.5489,-3.5489,-3.5489,-3.5489,-3.5489,-3.5489,-3.5489,-3.5504,-3.5133,-3.4624,-3.3945,-3.277,-3.1924,-3.118,-3.0343,-3.0024,-2.9779,-2.9779,-2.9779,-2.9779,-2.9779,-2.9779,-2.9779,-2.9779,-2.9779,-2.9779,-2.9779,-2.9779,-2.9779,-2.9779,-2.9779,-2.9779,-2.9779,-2.9779,-2.9779,-2.9779,-2.9779,-2.9779,-2.9779,-2.9779,-2.9779,-2.9779,-2.9779,-2.9779,-2.9779,-2.9779,-2.9779,-2.9779,-2.974,-2.974,-2.9779,-2.9145,-2.8557,-2.8004,-2.6942,-4.3305,-4.3305,-4.3305,-4.3305,-4.3305,-4.3305,-4.3305,-4.3448,-4.4358,-4.4946,-4.5597,-4.7104,-4.8401,-4.8861,-4.9018,-4.9018,-4.9018,-4.9018,-4.8433,-4.7868,-4.7523,-4.7189,-4.6662,-4.6279,-4.5905,-4.5431,-4.4614,-4.3528,-4.2257,-4.1302,-4.0726,-4.0157,-3.9664,-3.9418,-3.9388,-3.9388,-3.9388,-3.9388,-3.9388,-3.9388,-3.9388,-3.9388,-3.9388,-3.9388,-3.9388,-3.9388,-3.9305,-3.8512,-3.7808,-3.7449,-3.6582,-3.5923,-3.5564,-3.5489,-3.5489,-3.5489,-3.5489,-3.5489,-3.5489,-3.5489,-3.5489,-3.5489,-3.5489,-3.5489,-3.5489,-3.5489,-3.5489,-3.5489,-3.5457,-3.4872,-3.4095,-3.3087,-3.2177,-3.1254,-3.0381,-3.0062,-2.9779,-2.9779,-2.9779,-2.9779,-2.9779,-2.9779,-2.9779,-2.9779,-2.9779,-2.9779,-2.9779,-2.9779,-2.9779,-2.9779,-2.9779,-2.9779,-2.9779,-2.9779,-2.9779,-2.9779,-2.9779,-2.9779,-2.9779,-2.9779,-2.9779,-2.9779,-2.9779,-2.9779,-2.9779,-2.9779,-2.9779,-2.9779,-2.9779,-2.9779,-2.9702,-2.9404,-2.8937,-2.8466,-2.7804,-4.3305,-4.3305,-4.3329,-4.3329,-4.3305,-4.3305,-4.329,-4.3512,-4.4396,-4.5322,-4.6295,-4.7885,-4.8719,-4.8987,-4.9018,-4.9018,-4.9018,-4.9018,-4.8465,-4.7933,-4.7589,-4.7622,-4.7306,-4.6918,-4.6475,-4.6484,-4.508,-4.3578,-4.2427,-4.0979,-4.0261,-3.9559,-3.9463,-3.9403,-3.9388,-3.9388,-3.9388,-3.9388,-3.9388,-3.9388,-3.9388,-3.9388,-3.9388,-3.9388,-3.9388,-3.9373,-3.9328,-3.8257,-3.7554,-3.736,-3.6327,-3.5729,-3.5534,-3.5489,-3.5489,-3.5489,-3.5489,-3.5489,-3.5489,-3.5489,-3.5489,-3.5489,-3.5489,-3.5489,-3.5489,-3.5489,-3.5489,-3.5489,-3.5489,-3.51,-3.4177,-3.3171,-3.2249,-3.1513,-3.0671,-2.9998,-2.9779,-2.9779,-2.9779,-2.9779,-2.9779,-2.9779,-2.9779,-2.9779,-2.9779,-2.9779,-2.9779,-2.9779,-2.9779,-2.9779,-2.9779,-2.9779,-2.9779,-2.9779,-2.9779,-2.9779,-2.9779,-2.9779,-2.9779,-2.9779,-2.9779,-2.9779,-2.9779,-2.9779,-2.9779,-2.9779,-2.9779,-2.9779,-2.9779,-2.9779,-2.9702,-2.9482,-2.9275,-2.8937,-2.8148,-4.5085,-4.5069,-4.5069,-4.4403,-4.3305,-4.3305,-4.3669,-4.422,-4.4662,-4.5685,-4.7088,-4.7836,-4.8465,-4.8861,-4.9018,-4.9018,-4.9018,-4.9018,-4.8719,-4.8608,-4.8465,-4.8465,-4.8112,-4.7408,-4.6774,-4.5979,-4.4429,-4.2759,-4.1222,-4.0626,-4.0096,-3.9619,-3.9403,-3.9388,-3.9388,-3.9388,-3.9388,-3.9388,-3.9388,-3.9388,-3.9388,-3.9388,-3.9388,-3.9388,-3.9388,-3.9388,-3.9194,-3.8058,-3.7564,-3.709,-3.6148,-3.5699,-3.5489,-3.5489,-3.5489,-3.5489,-3.5489,-3.5489,-3.5489,-3.5489,-3.5489,-3.5489,-3.5489,-3.5489,-3.5489,-3.5489,-3.5489,-3.5489,-3.5424,-3.5034,-3.492,-3.3567,-3.2357,-3.1769,-3.0996,-3.0101,-2.9779,-2.9779,-2.9779,-2.9779,-2.9779,-2.9779,-2.9779,-2.9779,-2.9779,-2.9779,-2.9779,-2.9779,-2.9779,-2.9779,-2.9779,-2.9779,-2.9779,-2.9779,-2.9779,-2.9779,-2.9779,-2.9779,-2.9779,-2.9779,-2.9779,-2.9779,-2.9779,-2.9779,-2.9779,-2.9779,-2.9779,-2.9779,-2.9779,-2.9779,-2.9779,-2.974,-2.9534,-2.9314,-2.874,-4.6208,-4.6208,-4.6208,-4.5436,-4.4213,-4.4151,-4.4555,-4.5174,-4.5577,-4.6486,-4.8015,-4.8047,-4.8321,-4.8861,-4.9018,-4.9018,-4.9018,-4.9018,-4.9018,-4.894,-4.894,-4.8726,-4.8197,-4.7453,-4.6354,-4.4994,-4.3678,-4.2181,-4.1136,-4.0422,-3.9865,-3.9529,-3.9388,-3.9388,-3.9388,-3.9388,-3.9388,-3.9388,-3.9388,-3.9388,-3.9388,-3.9388,-3.9388,-3.9388,-3.9388,-3.9388,-3.9044,-3.8197,-3.746,-3.7015,-3.6342,-3.5609,-3.5489,-3.5489,-3.5489,-3.5489,-3.5489,-3.5489,-3.5489,-3.5489,-3.5489,-3.5489,-3.5489,-3.5489,-3.5489,-3.5489,-3.5489,-3.5457,-3.5279,-3.5067,-3.4986,-3.329,-3.2141,-3.1439,-3.0595,-2.9779,-2.9779,-2.9779,-2.9779,-2.9779,-2.9779,-2.9779,-2.9779,-2.9779,-2.9779,-2.9779,-2.9779,-2.9779,-2.9779,-2.9779,-2.9779,-2.9779,-2.9779,-2.9779,-2.9779,-2.9779,-2.9779,-2.9779,-2.9779,-2.9779,-2.9779,-2.9779,-2.9779,-2.9779,-2.9779,-2.9779,-2.9779,-2.9779,-2.9779,-2.9779,-2.9779,-2.9779,-2.974,-2.9573,-2.9611,-4.6279,-4.6208,-4.6295,-4.6244,-4.6103,-4.6103,-4.6067,-4.6279,-4.7054,-4.795,-4.8767,-4.8861,-4.8861,-4.9018,-4.9018,-4.9018,-4.9018,-4.9001,-4.8934,-4.8866,-4.8546,-4.7931,-4.7071,-4.629,-4.5304,-4.4077,-4.2739,-4.174,-4.139,-4.0175,-3.955,-3.9418,-3.9388,-3.9388,-3.9388,-3.9388,-3.9388,-3.9388,-3.9388,-3.9388,-3.9388,-3.9388,-3.9388,-3.9388,-3.9388,-3.9388,-3.9104,-3.8123,-3.7464,-3.7195,-3.6178,-3.5564,-3.5489,-3.5489,-3.5489,-3.5489,-3.5489,-3.5489,-3.5489,-3.5489,-3.5489,-3.5489,-3.5489,-3.5489,-3.5489,-3.5489,-3.5489,-3.5457,-3.4938,-3.4428,-3.3602,-3.2713,-3.2105,-3.1536,-3.0771,-3.0062,-3.0101,-2.9779,-2.9779,-2.9779,-2.9779,-2.9779,-2.9779,-2.9779,-2.9779,-2.9779,-2.9779,-2.9779,-2.9779,-2.9779,-2.9779,-2.9779,-2.9779,-2.9779,-2.9779,-2.9779,-2.9779,-2.9779,-2.9779,-2.9779,-2.9779,-2.9779,-2.9779,-2.9779,-2.9779,-2.9779,-2.9779,-2.9779,-2.9779,-2.9779,-2.9779,-2.9779,-2.9779,-2.9779,-2.9779,-4.8047,-4.8047,-4.8047,-4.8047,-4.7868,-4.6712,-4.6539,-4.7239,-4.808,-4.8719,-4.894,-4.9018,-4.9018,-4.9018,-4.8968,-4.8934,-4.8951,-4.8984,-4.8883,-4.823,-4.7776,-4.6834,-4.5846,-4.4685,-4.3638,-4.2582,-4.1407,-4.0603,-4.0111,-3.9592,-3.949,-3.9388,-3.9388,-3.9388,-3.9388,-3.9388,-3.9388,-3.9388,-3.9388,-3.9388,-3.9388,-3.9388,-3.9388,-3.9388,-3.9388,-3.9373,-3.9239,-3.8033,-3.7449,-3.721,-3.6133,-3.5549,-3.5489,-3.5489,-3.5489,-3.5489,-3.5489,-3.5489,-3.5489,-3.5489,-3.5489,-3.5489,-3.5489,-3.5489,-3.5489,-3.5489,-3.5489,-3.5424,-3.5052,-3.4806,-3.4739,-3.3891,-3.3241,-3.2876,-3.2141,-3.1156,-3.0733,-3.0101,-2.9779,-2.9779,-2.9779,-2.9779,-2.9779,-2.9779,-2.9779,-2.9779,-2.9779,-2.9779,-2.9779,-2.9779,-2.9779,-2.9779,-2.9779,-2.9779,-2.9779,-2.9779,-2.9779,-2.9779,-2.9779,-2.9779,-2.9779,-2.9779,-2.9779,-2.9779,-2.9779,-2.9779,-2.9779,-2.9779,-2.9779,-2.9779,-2.9779,-2.9779,-2.9779,-2.9779,-2.9779,-4.9018,-4.9018,-4.9018,-4.9018,-4.8829,-4.7688,-4.7539,-4.8144,-4.8719,-4.9018,-4.9018,-4.9001,-4.8815,-4.8697,-4.8612,-4.8359,-4.8291,-4.8206,-4.8122,-4.741,-4.6647,-4.563,-4.4431,-4.3189,-4.2085,-4.1132,-4.0465,-3.9835,-3.9571,-3.9439,-3.9388,-3.9388,-3.9388,-3.9388,-3.9388,-3.9388,-3.9388,-3.9388,-3.9388,-3.9388,-3.9388,-3.9388,-3.9388,-3.9388,-3.9358,-3.9305,-3.8826,-3.8123,-3.73,-3.6881,-3.6222,-3.5519,-3.5489,-3.5489,-3.5489,-3.5489,-3.5489,-3.5489,-3.5489,-3.5489,-3.5489,-3.5489,-3.5489,-3.5489,-3.5489,-3.5489,-3.5489,-3.5424,-3.5279,-3.5279,-3.5166,-3.4394,-3.3602,-3.3171,-3.2451,-3.1389,-3.062,-2.9998,-2.9779,-2.9779,-2.9779,-2.9779,-2.9779,-2.9779,-2.9779,-2.9779,-2.9779,-2.9779,-2.9779,-2.9779,-2.9779,-2.9779,-2.9779,-2.9779,-2.9779,-2.9779,-2.9779,-2.9779,-2.9779,-2.9779,-2.9779,-2.9779,-2.9779,-2.9779,-2.9779,-2.9779,-2.9779,-2.9779,-2.9779,-2.9779,-2.9779,-2.9779,-2.9779,-2.9779,-2.9779,-4.9018,-4.9018,-4.9018,-4.9018,-4.897,-4.8745,-4.8793,-4.8954,-4.9001,-4.8984,-4.8934,-4.8883,-4.8511,-4.7939,-4.7855,-4.7564,-4.7141,-4.7022,-4.6887,-4.6561,-4.5868,-4.462,-4.3362,-4.2221,-4.1074,-4.0045,-3.9478,-3.9568,-3.9388,-3.9388,-3.9388,-3.9388,-3.9388,-3.9388,-3.9388,-3.9388,-3.9388,-3.9388,-3.9388,-3.9388,-3.9388,-3.9388,-3.9388,-3.9388,-3.9358,-3.9065,-3.8542,-3.7823,-3.7165,-3.6567,-3.5893,-3.5609,-3.5489,-3.5489,-3.5489,-3.5489,-3.5489,-3.5489,-3.5489,-3.5489,-3.5489,-3.5489,-3.5489,-3.5489,-3.5489,-3.5489,-3.5489,-3.5311,-3.51,-3.51,-3.5004,-3.3973,-3.2996,-3.2464,-3.1852,-3.1044,-3.0317,-2.9934,-2.9818,-2.9779,-2.9779,-2.9779,-2.9779,-2.9779,-2.9779,-2.9779,-2.9779,-2.9779,-2.9779,-2.9779,-2.9779,-2.9779,-2.9779,-2.9779,-2.9779,-2.9779,-2.9779,-2.9779,-2.9779,-2.9779,-2.9779,-2.9779,-2.9779,-2.9779,-2.9779,-2.9779,-2.9779,-2.9779,-2.9779,-2.9779,-2.9779,-2.9779,-2.9779,-2.9779,-2.9779,-4.9018,-4.9018,-4.9018,-4.9018,-4.8934,-4.846,-4.8511,-4.8968,-4.9001,-4.8765,-4.821,-4.8223,-4.7817,-4.7141,-4.7124,-4.6955,-4.6836,-4.6701,-4.6413,-4.5853,-4.5012,-4.3712,-4.2541,-4.144,-4.0408,-3.9757,-3.9388,-3.9388,-3.9388,-3.9388,-3.9388,-3.9388,-3.9388,-3.9388,-3.9388,-3.9388,-3.9388,-3.9388,-3.9388,-3.9388,-3.9388,-3.9388,-3.9388,-3.9388,-3.9388,-3.902,-3.8332,-3.7734,-3.712,-3.6462,-3.5833,-3.5519,-3.5489,-3.5489,-3.5489,-3.5489,-3.5489,-3.5489,-3.5489,-3.5489,-3.5489,-3.5489,-3.5489,-3.5489,-3.5489,-3.5489,-3.5489,-3.5279,-3.5148,-3.5213,-3.4986,-3.4109,-3.329,-3.27,-3.2092,-3.1439,-3.0771,-3.0419,-3.0279,-3.0024,-3.0024,-2.9895,-2.9895,-2.9779,-2.9779,-2.9779,-2.9779,-2.9779,-2.9779,-2.9779,-2.9779,-2.9779,-2.9779,-2.9779,-2.9779,-2.9779,-2.9779,-2.9779,-2.9779,-2.9779,-2.9779,-2.9779,-2.9779,-2.9779,-2.9779,-2.9779,-2.9779,-2.9779,-2.9779,-2.9779,-2.9779,-2.9779,-2.9779,-2.9779,-2.9779,-4.8122,-4.8122,-4.8122,-4.8139,-4.8054,-4.7665,-4.775,-4.8088,-4.8122,-4.7851,-4.7496,-4.7479,-4.7073,-4.643,-4.6346,-4.6177,-4.5855,-4.5754,-4.5568,-4.5118,-4.4073,-4.302,-4.1883,-4.0842,-3.9985,-3.9517,-3.9388,-3.9388,-3.9388,-3.9388,-3.9388,-3.9388,-3.9388,-3.9388,-3.9388,-3.9388,-3.9388,-3.9388,-3.9388,-3.9388,-3.9388,-3.9388,-3.9388,-3.9388,-3.9388,-3.8886,-3.8123,-3.7554,-3.7,-3.6267,-3.5609,-3.5504,-3.5489,-3.5489,-3.5489,-3.5489,-3.5489,-3.5489,-3.5489,-3.5489,-3.5489,-3.5489,-3.5489,-3.5489,-3.5489,-3.5489,-3.5489,-3.5424,-3.5392,-3.5326,-3.492,-3.4509,-3.3891,-3.3276,-3.2678,-3.2033,-3.1549,-3.1132,-3.0809,-3.0482,-3.0317,-3.0139,-3.0037,-2.9895,-2.9779,-2.9779,-2.9779,-2.9779,-2.9779,-2.9779,-2.9779,-2.9779,-2.9779,-2.9779,-2.9779,-2.9818,-2.9856,-2.9818,-2.9779,-2.9779,-2.9779,-2.9779,-2.9779,-2.9779,-2.9779,-2.9779,-2.9779,-2.9779,-2.9779,-2.9779,-2.9779,-2.9779,-2.9779,-2.9779,-2.9779,-4.6819,-4.6853,-4.6786,-4.6921,-4.6786,-4.6769,-4.6735,-4.6684,-4.6667,-4.6667,-4.6684,-4.6701,-4.6312,-4.572,-4.5618,-4.5297,-4.4975,-4.4766,-4.48,-4.4502,-4.307,-4.2142,-4.164,-4.0462,-3.9864,-3.9553,-3.9388,-3.9388,-3.9388,-3.9388,-3.9388,-3.9388,-3.9388,-3.9388,-3.9388,-3.9388,-3.9388,-3.9388,-3.9388,-3.9388,-3.9388,-3.9388,-3.9388,-3.9358,-3.9149,-3.8751,-3.7793,-3.718,-3.6791,-3.5968,-3.5519,-3.5489,-3.5489,-3.5489,-3.5489,-3.5489,-3.5489,-3.5489,-3.5489,-3.5489,-3.5489,-3.5489,-3.5489,-3.5489,-3.5489,-3.5489,-3.5489,-3.5489,-3.5472,-3.5166,-3.4773,-3.4509,-3.4061,-3.3449,-3.2855,-3.2357,-3.1924,-3.1609,-3.1513,-3.1156,-3.0758,-3.0558,-2.9921,-2.9779,-2.9779,-2.9779,-2.9779,-2.9779,-2.9921,-2.9921,-2.9998,-2.9998,-3.0165,-3.0165,-2.9895,-2.9921,-2.9921,-2.9934,-2.9818,-2.9779,-2.9779,-2.9779,-2.9779,-2.9779,-2.9779,-2.9779,-2.9779,-2.9779,-2.9779,-2.9779,-2.9779,-2.9779,-2.9779,-2.9779,-2.9779,-4.6786,-4.6786,-4.6786,-4.6786,-4.6701,-4.6194,-4.5974,-4.5906,-4.5348,-4.5466,-4.5889,-4.5906,-4.5585,-4.5038,-4.4959,-4.4739,-4.4581,-4.4224,-4.4121,-4.3902,-4.2862,-4.2109,-4.182,-4.0842,-4.0025,-3.9538,-3.9388,-3.9388,-3.9388,-3.9388,-3.9388,-3.9388,-3.9388,-3.9388,-3.9388,-3.9388,-3.9388,-3.9388,-3.9388,-3.9388,-3.9388,-3.9388,-3.9388,-3.9224,-3.899,-3.8392,-3.7554,-3.6941,-3.6357,-3.5654,-3.5534,-3.5489,-3.5489,-3.5489,-3.5489,-3.5489,-3.5489,-3.5489,-3.5489,-3.5489,-3.5489,-3.5489,-3.5489,-3.5489,-3.5489,-3.5489,-3.5489,-3.5489,-3.5344,-3.5019,-3.4758,-3.4543,-3.4279,-3.3685,-3.3185,-3.2784,-3.2379,-3.2285,-3.2249,-3.1779,-3.1352,-3.0758,-3.0101,-2.9779,-2.9779,-2.9779,-2.9779,-2.9895,-3.0254,-3.0394,-3.0495,-3.0558,-3.0796,-3.0758,-3.0317,-3.0139,-3.0203,-2.9998,-2.9818,-2.9779,-2.9779,-2.9779,-2.9779,-2.9779,-2.9779,-2.9779,-2.9779,-2.9779,-2.9779,-2.9779,-2.9779,-2.9779,-2.9779,-2.9779,-2.9779,-4.5805,-4.5805,-4.5833,-4.5833,-4.5766,-4.5382,-4.5213,-4.5128,-4.4784,-4.4835,-4.5162,-4.5179,-4.4959,-4.4615,-4.4598,-4.4598,-4.4514,-4.4167,-4.427,-4.4035,-4.3229,-4.2473,-4.1836,-4.108,-4.022,-3.961,-3.946,-3.9388,-3.9388,-3.9388,-3.9388,-3.9388,-3.9388,-3.9388,-3.9388,-3.9388,-3.9388,-3.9388,-3.9388,-3.9388,-3.9388,-3.9388,-3.9388,-3.9194,-3.8975,-3.8317,-3.7614,-3.6985,-3.6402,-3.5804,-3.5504,-3.5489,-3.5489,-3.5489,-3.5489,-3.5489,-3.5489,-3.5489,-3.5489,-3.5489,-3.5489,-3.5489,-3.5489,-3.5489,-3.5489,-3.5489,-3.5489,-3.5489,-3.5489,-3.5198,-3.5166,-3.4986,-3.4953,-3.4558,-3.4409,-3.424,-3.3837,-3.3581,-3.3031,-3.2236,-3.1742,-3.123,-3.0533,-2.9779,-2.9818,-2.996,-2.9921,-3.0419,-3.0696,-3.1132,-3.1169,-3.123,-3.1536,-3.0932,-3.0113,-3.0241,-3.0582,-3.0266,-2.9779,-2.9779,-2.9779,-2.9779,-2.9779,-2.9779,-2.9779,-2.9779,-2.9779,-2.9779,-2.9779,-2.9779,-2.9779,-2.9779,-2.9779,-2.9779,-2.9779,-4.4649,-4.4598,-4.4632,-4.4615,-4.4598,-4.4615,-4.4632,-4.4615,-4.4598,-4.4598,-4.4666,-4.4666,-4.4598,-4.4598,-4.4598,-4.4598,-4.444,-4.4093,-4.4281,-4.4224,-4.3229,-4.2442,-4.1707,-4.0946,-4.0095,-3.961,-3.9424,-3.9388,-3.9388,-3.9388,-3.9388,-3.9388,-3.9388,-3.9388,-3.9388,-3.9388,-3.9388,-3.9388,-3.9388,-3.9388,-3.9388,-3.9388,-3.9388,-3.9388,-3.923,-3.8616,-3.7808,-3.712,-3.6582,-3.6028,-3.5489,-3.5489,-3.5489,-3.5489,-3.5489,-3.5489,-3.5489,-3.5489,-3.5489,-3.5489,-3.5489,-3.5489,-3.5489,-3.5489,-3.5489,-3.5489,-3.5489,-3.5489,-3.5489,-3.5457,-3.5439,-3.5407,-3.5359,-3.5344,-3.5326,-3.5326,-3.4953,-3.4591,-3.3754,-3.2855,-3.2285,-3.1733,-3.0908,-3.0139,-3.0203,-3.0317,-3.0595,-3.1044,-3.1536,-3.2046,-3.2335,-3.2321,-3.2451,-3.1586,-3.0355,-3.057,-3.1156,-3.0241,-2.9779,-2.9779,-2.9779,-2.9779,-2.9779,-2.9779,-2.9779,-2.9779,-2.9779,-2.9779,-2.9779,-2.9779,-2.9779,-2.9779,-2.9779,-2.9779,-2.9779,-4.4598,-4.4598,-4.4598,-4.4598,-4.4598,-4.4598,-4.4598,-4.4598,-4.4598,-4.4598,-4.4598,-4.4598,-4.4598,-4.4598,-4.4598,-4.457,-4.4514,-4.4064,-4.4167,-4.4298,-4.2614,-4.1997,-4.1412,-4.05,-3.9737,-3.9445,-3.9388,-3.9388,-3.9388,-3.9388,-3.9388,-3.9388,-3.9388,-3.9388,-3.9388,-3.9388,-3.9388,-3.9388,-3.9388,-3.9388,-3.9388,-3.9388,-3.9388,-3.923,-3.8856,-3.8182,-3.7509,-3.6911,-3.6267,-3.5759,-3.5489,-3.5489,-3.5489,-3.5489,-3.5489,-3.5489,-3.5489,-3.5489,-3.5489,-3.5489,-3.5489,-3.5489,-3.5489,-3.5489,-3.5489,-3.5489,-3.5489,-3.5489,-3.5489,-3.5489,-3.5472,-3.5457,-3.5424,-3.5424,-3.5424,-3.5424,-3.5246,-3.4986,-3.4476,-3.3754,-3.3136,-3.2321,-3.1352,-3.118,-3.1683,-3.1792,-3.1901,-3.2307,-3.2415,-3.2925,-3.3463,-3.3463,-3.3449,-3.2415,-3.1328,-3.1415,-3.1609,-3.0558,-2.9921,-3.0216,-3.0216,-2.9818,-2.9818,-3.0062,-2.9895,-2.9779,-2.9779,-2.9779,-2.9779,-2.9779,-2.9779,-2.9779,-2.9779,-2.9779,-2.9779]},{"header":{"parameterUnit":"m.s-1","parameterCategory":1,"la1":31.0,"la2":29.5877,"lo1":-88.7671,"lo2":-86.6584,"dy":0.0162,"dx":0.0185,"nx":115,"ny":88,"refTime":"2023-06-20T18:00:00:Z","depth":0,"parameterNumber":3,"parameterNumberName":"V-component_of_WINDS"},"data":[0.0,0.0,0.0,0.0,0.0,0.0,0.0,0.0,0.0,0.0,0.0,0.0,0.0,0.0,0.0,0.0,0.0,0.0,0.0,0.0,0.0,0.0,0.0,0.0,0.0,0.0,0.0,0.0,0.0,0.0,0.0,0.0,0.0,0.0,0.0,0.0,0.0,0.0,0.0,0.0,0.0,0.0,0.0,0.0,0.0,0.0,0.0,0.0,0.0,0.0,0.0,0.0,0.0,0.0,0.0,0.0,0.0,0.0,0.0,0.0,0.0,0.0,0.0,0.0,0.0,0.0,0.0,0.0,0.0,0.0,0.0,0.0,0.0,0.0,0.0,0.0,0.0,0.0,0.0,0.0,0.0,0.0,0.0,0.0,0.0,0.0,0.0,0.0,0.0,0.0,0.0,0.0,0.0,0.0,0.0,0.0,0.0,0.0,0.0,0.0,0.0,0.0,0.0,0.0,0.0,0.0,0.0,0.0,0.0,0.0,0.0,0.0,0.0,0.0,0.0,0.0,0.0,0.0,0.0,0.0,0.0,0.0,0.0,0.0,0.0,0.0,0.0,0.0,0.0,0.0,0.0,0.0,0.0,0.0,0.0,0.0,0.0,0.0,0.0,0.0,0.0,0.0,0.0,0.0,0.0,0.0,0.0,0.0,0.0,0.0,0.0,0.0,0.0,0.0,0.0,0.0,0.0,0.0,0.0,0.0,0.0,0.0,0.0,0.0,0.0,0.0,0.0,0.0,0.0,0.0,0.0,0.0,0.0,0.0,0.0,0.0,0.0,0.0,0.0,0.0,0.0,0.0,0.0,0.0,0.0,0.0,0.0,0.0,0.0,0.0,0.0,0.0,0.0,0.0,0.0,0.0,0.0,0.0,0.0,0.0,0.0,0.0,0.0,0.0,0.0,0.0,0.0,0.0,0.0,0.0,0.0,0.0,0.0,0.0,0.0,0.0,0.0,0.0,0.0,0.0,0.0,0.0,0.0,0.0,0.0,0.0,0.0,0.0,0.0,0.0,0.0,0.0,0.0,0.0,0.0,0.0,0.0,0.0,0.0,0.0,0.0,0.0,0.0,0.0,0.0,0.0,0.0,0.0,0.0,0.0,0.0,0.0,0.0,0.0,0.0,0.0,0.0,0.0,0.0,0.0,0.0,0.0,0.0,0.0,0.0,0.0,0.0,0.0,0.0,0.0,0.0,0.0,0.0,0.0,0.0,0.0,0.0,0.0,0.0,0.0,0.0,0.0,0.0,0.0,0.0,0.0,0.0,0.0,0.0,0.0,0.0,0.0,0.0,0.0,0.0,0.0,0.0,0.0,0.0,0.0,0.0,0.0,0.0,0.0,0.0,0.0,0.0,0.0,0.0,0.0,0.0,0.0,0.0,0.0,0.0,0.0,0.0,0.0,0.0,0.0,0.0,0.0,0.0,0.0,0.0,0.0,0.0,0.0,0.0,0.0,0.0,0.0,0.0,0.0,0.0,0.0,0.0,0.0,0.0,0.0,0.0,0.0,0.0,0.0,0.0,0.0,0.0,0.0,0.0,0.0,0.0,0.0,0.0,0.0,0.0,0.0,0.0,0.0,0.0,0.0,0.0,0.0,0.0,0.0,0.0,0.0,0.0,0.0,0.0,0.0,0.0,0.0,0.0,0.0,0.0,0.0,0.0,0.0,0.0,0.0,0.0,0.0,0.0,0.0,0.0,0.0,0.0,0.0,0.0,0.0,0.0,0.0,0.0,0.0,0.0,0.0,0.0,0.0,0.0,0.0,0.0,0.0,0.0,0.0,0.0,0.0,0.0,0.0,0.0,0.0,0.0,0.0,0.0,0.0,0.0,0.0,0.0,0.0,0.0,0.0,0.0,0.0,0.0,0.0,0.0,0.0,0.0,0.0,0.0,0.0,0.0,0.0,0.0,0.0,0.0,0.0,0.0,0.0,0.0,0.0,0.0,0.0,0.0,0.0,0.0,0.0,0.0,0.0,0.0,0.0,0.0,0.0,0.0,0.0,0.0,0.0,0.0,0.0,0.0,0.0,0.0,0.0,0.0,0.0,0.0,0.0,0.0,0.0,0.0,0.0,0.0,0.0,0.0,0.0,0.0,0.0,0.0,0.0,0.0,0.0,0.0,0.0,0.0,0.0,0.0,0.0,0.0,0.0,0.0,0.0,0.0,0.0,0.0,0.0,0.0,0.0,0.0,0.0,0.0,0.0,0.0,0.0,0.0,0.0,0.0,0.0,0.0,0.0,0.0,0.0,0.0,0.0,0.0,0.0,0.0,0.0,0.0,0.0,0.0,0.0,0.0,0.0,0.0,0.0,0.0,0.0,0.0,0.0,0.0,0.0,0.0,0.0,0.0,0.0,0.0,0.0,0.0,0.0,0.0,0.0,0.0,0.0,0.0,0.0,0.0,0.0,0.0,0.0,0.0,0.0,0.0,0.0,0.0,0.0,0.0,0.0,0.0,0.0,0.0,0.0,0.0,0.0,0.0,0.0,0.0,0.0,0.0,0.0,0.0,0.0,0.0,0.0,0.0,0.0,0.0,0.0,0.0,0.0,0.0,0.0,0.0,0.0,0.0,0.0,0.0,0.0,0.0,0.0,0.0,0.0,0.0,0.0,0.0,0.0,0.0,0.0,0.0,0.0,0.0,0.0,0.0,0.0,0.0,0.0,0.0,0.0,0.0,0.0,0.0,0.0,0.0,0.0,0.0,0.0,0.0,0.0,0.0,0.0,0.0,0.0,0.0,0.0,0.0,0.0,0.0,0.0,0.0,0.0,0.0,0.0,0.0,0.0,0.0,0.0,0.0,0.0,0.0,0.0,0.0,0.0,0.0,0.0,0.0,0.0,0.0,0.0,0.0,0.0,0.0,0.0,0.0,0.0,0.0,0.0,0.0,0.0,0.0,0.0,0.0,0.0,0.0,0.0,0.0,0.0,0.0,0.0,0.0,0.0,0.0,0.0,0.0,0.0,0.0,0.0,0.0,0.0,0.0,0.0,0.0,0.0,0.0,0.0,0.0,0.0,0.0,0.0,0.0,0.0,0.0,0.0,0.0,0.0,0.0,0.0,0.0,0.0,0.0,0.0,0.0,0.0,0.0,0.0,0.0,0.0,0.0,0.0,0.0,0.0,0.0,0.0,0.0,0.0,0.0,0.0,0.0,0.0,0.0,0.0,0.0,0.0,0.0,0.0,0.0,0.0,0.0,0.0,0.0,0.0,0.0,0.0,0.0,0.0,0.0,0.0,0.0,0.0,0.0,0.0,0.0,0.0,0.0,0.0,0.0,0.0,0.0,0.0,0.0,0.0,0.0,0.0,0.0,0.0,0.0,0.0,0.0,0.0,0.0,0.0,0.0,0.0,0.0,0.0,0.0,0.0,0.0,0.0,0.0,0.0,0.0,0.0,0.0,0.0,0.0,0.0,0.0,0.0,0.0,0.0,0.0,0.0,0.0,0.0,0.0,0.0,0.0,0.0,0.0,0.0,0.0,0.0,0.0,0.0,0.0,0.0,0.0,0.0,0.0,0.0,0.0,0.0,0.0,0.0,0.0,0.0,0.0,0.0,0.0,0.0,0.0,0.0,0.0,0.0,0.0,0.0,0.0,0.0,0.0,0.0,0.0,0.0,0.0,0.0,0.0,0.0,0.0,0.0,0.0,0.0,0.0,0.0,0.0,0.0,0.0,0.0,0.0,0.0,0.0,0.0,0.0,0.0,0.0,0.0,0.0,0.0,0.0,0.0,0.0,0.0,0.0,0.0,0.0,0.0,0.0,0.0,0.0,0.0,0.0,0.0,0.0,0.0,0.0,0.0,0.0,0.0,0.0,0.0,0.0,0.0,0.0,0.0,0.0,0.0,0.0,0.0,0.0,0.0,0.0,0.0,0.0,0.0,0.0,0.0,0.0,0.0,0.0,0.0,0.0,0.0,0.0,0.0,0.0,0.0,0.0,0.0,0.0,0.0,0.0,0.0,0.0,0.0,0.0,0.0,0.0,0.0,0.0,0.0,0.0,0.0,0.0,0.0,0.0,0.0,0.0,0.0,0.0,0.0,0.0,0.0,0.0,0.0,0.0,0.0,0.0,0.0,0.0,0.0,0.0,0.0,0.0,0.0,0.0,0.0,0.0,0.0,0.0,0.0,0.0,0.0,0.0,0.0,0.0,0.0,0.0,0.0,0.0,0.0,0.0,0.0,0.0,0.0,0.0,0.0,0.0,0.0,0.0,0.0,0.0,0.0,0.0,0.0,0.0,0.0,0.0,0.0,0.0,0.0,-0.7989,0.0,0.0,0.0,0.0,0.0,0.0,0.0,0.0,0.0,0.0,0.0,0.0,0.0,0.0,0.0,0.0,0.0,0.0,0.0,0.0,0.0,0.0,0.0,0.0,0.0,0.0,0.0,0.0,0.0,0.0,0.0,0.0,0.0,0.0,0.0,0.0,0.0,0.0,0.0,0.0,0.0,0.0,0.0,0.0,0.0,0.0,0.0,0.0,0.0,0.0,0.0,0.0,0.0,0.0,0.0,0.0,0.0,0.0,0.0,0.0,0.0,0.0,0.0,0.0,0.0,0.0,0.0,0.0,0.0,0.0,0.0,0.0,0.0,0.0,0.0,0.0,0.0,0.0,0.0,0.0,0.0,0.0,0.0,0.0,0.0,0.0,0.0,0.0,0.0,0.0,0.0,0.0,0.0,0.0,0.0,0.0,0.0,0.0,0.0,0.0,0.0,0.0,0.0,0.0,0.0,0.0,0.0,0.0,0.0,0.0,-0.9422,-0.9416,-0.8967,-0.8935,-0.9384,0.0,0.0,0.0,0.0,0.0,0.0,0.0,0.0,0.0,0.0,0.0,0.0,0.0,0.0,0.0,0.0,0.0,0.0,0.0,0.0,0.0,0.0,0.0,0.0,0.0,0.0,0.0,0.0,0.0,0.0,0.0,0.0,0.0,0.0,0.0,0.0,0.0,0.0,0.0,0.0,0.0,0.0,0.0,0.0,0.0,0.0,0.0,0.0,0.0,0.0,0.0,0.0,0.0,0.0,0.0,0.0,0.0,0.0,0.0,0.0,0.0,0.0,0.0,0.0,0.0,0.0,0.0,0.0,0.0,0.0,0.0,0.0,0.0,0.0,0.0,0.0,0.0,0.0,0.0,0.0,0.0,0.0,0.0,0.0,0.0,0.0,0.0,0.0,0.0,0.0,0.0,0.0,0.0,0.0,0.0,0.0,0.0,0.0,0.0,0.0,0.0,0.0,0.0,0.0,0.0,0.0,0.0,0.0,0.0,0.0,0.0,0.0,-0.9945,-0.9913,-1.0555,0.0,0.0,0.0,0.0,0.0,0.0,0.0,0.0,0.0,0.0,0.0,0.0,0.0,0.0,0.0,0.0,0.0,0.0,0.0,0.0,0.0,0.0,0.0,0.0,0.0,0.0,0.0,0.0,0.0,0.0,0.0,0.0,0.0,0.0,0.0,0.0,0.0,0.0,0.0,0.0,0.0,0.0,0.0,0.0,0.0,0.0,0.0,0.0,0.0,0.0,0.0,0.0,0.0,0.0,0.0,0.0,0.0,0.0,0.0,0.0,0.0,0.0,0.0,0.0,0.0,0.0,0.0,0.0,0.0,0.0,0.0,0.0,0.0,0.0,0.0,0.0,0.0,0.0,0.0,0.0,0.0,0.0,0.0,0.0,0.0,0.0,0.0,0.0,0.0,0.0,0.0,0.0,0.0,0.0,0.0,0.0,0.0,0.0,0.0,0.0,0.0,0.0,0.0,0.0,0.0,0.0,0.0,0.0,0.0,0.0,-1.0586,-1.0586,-1.053,0.0,-1.0586,0.0,0.0,0.0,0.0,0.0,0.0,0.0,0.0,0.0,0.0,0.0,0.0,0.0,0.0,0.0,0.0,0.0,0.0,0.0,0.0,0.0,0.0,0.0,0.0,0.0,0.0,0.0,0.0,0.0,0.0,0.0,0.0,0.0,0.0,0.0,0.0,0.0,0.0,0.0,0.0,0.0,0.0,0.0,0.0,0.0,0.0,0.0,0.0,0.0,0.0,0.0,0.0,0.0,0.0,0.0,0.0,0.0,0.0,0.0,0.0,0.0,0.0,0.0,0.0,0.0,0.0,0.0,0.0,0.0,0.0,0.0,0.0,0.0,0.0,0.0,0.0,0.0,0.0,0.0,0.0,0.0,0.0,0.0,0.0,0.0,0.0,0.0,0.0,0.0,0.0,0.0,0.0,0.0,0.0,0.0,0.0,0.0,0.0,0.0,0.0,0.0,0.0,0.0,0.0,0.0,0.0,0.0,0.0,0.0,0.0,-1.0586,-1.0586,-1.0586,-1.0586,0.0,0.0,0.0,0.0,0.0,0.0,0.0,0.0,0.0,0.0,0.0,0.0,0.0,0.0,0.0,0.0,0.0,0.0,0.0,0.0,0.0,0.0,0.0,0.0,0.0,0.0,0.0,0.0,0.0,0.0,0.0,0.0,0.0,0.0,0.0,0.0,0.0,0.0,0.0,0.0,0.0,0.0,0.0,0.0,0.0,0.0,0.0,0.0,0.0,0.0,0.0,0.0,0.0,0.0,0.0,0.0,0.0,0.0,0.0,0.0,0.0,0.0,0.0,0.0,0.0,0.0,0.0,0.0,0.0,0.0,0.0,0.0,0.0,0.0,0.0,0.0,0.0,0.0,0.0,0.0,0.0,0.0,0.0,0.0,0.0,0.0,0.0,0.0,0.0,0.0,0.0,0.0,0.0,0.0,0.0,0.0,0.0,0.0,0.0,0.0,0.0,0.0,0.0,0.0,0.0,0.0,0.0,0.0,0.0,0.0,-1.0926,-1.1052,-1.124,-1.1264,-1.1272,-1.1264,0.0,0.0,0.0,0.0,0.0,0.0,0.0,0.0,0.0,0.0,0.0,0.0,0.0,0.0,0.0,0.0,0.0,0.0,0.0,0.0,0.0,0.0,0.0,0.0,0.0,0.0,0.0,0.0,0.0,0.0,0.0,0.0,0.0,0.0,0.0,0.0,0.0,0.0,0.0,0.0,0.0,0.0,0.0,0.0,0.0,0.0,0.0,0.0,0.0,0.0,0.0,0.0,0.0,0.0,0.0,0.0,0.0,0.0,0.0,0.0,0.0,0.0,0.0,0.0,0.0,0.0,0.0,0.0,0.0,0.0,0.0,0.0,0.0,0.0,0.0,0.0,0.0,0.0,0.0,0.0,0.0,0.0,0.0,0.0,0.0,0.0,0.0,0.0,0.0,0.0,0.0,0.0,0.0,0.0,0.0,0.0,0.0,0.0,0.0,0.0,0.0,0.0,0.0,0.0,0.0,0.0,0.0,0.0,-1.171,-1.1741,-1.2112,-1.2826,-1.2887,-1.2887,0.0,0.0,0.0,0.0,0.0,0.0,0.0,0.0,0.0,0.0,0.0,0.0,0.0,0.0,0.0,0.0,0.0,0.0,0.0,0.0,0.0,0.0,0.0,0.0,0.0,0.0,0.0,0.0,0.0,0.0,0.0,0.0,0.0,0.0,0.0,0.0,0.0,0.0,0.0,0.0,0.0,0.0,0.0,0.0,0.0,0.0,0.0,0.0,0.0,0.0,0.0,0.0,0.0,0.0,0.0,0.0,0.0,0.0,0.0,0.0,0.0,0.0,0.0,0.0,0.0,0.0,0.0,0.0,0.0,0.0,0.0,0.0,0.0,0.0,0.0,0.0,0.0,0.0,0.0,0.0,0.0,0.0,0.0,0.0,0.0,0.0,0.0,0.0,0.0,0.0,0.0,0.0,0.0,0.0,0.0,0.0,0.0,0.0,0.0,0.0,0.0,0.0,0.0,0.0,0.0,0.0,0.0,0.0,0.0,-1.2543,-1.2573,-1.2696,-1.2978,-1.3009,-1.3009,0.0,0.0,0.0,0.0,0.0,0.0,0.0,0.0,0.0,0.0,0.0,0.0,0.0,0.0,0.0,0.0,0.0,0.0,0.0,0.0,0.0,0.0,0.0,0.0,0.0,0.0,0.0,0.0,0.0,0.0,0.0,0.0,0.0,0.0,0.0,0.0,0.0,0.0,0.0,0.0,0.0,0.0,0.0,0.0,0.0,0.0,0.0,0.0,0.0,0.0,0.0,0.0,0.0,0.0,0.0,0.0,0.0,0.0,0.0,0.0,0.0,0.0,0.0,0.0,0.0,0.0,0.0,0.0,0.0,0.0,0.0,0.0,0.0,0.0,0.0,0.0,0.0,0.0,0.0,0.0,0.0,0.0,0.0,0.0,0.0,0.0,0.0,0.0,0.0,0.0,0.0,0.0,0.0,0.0,0.0,0.0,0.0,0.0,0.0,0.0,0.0,0.0,0.0,0.0,0.0,0.0,0.0,0.0,0.0,-1.3373,0.0,-1.3786,-1.3786,-1.3786,-1.3795,0.0,0.0,0.0,0.0,0.0,0.0,0.0,0.0,0.0,0.0,0.0,0.0,0.0,0.0,0.0,0.0,0.0,0.0,0.0,0.0,0.0,0.0,0.0,0.0,0.0,0.0,0.0,0.0,0.0,0.0,0.0,0.0,0.0,0.0,0.0,0.0,0.0,0.0,0.0,0.0,0.0,0.0,0.0,0.0,0.0,0.0,0.0,0.0,0.0,0.0,0.0,0.0,0.0,0.0,0.0,0.0,0.0,0.0,0.0,0.0,0.0,0.0,0.0,0.0,0.0,0.0,0.0,0.0,0.0,0.0,0.0,0.0,0.0,0.0,0.0,0.0,0.0,0.0,0.0,0.0,0.0,0.0,0.0,0.0,0.0,0.0,0.0,0.0,0.0,0.0,0.0,0.0,0.0,0.0,0.0,0.0,0.0,0.0,0.0,0.0,0.0,0.0,0.0,0.0,0.0,0.0,0.0,0.0,-1.3433,-1.4213,-1.4962,-1.5294,-1.5381,-1.5323,-1.5352,0.0,0.0,0.0,0.0,0.0,0.0,0.0,0.0,0.0,0.0,0.0,0.0,0.0,0.0,0.0,0.0,0.0,0.0,0.0,0.0,0.0,0.0,0.0,0.0,0.0,0.0,0.0,0.0,0.0,0.0,0.0,0.0,0.0,0.0,0.0,0.0,0.0,0.0,0.0,0.0,0.0,0.0,0.0,0.0,0.0,0.0,0.0,0.0,0.0,0.0,0.0,0.0,0.0,0.0,0.0,0.0,0.0,0.0,0.0,0.0,0.0,0.0,0.0,0.0,0.0,0.0,0.0,0.0,0.0,0.0,0.0,0.0,0.0,0.0,0.0,0.0,0.0,0.0,0.0,0.0,0.0,0.0,0.0,0.0,0.0,0.0,0.0,0.0,0.0,0.0,0.0,0.0,0.0,0.0,0.0,0.0,0.0,0.0,0.0,0.0,0.0,0.0,0.0,0.0,0.0,0.0,0.0,0.0,0.0,-1.5021,-1.5255,-1.542,-1.542,-1.542,-1.542,0.0,0.0,0.0,0.0,0.0,0.0,0.0,0.0,0.0,0.0,0.0,0.0,0.0,0.0,0.0,0.0,0.0,0.0,0.0,0.0,0.0,0.0,0.0,0.0,0.0,0.0,0.0,0.0,0.0,0.0,0.0,0.0,0.0,0.0,0.0,0.0,0.0,0.0,0.0,0.0,0.0,0.0,0.0,0.0,0.0,0.0,0.0,0.0,0.0,0.0,0.0,0.0,0.0,0.0,0.0,0.0,0.0,0.0,0.0,0.0,0.0,0.0,0.0,0.0,0.0,0.0,0.0,0.0,0.0,0.0,0.0,0.0,0.0,0.0,0.0,0.0,0.0,0.0,0.0,0.0,0.0,0.0,0.0,0.0,0.0,0.0,0.0,0.0,0.0,0.0,0.0,0.0,0.0,0.0,0.0,0.0,0.0,0.0,0.0,0.0,0.0,0.0,0.0,0.0,0.0,0.0,0.0,0.0,0.0,-1.5859,-1.5547,-1.542,-1.542,-1.5566,-1.5576,-1.542,0.0,0.0,0.0,0.0,0.0,0.0,0.0,0.0,0.0,0.0,0.0,0.0,0.0,0.0,0.0,0.0,0.0,0.0,0.0,0.0,0.0,0.0,0.0,0.0,0.0,0.0,0.0,0.0,0.0,0.0,0.0,0.0,0.0,0.0,0.0,0.0,0.0,0.0,0.0,0.0,0.0,0.0,0.0,0.0,0.0,0.0,0.0,0.0,0.0,0.0,0.0,0.0,0.0,0.0,0.0,0.0,0.0,0.0,0.0,0.0,0.0,0.0,0.0,0.0,0.0,0.0,0.0,0.0,0.0,0.0,0.0,0.0,0.0,0.0,0.0,0.0,0.0,0.0,0.0,0.0,0.0,0.0,0.0,0.0,0.0,0.0,0.0,0.0,0.0,0.0,0.0,0.0,0.0,0.0,0.0,0.0,0.0,0.0,0.0,0.0,0.0,0.0,0.0,0.0,0.0,0.0,0.0,0.0,-1.6687,-1.5918,-1.5469,-1.5498,-1.5919,-1.5938,0.0,0.0,0.0,0.0,0.0,0.0,0.0,0.0,0.0,0.0,0.0,0.0,0.0,0.0,0.0,0.0,0.0,0.0,0.0,0.0,0.0,0.0,0.0,0.0,0.0,0.0,0.0,0.0,0.0,0.0,0.0,0.0,0.0,0.0,0.0,0.0,0.0,0.0,0.0,0.0,0.0,0.0,0.0,0.0,0.0,0.0,0.0,0.0,0.0,0.0,0.0,0.0,0.0,0.0,0.0,0.0,0.0,0.0,0.0,0.0,0.0,0.0,0.0,0.0,0.0,0.0,0.0,0.0,0.0,0.0,0.0,0.0,0.0,0.0,0.0,0.0,0.0,0.0,0.0,0.0,0.0,0.0,0.0,0.0,0.0,0.0,0.0,0.0,0.0,0.0,0.0,0.0,0.0,0.0,0.0,0.0,0.0,0.0,0.0,0.0,0.0,0.0,0.0,0.0,0.0,0.0,0.0,0.0,0.0,-1.6687,-1.6473,-1.6356,-1.6356,-1.6504,-1.6473,0.0,0.0,0.0,0.0,0.0,0.0,0.0,0.0,0.0,0.0,0.0,0.0,0.0,0.0,0.0,0.0,0.0,0.0,0.0,0.0,0.0,0.0,0.0,0.0,0.0,0.0,0.0,0.0,0.0,0.0,0.0,0.0,0.0,0.0,0.0,0.0,0.0,0.0,0.0,0.0,0.0,0.0,0.0,0.0,0.0,0.0,0.0,0.0,0.0,0.0,0.0,0.0,0.0,0.0,0.0,0.0,0.0,0.0,0.0,0.0,0.0,0.0,0.0,0.0,0.0,0.0,0.0,0.0,0.0,0.0,0.0,0.0,0.0,0.0,0.0,0.0,0.0,0.0,0.0,0.0,0.0,0.0,0.0,0.0,0.0,0.0,0.0,0.0,0.0,0.0,0.0,0.0,0.0,0.0,0.0,0.0,0.0,0.0,0.0,0.0,0.0,0.0,0.0,0.0,0.0,0.0,0.0,0.0,-1.7251,-1.7797,-1.7428,-1.7243,-1.7233,-1.71,-1.6892,0.0,0.0,0.0,0.0,0.0,0.0,0.0,0.0,0.0,0.0,0.0,0.0,0.0,0.0,0.0,0.0,0.0,0.0,0.0,0.0,0.0,0.0,0.0,0.0,0.0,0.0,0.0,0.0,0.0,0.0,0.0,0.0,0.0,0.0,0.0,0.0,0.0,0.0,0.0,0.0,0.0,0.0,0.0,0.0,0.0,0.0,0.0,0.0,0.0,0.0,0.0,0.0,0.0,0.0,0.0,0.0,0.0,0.0,0.0,0.0,0.0,0.0,0.0,0.0,0.0,0.0,0.0,0.0,0.0,0.0,0.0,0.0,0.0,0.0,0.0,0.0,0.0,0.0,0.0,0.0,0.0,0.0,0.0,0.0,0.0,0.0,0.0,0.0,0.0,0.0,0.0,0.0,0.0,0.0,0.0,0.0,0.0,0.0,0.0,0.0,0.0,0.0,0.0,0.0,0.0,0.0,0.0,0.0,-1.8038,-1.9255,-1.8563,-1.8144,-1.8134,-1.777,-1.7354,0.0,0.0,0.0,0.0,0.0,0.0,0.0,0.0,0.0,0.0,0.0,0.0,0.0,0.0,0.0,0.0,0.0,0.0,0.0,0.0,0.0,0.0,0.0,0.0,0.0,0.0,0.0,0.0,0.0,0.0,0.0,0.0,0.0,0.0,0.0,0.0,0.0,0.0,0.0,0.0,0.0,0.0,0.0,0.0,0.0,0.0,0.0,0.0,0.0,0.0,0.0,0.0,0.0,0.0,0.0,0.0,0.0,0.0,0.0,0.0,0.0,0.0,0.0,0.0,0.0,0.0,0.0,0.0,0.0,0.0,0.0,0.0,0.0,0.0,0.0,0.0,0.0,0.0,0.0,0.0,0.0,0.0,0.0,0.0,0.0,0.0,0.0,0.0,0.0,0.0,0.0,0.0,0.0,0.0,0.0,0.0,0.0,0.0,0.0,0.0,0.0,0.0,0.0,0.0,0.0,0.0,0.0,0.0,-1.8338,-1.9266,-1.911,-1.9011,-1.9011,-1.8961,-1.8548,0.0,0.0,0.0,0.0,0.0,0.0,0.0,0.0,0.0,0.0,0.0,0.0,0.0,0.0,0.0,0.0,0.0,0.0,0.0,0.0,0.0,0.0,0.0,0.0,0.0,0.0,0.0,0.0,0.0,0.0,0.0,0.0,0.0,0.0,0.0,0.0,0.0,0.0,0.0,0.0,0.0,0.0,0.0,0.0,0.0,0.0,0.0,0.0,-1.9798,0.0,0.0,0.0,0.0,0.0,0.0,0.0,0.0,0.0,0.0,0.0,0.0,0.0,0.0,0.0,0.0,0.0,0.0,0.0,0.0,0.0,0.0,0.0,0.0,0.0,0.0,0.0,0.0,0.0,0.0,0.0,0.0,0.0,0.0,0.0,0.0,0.0,0.0,0.0,0.0,0.0,0.0,0.0,0.0,0.0,0.0,0.0,0.0,0.0,0.0,0.0,0.0,0.0,0.0,0.0,0.0,0.0,0.0,0.0,-1.9243,-2.0462,-2.0107,-1.9922,-1.9922,-1.9911,-1.9486,0.0,0.0,0.0,0.0,0.0,0.0,0.0,0.0,0.0,0.0,0.0,0.0,0.0,0.0,0.0,0.0,0.0,0.0,0.0,0.0,0.0,0.0,0.0,0.0,0.0,0.0,0.0,0.0,0.0,0.0,0.0,0.0,0.0,0.0,0.0,0.0,0.0,0.0,0.0,0.0,0.0,0.0,0.0,0.0,0.0,0.0,0.0,0.0,0.0,0.0,0.0,0.0,0.0,0.0,0.0,0.0,0.0,0.0,0.0,0.0,0.0,0.0,0.0,0.0,0.0,0.0,0.0,0.0,0.0,0.0,0.0,0.0,0.0,0.0,0.0,0.0,0.0,0.0,0.0,0.0,0.0,0.0,0.0,0.0,0.0,0.0,0.0,0.0,0.0,0.0,0.0,0.0,0.0,0.0,0.0,0.0,0.0,0.0,0.0,0.0,0.0,0.0,0.0,0.0,0.0,0.0,0.0,-1.9955,-2.0268,-2.1772,-2.1175,-2.0782,-2.0814,-2.0942,-2.0526,-1.9529,0.0,0.0,0.0,0.0,0.0,0.0,0.0,0.0,0.0,0.0,0.0,0.0,0.0,0.0,0.0,0.0,0.0,0.0,0.0,0.0,0.0,0.0,0.0,0.0,0.0,0.0,0.0,0.0,0.0,0.0,0.0,0.0,0.0,0.0,0.0,0.0,0.0,0.0,-1.9798,-1.9798,0.0,0.0,0.0,0.0,0.0,0.0,0.0,0.0,-1.9798,0.0,0.0,0.0,0.0,0.0,0.0,0.0,0.0,0.0,0.0,0.0,0.0,0.0,0.0,0.0,0.0,0.0,0.0,0.0,0.0,0.0,0.0,0.0,0.0,0.0,0.0,0.0,0.0,0.0,0.0,0.0,0.0,0.0,0.0,0.0,0.0,0.0,0.0,0.0,0.0,0.0,0.0,0.0,0.0,0.0,0.0,0.0,0.0,0.0,0.0,0.0,0.0,0.0,0.0,0.0,0.0,-2.1647,-2.0814,-2.089,-2.1877,-2.1753,-2.1678,-2.169,-2.2341,-2.1959,-2.0462,0.0,0.0,0.0,0.0,0.0,0.0,0.0,0.0,0.0,0.0,0.0,0.0,0.0,0.0,0.0,0.0,0.0,0.0,0.0,0.0,0.0,0.0,0.0,0.0,0.0,0.0,0.0,0.0,0.0,0.0,0.0,0.0,0.0,0.0,0.0,0.0,0.0,0.0,0.0,-1.9798,-1.9798,0.0,0.0,0.0,0.0,0.0,0.0,0.0,0.0,-1.9798,0.0,0.0,0.0,0.0,0.0,0.0,0.0,0.0,0.0,0.0,0.0,0.0,0.0,0.0,0.0,0.0,0.0,0.0,0.0,0.0,0.0,0.0,0.0,0.0,0.0,0.0,0.0,0.0,0.0,0.0,0.0,0.0,0.0,0.0,0.0,0.0,0.0,0.0,0.0,0.0,0.0,0.0,0.0,0.0,0.0,0.0,0.0,0.0,0.0,0.0,0.0,0.0,0.0,0.0,0.0,-2.187,-2.2045,-2.2524,-2.3362,-2.3394,-2.3394,-2.3382,-2.335,-2.2662,0.0,0.0,0.0,0.0,0.0,0.0,0.0,0.0,0.0,0.0,0.0,0.0,0.0,0.0,0.0,0.0,0.0,0.0,0.0,0.0,0.0,0.0,0.0,0.0,0.0,0.0,0.0,0.0,0.0,0.0,0.0,0.0,0.0,0.0,0.0,0.0,0.0,0.0,0.0,0.0,-1.9798,-1.9798,-1.9798,0.0,0.0,0.0,0.0,0.0,0.0,-2.057,-2.0805,0.0,0.0,0.0,0.0,0.0,0.0,0.0,0.0,0.0,0.0,0.0,0.0,0.0,0.0,0.0,0.0,0.0,0.0,0.0,0.0,0.0,0.0,0.0,0.0,0.0,0.0,0.0,0.0,0.0,0.0,0.0,0.0,0.0,0.0,0.0,0.0,0.0,0.0,0.0,0.0,0.0,0.0,0.0,0.0,0.0,0.0,0.0,0.0,0.0,0.0,0.0,0.0,0.0,0.0,0.0,-2.2298,-2.3256,-2.4087,-2.4788,-2.48,-2.48,-2.4788,-2.4132,-2.3301,0.0,0.0,0.0,0.0,0.0,0.0,0.0,0.0,0.0,0.0,0.0,0.0,0.0,0.0,0.0,0.0,0.0,0.0,0.0,0.0,0.0,0.0,0.0,0.0,0.0,0.0,0.0,0.0,0.0,0.0,0.0,0.0,0.0,0.0,0.0,0.0,0.0,0.0,0.0,0.0,0.0,-1.9798,-1.9798,-1.9798,0.0,0.0,0.0,0.0,-2.0784,-2.121,0.0,0.0,0.0,0.0,0.0,0.0,0.0,0.0,0.0,0.0,0.0,0.0,0.0,0.0,0.0,0.0,0.0,0.0,0.0,0.0,0.0,0.0,0.0,0.0,0.0,0.0,0.0,0.0,0.0,0.0,0.0,0.0,0.0,0.0,0.0,0.0,0.0,0.0,0.0,0.0,0.0,0.0,0.0,0.0,0.0,0.0,0.0,0.0,0.0,0.0,0.0,0.0,0.0,0.0,0.0,0.0,-2.3301,-2.4198,-2.4678,-2.4788,-2.48,-2.48,-2.48,-2.4678,-2.423,0.0,0.0,0.0,0.0,0.0,0.0,0.0,0.0,0.0,0.0,0.0,0.0,0.0,0.0,0.0,0.0,0.0,0.0,0.0,0.0,0.0,0.0,0.0,0.0,0.0,0.0,0.0,0.0,0.0,0.0,0.0,0.0,0.0,0.0,0.0,0.0,0.0,0.0,0.0,0.0,0.0,-1.9798,-1.9798,-1.9798,-1.9991,0.0,0.0,-2.0118,-2.0696,-2.0856,0.0,0.0,0.0,0.0,0.0,0.0,0.0,0.0,0.0,0.0,0.0,0.0,0.0,0.0,0.0,0.0,0.0,0.0,0.0,0.0,0.0,0.0,0.0,0.0,0.0,0.0,0.0,0.0,0.0,0.0,0.0,0.0,0.0,0.0,0.0,0.0,0.0,0.0,0.0,0.0,0.0,0.0,0.0,0.0,0.0,0.0,0.0,0.0,0.0,0.0,0.0,0.0,0.0,0.0,0.0,-2.3651,-2.4349,-2.5287,-2.5749,-2.5749,-2.5783,-2.5749,-2.5737,-2.5749,-2.5321,0.0,0.0,0.0,0.0,0.0,0.0,0.0,0.0,0.0,0.0,0.0,0.0,0.0,0.0,0.0,0.0,0.0,0.0,0.0,0.0,0.0,0.0,0.0,0.0,0.0,0.0,0.0,0.0,0.0,0.0,0.0,0.0,0.0,0.0,0.0,0.0,0.0,0.0,0.0,0.0,0.0,0.0,-1.9798,-2.0131,0.0,0.0,0.0,-2.1428,-2.1318,0.0,0.0,0.0,0.0,0.0,0.0,0.0,0.0,0.0,0.0,0.0,0.0,0.0,0.0,0.0,0.0,0.0,0.0,0.0,0.0,0.0,0.0,0.0,0.0,0.0,0.0,0.0,0.0,0.0,0.0,0.0,0.0,0.0,0.0,0.0,0.0,0.0,0.0,0.0,0.0,0.0,0.0,0.0,0.0,0.0,0.0,0.0,0.0,0.0,0.0,0.0,0.0,0.0,0.0,0.0,0.0,0.0,-2.5004,-2.599,-2.6487,-2.6487,-2.6487,-2.6487,-2.6487,-2.6487,0.0,0.0,0.0,0.0,0.0,0.0,0.0,0.0,0.0,0.0,0.0,0.0,0.0,0.0,0.0,0.0,0.0,0.0,0.0,0.0,0.0,0.0,0.0,0.0,0.0,0.0,0.0,-1.9798,0.0,0.0,0.0,0.0,0.0,0.0,0.0,0.0,0.0,0.0,0.0,0.0,0.0,0.0,-1.9798,-1.9798,-2.022,-2.0472,0.0,0.0,-2.2161,-2.1983,-2.2756,-2.3319,0.0,0.0,0.0,0.0,0.0,0.0,0.0,0.0,0.0,0.0,0.0,0.0,0.0,0.0,0.0,0.0,0.0,0.0,0.0,0.0,0.0,0.0,0.0,0.0,0.0,0.0,0.0,0.0,0.0,0.0,0.0,0.0,0.0,0.0,0.0,0.0,0.0,0.0,0.0,0.0,0.0,0.0,0.0,0.0,0.0,0.0,0.0,0.0,0.0,0.0,0.0,0.0,0.0,0.0,0.0,-2.504,-2.599,-2.6487,-2.6487,-2.6487,-2.6487,-2.6487,-2.6487,-2.6452,0.0,0.0,0.0,0.0,0.0,0.0,0.0,0.0,0.0,0.0,0.0,0.0,0.0,0.0,0.0,0.0,0.0,0.0,0.0,0.0,0.0,0.0,0.0,0.0,0.0,0.0,0.0,0.0,0.0,0.0,0.0,0.0,0.0,0.0,0.0,0.0,0.0,0.0,0.0,0.0,0.0,-1.9798,-1.9798,-1.9862,-2.0283,0.0,0.0,-2.1321,-2.2452,-2.2694,-2.2529,-2.1946,0.0,0.0,0.0,0.0,0.0,0.0,0.0,0.0,0.0,0.0,0.0,0.0,0.0,0.0,0.0,0.0,0.0,0.0,0.0,0.0,0.0,0.0,0.0,0.0,0.0,0.0,0.0,0.0,0.0,0.0,0.0,0.0,0.0,0.0,0.0,0.0,0.0,0.0,0.0,0.0,0.0,0.0,0.0,0.0,0.0,0.0,0.0,0.0,0.0,0.0,0.0,0.0,0.0,-2.5908,-2.5908,-2.6314,-2.6487,-2.6487,-2.6487,-2.6487,-2.6487,-2.6487,-2.6487,0.0,0.0,0.0,0.0,0.0,0.0,0.0,0.0,0.0,0.0,0.0,0.0,0.0,0.0,0.0,0.0,0.0,0.0,0.0,0.0,0.0,0.0,0.0,0.0,0.0,0.0,0.0,0.0,-2.0744,-2.0843,-2.0446,0.0,0.0,0.0,0.0,0.0,0.0,0.0,0.0,0.0,0.0,-2.0421,-2.0396,-2.072,0.0,0.0,-2.1259,-2.1653,-2.2558,-2.236,-2.2123,-2.2276,-2.2535,0.0,0.0,0.0,0.0,0.0,0.0,0.0,0.0,0.0,0.0,0.0,0.0,0.0,0.0,0.0,0.0,0.0,0.0,0.0,0.0,0.0,0.0,0.0,0.0,0.0,0.0,0.0,0.0,0.0,0.0,0.0,0.0,0.0,0.0,0.0,0.0,0.0,0.0,0.0,0.0,0.0,0.0,0.0,0.0,0.0,0.0,0.0,0.0,0.0,0.0,0.0,0.0,-2.6586,-2.6295,-2.6424,-2.6487,-2.6487,-2.6487,-2.6487,-2.6487,-2.6487,-2.6487,0.0,0.0,0.0,0.0,0.0,0.0,0.0,0.0,0.0,0.0,0.0,0.0,0.0,0.0,0.0,0.0,0.0,0.0,0.0,0.0,0.0,0.0,0.0,0.0,0.0,0.0,0.0,0.0,-2.1402,-2.1172,-2.0572,0.0,0.0,0.0,0.0,0.0,0.0,0.0,0.0,0.0,0.0,-2.0835,-2.1004,-2.1373,-2.1547,-2.131,-2.1636,-2.2214,-2.3078,-2.2866,-2.2696,-2.3163,0.0,0.0,0.0,0.0,0.0,0.0,0.0,0.0,0.0,0.0,0.0,0.0,0.0,0.0,0.0,0.0,0.0,0.0,0.0,0.0,0.0,0.0,0.0,0.0,0.0,0.0,0.0,0.0,0.0,0.0,0.0,0.0,0.0,0.0,0.0,0.0,0.0,0.0,0.0,0.0,0.0,0.0,0.0,0.0,0.0,0.0,0.0,0.0,0.0,0.0,0.0,0.0,0.0,-2.6803,-2.5864,-2.6309,-2.6524,-2.6524,-2.6499,-2.6524,-2.6524,-2.6499,-2.6487,-2.6487,0.0,0.0,0.0,0.0,0.0,0.0,0.0,0.0,0.0,0.0,0.0,0.0,0.0,0.0,0.0,0.0,0.0,0.0,0.0,0.0,0.0,0.0,0.0,0.0,0.0,0.0,-2.2765,-2.1612,-2.0673,0.0,0.0,0.0,0.0,0.0,0.0,0.0,0.0,0.0,0.0,-2.0706,-2.0921,-2.1438,-2.1499,-2.1739,-2.227,-2.2351,-2.2856,-2.4198,-2.4371,-2.4453,0.0,0.0,0.0,0.0,0.0,0.0,0.0,0.0,0.0,0.0,0.0,0.0,0.0,0.0,0.0,0.0,0.0,0.0,0.0,0.0,0.0,0.0,0.0,0.0,0.0,0.0,0.0,-2.1936,-2.1936,0.0,0.0,0.0,0.0,0.0,0.0,0.0,0.0,0.0,0.0,0.0,-2.22,-2.1864,0.0,0.0,0.0,0.0,0.0,0.0,0.0,0.0,0.0,0.0,0.0,0.0,-2.6956,-2.7311,-2.7488,-2.7557,-2.7557,-2.7557,-2.7557,-2.7544,-2.7205,-2.6864,-2.6499,0.0,0.0,0.0,0.0,0.0,0.0,0.0,0.0,0.0,0.0,0.0,0.0,0.0,0.0,0.0,0.0,0.0,0.0,0.0,0.0,0.0,0.0,0.0,0.0,0.0,-2.4431,0.0,0.0,0.0,0.0,0.0,0.0,0.0,0.0,0.0,0.0,0.0,-2.1904,-2.2536,-2.3041,-2.325,-2.295,-2.2884,-2.2791,0.0,0.0,0.0,0.0,0.0,0.0,0.0,0.0,0.0,0.0,0.0,0.0,0.0,0.0,-2.6767,-2.6348,-2.6437,-2.6746,-2.718,0.0,0.0,0.0,0.0,0.0,0.0,0.0,0.0,0.0,0.0,0.0,0.0,0.0,0.0,0.0,0.0,-2.2324,0.0,0.0,0.0,0.0,0.0,0.0,0.0,0.0,-2.1943,-2.2192,-2.2693,-2.2693,-2.332,0.0,-2.4898,-2.4343,0.0,0.0,0.0,0.0,0.0,0.0,0.0,0.0,-2.7691,-2.8349,-2.821,-2.8109,-2.8109,-2.8109,-2.8109,-2.8097,-2.7758,-2.7318,-2.6801,-2.6788,-2.67,0.0,0.0,0.0,0.0,0.0,0.0,0.0,0.0,0.0,0.0,0.0,0.0,0.0,0.0,0.0,0.0,0.0,0.0,0.0,0.0,0.0,0.0,0.0,-2.5433,0.0,0.0,0.0,0.0,0.0,0.0,0.0,0.0,0.0,-2.1931,-2.2233,-2.2831,-2.3445,-2.3722,-2.3764,-2.346,0.0,0.0,0.0,0.0,0.0,0.0,0.0,-2.4011,-2.4197,-2.4669,-2.5142,-2.5633,-2.6411,-2.6956,-2.6956,0.0,0.0,-2.7031,-2.6956,-2.7106,-2.751,-2.7585,-2.766,-2.787,-2.8391,-2.9075,0.0,0.0,0.0,0.0,0.0,0.0,0.0,0.0,-2.3081,-2.3071,0.0,-2.3062,0.0,0.0,0.0,0.0,0.0,0.0,0.0,0.0,-2.2212,-2.2774,-2.4167,-2.4219,-2.5062,-2.6543,-2.7527,-2.6948,-2.5051,-2.5241,0.0,0.0,0.0,0.0,0.0,0.0,-2.8888,-2.89,-2.8448,-2.8172,-2.8185,-2.8172,-2.8172,-2.8147,-2.8134,-2.7871,-2.7366,-2.7281,-2.7077,-2.6549,-2.6499,0.0,0.0,0.0,0.0,0.0,0.0,0.0,0.0,0.0,0.0,0.0,0.0,0.0,0.0,0.0,0.0,0.0,0.0,0.0,0.0,-2.6577,0.0,0.0,0.0,0.0,0.0,0.0,0.0,0.0,0.0,0.0,-2.3919,-2.3254,-2.291,-2.3467,0.0,0.0,0.0,0.0,-2.3442,-2.4166,-2.4279,-2.4525,-2.5176,-2.5877,-2.6135,-2.5481,0.0,0.0,-2.7585,-2.7585,-2.757,-2.7585,-2.7585,-2.7585,-2.757,-2.7555,-2.757,-2.7585,-2.7585,-2.781,-2.8383,-2.8967,-2.9797,-2.3691,0.0,0.0,0.0,0.0,-2.3101,-2.3101,-2.3101,-2.3101,-2.3101,-2.3101,-2.3101,0.0,0.0,0.0,0.0,0.0,0.0,-2.2916,-2.2993,-2.3649,-2.4189,-2.4682,-2.5476,-2.649,-2.7643,-2.7976,-2.8176,-2.8359,-2.8436,-2.768,-2.6109,0.0,0.0,0.0,0.0,-2.8743,-2.949,-2.939,-2.9315,-2.9315,-2.9302,-2.9101,-2.8699,-2.8699,-2.8436,-2.7883,-2.7494,-2.7241,-2.7077,-2.67,0.0,0.0,0.0,0.0,0.0,0.0,0.0,0.0,0.0,0.0,0.0,0.0,0.0,0.0,0.0,0.0,0.0,0.0,0.0,-2.7229,-2.732,-2.7225,0.0,0.0,0.0,0.0,0.0,0.0,0.0,0.0,0.0,-2.6491,-2.5856,-2.5454,0.0,0.0,-2.5934,-2.5577,-2.5091,-2.4639,-2.4337,0.0,0.0,0.0,-2.441,-2.5035,-2.5342,-2.6628,-2.7585,-2.7585,-2.7585,-2.7585,-2.76,-2.7585,-2.7585,-2.7585,-2.7585,-2.7585,-2.7585,-2.7585,-2.781,-2.8407,-2.9375,-3.0403,-2.4268,-2.3588,-2.3467,-2.3247,-2.3101,-2.3101,-2.3101,-2.3101,-2.3101,-2.3101,-2.3101,-2.3101,-2.3343,-2.38,-2.4264,0.0,0.0,0.0,-2.4178,-2.38,-2.45,-2.5041,-2.5504,-2.6182,-2.6842,-2.7452,-2.7896,-2.8239,-2.8502,-2.8502,-2.8039,-2.718,0.0,0.0,-2.9067,-2.8897,-2.9106,-2.9753,-2.9779,-2.9779,-2.9779,-2.9779,-2.9628,-2.9277,-2.9277,-2.9013,-2.8461,-2.8109,-2.7733,-2.7306,-2.7002,-2.6725,0.0,0.0,0.0,0.0,0.0,0.0,0.0,0.0,0.0,0.0,0.0,-2.5453,0.0,0.0,0.0,0.0,-2.7091,-2.7126,-2.7549,-2.7585,0.0,0.0,0.0,0.0,0.0,0.0,0.0,-2.744,-2.7989,-2.8393,-2.8393,-2.8012,-2.7538,-2.6967,-2.7234,-2.7324,-2.6887,0.0,-2.6088,-2.5959,-2.5917,-2.5672,-2.4863,-2.5381,-2.6059,-2.6484,-2.7542,-2.8353,-2.8393,-2.8199,-2.8019,-2.7974,-2.7794,-2.7585,-2.7585,-2.7585,-2.7585,-2.7585,-2.781,-2.8241,-2.9124,-3.0103,-3.1169,-2.4971,-2.4541,-2.417,-2.3711,-2.3208,-2.3198,-2.3198,-2.3198,-2.3208,-2.3179,-2.3193,-2.314,-2.3711,-2.4702,-2.5766,0.0,-2.484,-2.5891,-2.5797,-2.4957,-2.4988,-2.5619,-2.6607,-2.673,-2.6771,-2.6801,-2.7775,-2.7735,-2.6853,-2.6801,-2.725,-2.8255,-2.9287,-2.9275,-2.8335,-2.9275,-2.9779,-2.9779,-2.9779,-2.9779,-2.9779,-2.9779,-2.9779,-2.9779,-2.9779,-2.9528,-2.8988,-2.8913,-2.8461,-2.7482,-2.7369,-2.7105,-2.66,0.0,0.0,0.0,0.0,0.0,0.0,0.0,0.0,0.0,0.0,0.0,0.0,0.0,0.0,0.0,-2.8139,0.0,-2.7764,-2.7764,0.0,0.0,0.0,-2.775,-2.775,-2.8293,-2.8682,-2.8682,0.0,0.0,-2.9621,0.0,-2.9198,-2.7897,-2.7584,-2.749,-2.749,-2.7434,-2.7621,-2.8139,-2.8282,-2.7997,-2.7085,-2.7594,-2.8083,-2.8139,-2.9028,-2.9505,-2.9502,-2.9071,-2.8712,-2.8682,-2.8113,-2.7705,-2.769,-2.7675,-2.7585,-2.7585,-2.8067,-2.8888,-3.0106,-3.0998,-3.2045,-2.6309,-2.5908,-2.581,-2.5127,-2.4075,-2.4111,-2.4066,-2.4121,-2.4111,-2.3935,-2.3643,-2.3633,-2.357,-2.3507,-2.381,-2.4221,-2.484,-2.5083,-2.5546,-2.613,-2.6942,-2.7481,-2.7775,-2.8621,-2.9,-2.904,-2.9287,-2.9248,-2.9013,-2.9,-2.9131,-2.9404,-2.9663,-2.9663,-2.9404,-2.9663,-2.9779,-2.9779,-2.9779,-2.9779,-2.9779,-2.9779,-2.9779,-2.9779,-2.9779,-2.9729,-2.9591,-2.9126,-2.8775,-2.8512,-2.8134,-2.7657,-2.7153,-2.7115,0.0,0.0,0.0,0.0,0.0,0.0,0.0,0.0,0.0,-2.7459,-2.8054,0.0,-2.934,0.0,-2.9217,-2.9127,-2.9127,-2.9127,0.0,0.0,-2.9127,-2.9142,-2.9127,-2.9277,-2.9382,-2.9367,-2.949,-2.9621,-2.9621,-2.9998,-3.0167,-2.9822,-2.9359,-2.9028,-2.9028,-2.8495,-2.8183,-2.8339,-2.7996,-2.7505,-2.7414,-2.791,-2.8411,-2.8382,-2.907,-2.9594,-2.9594,-2.9475,-2.9367,-2.9337,-2.8816,-2.8412,-2.8368,-2.7959,-2.7645,-2.761,-2.8091,-2.8888,-3.0217,-3.1417,-3.2691,-2.7051,-2.667,-2.667,-2.624,-2.5537,-2.4961,-2.46,-2.4424,-2.4424,-2.4287,-2.4118,-2.4606,-2.468,-2.4458,-2.4936,-2.5242,-2.5417,-2.5872,-2.6473,-2.7164,-2.774,-2.858,-2.9541,-2.9698,-2.9656,-2.9383,-2.9423,-2.901,-2.8395,-2.8819,-2.9028,-2.9067,-2.9534,-2.9779,-2.9779,-2.9779,-2.9779,-2.9779,-2.9779,-2.9779,-2.9779,-2.9779,-2.9779,-2.9779,-2.9779,-2.9779,-2.9779,-2.9478,-2.9151,-2.89,-2.8637,-2.8222,-2.7682,-2.7454,-2.7143,0.0,0.0,0.0,0.0,0.0,0.0,0.0,0.0,0.0,0.0,0.0,-2.9864,0.0,-2.9621,-2.9621,-2.9621,-2.9621,-2.9621,-2.9621,-2.9621,-2.9726,-2.9953,-3.0268,-3.0552,-3.0851,-3.115,-3.1344,-3.133,-3.1345,-3.139,-3.1405,-3.0851,-3.0307,-2.9996,-2.9795,-2.9652,-2.9276,-2.8895,-2.8494,-2.8133,-2.8733,-2.9247,-2.932,-2.9909,-3.0462,-3.0432,-3.0178,-2.9998,-2.9953,-2.9475,-2.9041,-2.9052,-2.8742,-2.8561,-2.8926,-2.9419,-3.0077,-3.0854,-3.2282,-3.3739,-2.7769,-2.7424,-2.7229,-2.7139,-2.7002,-2.5879,-2.5117,-2.4668,-2.4668,-2.4609,-2.4548,-2.5467,-2.5889,-2.5934,-2.6875,-2.683,-2.6159,-2.7096,-2.7612,-2.7885,-2.7885,-2.8963,-3.0857,-2.9972,-2.9248,-2.8757,-2.8757,-2.8086,-2.6862,-2.7748,-2.8235,-2.8386,-2.9326,-2.9779,-2.9779,-2.9779,-2.9779,-2.9779,-2.9779,-2.9779,-2.9779,-2.9779,-2.9779,-2.9779,-2.9779,-2.9779,-2.9779,-2.9779,-2.9566,-2.9038,-2.9001,-2.8787,-2.8235,-2.7758,-2.7457,0.0,-2.6901,0.0,0.0,0.0,0.0,0.0,0.0,0.0,0.0,-3.0046,-3.0417,-2.9879,-2.9819,-2.9864,-2.9981,-2.9953,-2.9998,-3.0073,-3.0101,-3.0325,-3.0836,-3.1391,-3.1974,-3.2587,-3.314,-3.3499,-3.3395,-3.2976,-3.2647,-3.2512,-3.1989,-3.1293,-3.0641,-3.0955,-3.1115,-3.051,-3.045,-3.008,-2.9577,-2.9984,-3.0407,-3.051,-3.094,-3.1496,-3.1421,-3.0987,-3.0642,-3.0582,-3.0118,-2.9714,-2.9726,-2.9651,-2.9773,-3.0315,-3.1007,-3.1614,-3.1957,-3.3187,-3.4665,-2.9735,-2.9549,-2.8503,-2.7851,-2.7519,-2.7327,-2.6728,-2.6016,-2.6016,-2.5605,-2.4969,-2.4802,-2.4726,-2.4736,-2.4945,-2.5437,-2.6124,-2.6338,-2.6875,-2.7743,-2.7732,-2.7949,-2.8382,-2.8166,-2.8046,-2.7933,-2.7944,-2.808,-2.8357,-2.8562,-2.8952,-2.9468,-2.9702,-2.9779,-2.9779,0.0,0.0,0.0,-2.9779,-2.9779,-2.9779,-2.9779,-2.9779,-2.9779,-2.9779,0.0,-2.9779,-2.9779,-2.9741,-2.9641,-2.9628,0.0,0.0,0.0,0.0,0.0,0.0,0.0,0.0,0.0,0.0,0.0,-2.8939,-3.0238,-3.0103,-3.0808,-3.1256,-3.1152,-3.1137,-3.1361,-3.1898,-3.1958,-3.2168,-3.2691,-3.2751,-3.2811,-3.2931,-3.3051,-3.3185,-3.329,-3.3425,-3.3514,-3.3544,-3.338,-3.332,-3.3275,-3.2736,-3.199,-3.1129,-3.1294,-3.1424,-3.1292,-3.1161,-3.119,-3.1058,-3.1131,-3.119,-3.1307,-3.1351,-3.1496,-3.1481,-3.1421,-3.1301,-3.1271,-3.0763,-3.0328,-3.0328,-2.9939,-2.992,-3.0515,-3.158,-3.2555,-3.3104,-3.3896,-3.4709,-3.1276,0.0,-2.9869,-2.9181,0.0,-2.8275,-2.7607,-2.7002,-2.6787,-2.6328,-2.5693,-2.5264,-2.5011,-2.5068,-2.5021,-2.5342,-2.5896,-2.5896,-2.6517,-2.7631,-2.7631,-2.7983,-2.8556,-2.8556,-2.8388,-2.8154,-2.8154,-2.7898,-2.7484,-2.8017,-2.8324,-2.8471,-2.9008,-2.9468,-2.9804,-2.9779,-2.9779,-2.9779,-2.9779,-2.9779,-2.9779,-2.9779,-2.9779,-2.9779,0.0,0.0,0.0,0.0,0.0,0.0,0.0,0.0,0.0,0.0,0.0,-2.8511,-2.7996,-2.757,-2.7341,-2.7411,-2.7327,-2.6958,-2.9131,-3.078,-3.1335,-3.1768,-3.2123,-3.2482,-3.2467,-3.2632,-3.2946,-3.3006,-3.314,-3.3455,-3.3499,-3.3604,-3.3918,-3.4009,-3.4113,-3.4442,-3.4487,-3.4487,-3.4487,-3.4173,-3.4024,-3.3948,-3.341,-3.2705,-3.1987,-3.1619,-3.138,-3.1029,-3.1278,-3.1336,-3.1029,-3.1278,-3.1496,-3.1496,-3.1496,-3.1496,-3.1496,-3.1496,-3.1496,-3.1481,-3.1197,-3.1016,-3.1014,-3.1011,-3.1286,-3.1976,-3.2898,-3.3794,-3.4432,-3.4852,-3.5126,-3.2532,-3.218,-3.0876,-3.0328,-3.0224,-2.8847,-2.8096,-2.7796,0.0,0.0,0.0,-2.6123,-2.5869,-2.585,-2.5801,-2.5762,-2.5693,-2.5684,-2.6245,-2.7268,-2.7268,-2.7804,-2.8716,-2.8773,-2.8519,-2.8091,-2.8306,-2.7659,-2.6285,-2.7315,-2.762,-2.7314,-2.8168,-2.8937,-2.9591,-2.9752,-2.9779,-2.9779,-2.9779,-2.9779,-2.9779,-2.9779,-2.9779,-2.9779,-2.9779,-2.9779,-2.9779,-2.9779,-2.9779,-2.9779,-2.9779,-2.9779,-2.9779,-2.934,-2.9038,-2.9013,-2.8561,-2.8047,-2.7607,-2.7482,-2.749,-2.7668,-2.9609,-3.133,-3.2556,-3.2691,-3.2901,-3.344,-3.3499,-3.3544,-3.3649,-3.3679,-3.3755,-3.3829,-3.3844,-3.4083,-3.4562,-3.4683,-3.4876,-3.5385,-3.5429,-3.5489,-3.5429,-3.4981,-3.4698,-3.4608,-3.4083,-3.3365,-3.2632,-3.1885,-3.1322,-3.0837,-3.119,-3.1248,-3.0807,-3.1058,-3.1467,-3.1496,-3.1496,-3.1496,-3.1496,-3.1496,-3.1496,-3.1496,-3.1496,-3.1466,-3.1538,-3.1972,-3.2788,-3.3469,-3.4137,-3.4783,-3.5424,-3.56,-3.5583,-3.3415,-3.218,-3.0876,-3.0328,-3.0224,-2.8847,-2.8252,-2.8144,-2.7363,-2.6982,-2.6924,-2.6865,-2.6641,-2.6299,-2.6299,-2.6094,-2.5693,-2.5684,-2.5781,0.0,-2.5965,-2.6062,-2.6245,-2.6245,-2.6167,-2.6204,-2.7201,-2.7336,-2.6823,-2.785,-2.8177,-2.7687,-2.7762,-2.8253,-2.8908,-2.9522,-2.9779,-2.9779,-2.9779,-2.9779,-2.9779,-2.9779,-2.9779,-2.9779,-2.9779,-2.9779,-2.9779,-2.9779,-2.9779,-2.9779,-2.9779,-2.9779,-2.9779,-2.9716,-2.9666,-2.9641,-2.9088,-2.8737,-2.865,-2.826,-2.8284,-2.9065,-3.0147,-3.1532,-3.3166,-3.335,-3.3395,-3.3514,-3.3574,-3.3724,-3.4279,-3.4337,-3.4562,-3.5085,-3.519,-3.5265,-3.531,-3.5325,-3.5355,-3.5474,-3.5489,-3.5489,-3.5474,-3.5385,-3.5295,-3.5235,-3.4651,-3.3888,-3.2856,-3.1914,-3.1511,-3.1351,-3.1409,-3.1438,-3.1307,-3.138,-3.1496,-3.1496,-3.1496,-3.1496,-3.1496,-3.1496,-3.1496,-3.1496,-3.1496,-3.1496,-3.1524,-3.2092,-3.2815,-3.3521,-3.4161,-3.4871,-3.5492,-3.5616,-3.5616,-3.5102,-3.4289,-3.223,-3.1378,-3.1224,-2.9154,-2.8301,-2.8262,-2.7891,-2.7578,-2.7353,-2.7119,-2.6904,-2.6738,-2.6728,-2.6621,-2.6435,-2.6376,-2.6299,-2.6103,-2.6094,-2.5967,-2.5693,-2.5684,-2.5684,-2.5732,-2.6294,-2.6413,-2.6327,-2.744,-2.8102,-2.8243,-2.9176,-2.9564,-2.9285,-2.9911,-3.0244,-3.0231,-2.9942,-2.9779,-2.9779,-2.9779,-2.9779,-2.9779,-2.9779,-2.9779,-2.9779,-2.9779,-2.9779,-2.9779,-2.9779,-2.9779,-2.9779,-2.9779,-2.9779,-2.9779,-2.9541,-2.9264,-2.8913,-2.8662,-2.8929,-2.9846,-3.0597,-3.1827,-3.362,-3.3936,-3.4219,-3.4532,-3.4592,-3.4696,-3.4996,-3.504,-3.516,-3.5474,-3.5489,-3.5489,-3.5489,-3.5489,-3.5489,-3.5489,-3.5489,-3.5489,-3.5489,-3.5489,-3.5489,-3.5444,-3.4938,-3.4218,-3.3619,-3.3006,-3.2288,-3.169,-3.1496,-3.1496,-3.1511,-3.1496,-3.1496,-3.1496,-3.1496,-3.1496,-3.1496,-3.1496,-3.1496,-3.1496,-3.1496,-3.1496,-3.1496,-3.2407,-3.3156,-3.3547,-3.4471,-3.5207,-3.5538,-3.5616,-3.5735,-3.6216,-3.5715,-3.365,-3.2593,-3.209,-2.9755,-2.8751,-2.8698,-2.8441,-2.8115,-2.7836,-2.7441,-2.7246,-2.7168,-2.7158,-2.7109,-2.7021,-2.7012,-2.6836,-2.6553,-2.6533,-2.6299,-2.5918,-2.5889,-2.5791,-2.5752,-2.5965,-2.6014,-2.5878,-2.6993,-2.7878,-2.8554,-3.0276,-3.0697,-2.9777,-3.0454,-3.0783,-3.0758,-3.0256,-2.993,-2.9792,-2.9779,-2.9779,-2.9779,-2.9779,-2.9779,-2.9779,-2.9779,-2.9779,-2.9779,-2.9779,-2.9779,-2.9779,-2.9779,-2.9779,-2.9779,-2.9779,-2.9603,-2.9176,-2.9088,-2.9415,-3.022,-3.0832,-3.1888,-3.3456,-3.4123,-3.4698,-3.5367,-3.5444,-3.5459,-3.5459,-3.5474,-3.5489,-3.5489,-3.5489,-3.5489,-3.5489,-3.5489,-3.5489,-3.5489,-3.5489,-3.5489,-3.5489,-3.5489,-3.5489,-3.5415,-3.5026,-3.4696,-3.4503,-3.4008,-3.323,-3.2363,-3.1944,-3.2019,-3.1944,-3.1989,-3.2019,-3.1944,-3.1839,-3.1809,-3.1765,-3.166,-3.1511,-3.1496,-3.1496,-3.1496,-3.1611,-3.2625,-3.3427,-3.3684,-3.4609,-3.5554,-3.56,-3.5819,-3.6045,-3.5715,-3.4629,-3.4276,-3.3464,-3.2129,-3.0669,-3.0005,-2.9859,-2.8857,-2.8281,-2.8203,-2.8193,-2.7939,-2.7637,-2.766,-2.7412,-2.707,-2.7021,-2.7012,-2.6973,-2.6963,-2.6738,-2.6348,-2.6318,-2.6123,-2.5888,-2.6764,-2.6658,-2.5781,-2.6982,-2.7662,-2.7885,-2.9561,-3.0508,-3.0393,-3.0984,-3.1311,-3.1298,-3.0796,-3.0294,-2.9817,-2.9779,-2.9779,-2.9779,-2.9779,-2.9779,-2.9779,-2.9779,-2.9779,-2.9779,-2.9779,-2.9779,-2.9779,-2.9779,-2.9779,-2.9779,-2.9779,-2.9754,-2.9704,-2.9704,-2.9717,-2.9896,-3.0681,-3.1596,-3.2664,-3.3545,-3.4455,-3.5231,-3.5489,-3.5489,-3.5489,-3.5489,-3.5489,-3.5489,-3.5489,-3.5489,-3.5489,-3.5489,-3.5489,-3.5489,-3.5489,-3.5489,-3.5489,-3.5489,-3.5489,-3.5489,-3.5385,-3.5115,-3.4713,-3.4487,-3.4219,-3.3529,-3.3305,-3.3275,-3.3215,-3.3305,-3.314,-3.3155,-3.2781,-3.2467,-3.2258,-3.1884,-3.1496,-3.1511,-3.1496,-3.1496,-3.1781,-3.261,-3.3531,-3.3761,-3.4585,-3.5616,-3.5684,-3.6129,-3.6643,-3.6061,-3.5523,-3.4739,-3.3105,-3.1071,-2.965,-2.9102,-2.9059,-2.8548,-2.8301,-2.8301,-2.8301,-2.8193,-2.8047,-2.8037,-2.7939,-2.7773,-2.7773,-2.7627,-2.7412,-2.7393,-2.7168,-2.6768,-2.6494,-2.6279,-2.6103,-2.6385,-2.6197,-2.6014,-2.6993,-2.7955,-2.8762,-3.0186,-3.0858,-3.0954,-3.1538,-3.1876,-3.1851,-3.1348,-3.0821,-3.0306,-2.9955,-2.9779,-2.9779,-2.9779,-2.9779,-2.9779,-2.9779,-2.9779,-2.9779,-2.9779,-2.9779,-2.9779,-2.9779,-2.9779,-2.9779,-2.9779,-2.9779,-2.9779,-2.9779,-2.9779,-2.9779,-3.0139,-3.0983,-3.2429,-3.2961,-3.3788,-3.5198,-3.5489,-3.5489,-3.5489,-3.5489,-3.5489,-3.5489,-3.5489,-3.5489,-3.5489,-3.5489,-3.5489,-3.5489,-3.5489,-3.5489,-3.5489,-3.5489,-3.5489,-3.5489,-3.5489,-3.534,-3.51,-3.5085,-3.4981,-3.4771,-3.4681,-3.4307,-3.3769,-3.3499,-3.3529,-3.3469,-3.329,-3.3036,-3.2587,-3.2333,-3.1974,-3.16,-3.1555,-3.154,-3.1496,-3.2583,-3.3608,-3.3919,-3.4666,-3.5701,-3.6197,-3.6575,-3.7049,-3.6417,-3.6156,-3.4569,-3.2905,-3.1235,-2.9154,-2.8495,-2.8751,-2.8504,-2.8301,-2.8301,-2.8301,-2.8301,-2.8301,-2.8301,-2.8301,-2.8301,-2.8301,-2.8135,-2.7904,-2.7894,-2.7617,-2.7187,-2.6894,-2.6611,-2.6367,-2.6064,-2.5859,-2.5898,-2.6982,-2.8038,-2.8993,-3.0451,-3.1178,-3.1276,-3.1994,-3.2453,-3.2403,-3.1901,-3.1436,-3.1022,-3.0369,-2.9942,-2.9817,-2.9779,-2.9779,-2.9779,-2.9779,-2.9779,-2.9779,-2.9779,-2.9779,-2.9779,-2.9779,-2.9779,-2.9779,-2.9779,-2.9779,-2.9779,-2.9779,-2.9779,-2.9779,-2.9779,-3.0495,-3.1829,-3.2213,-3.3101,-3.4773,-3.51,-3.5148,-3.5472,-3.5489,-3.5489,-3.5489,-3.5489,-3.5489,-3.5489,-3.5489,-3.5489,-3.5489,-3.5489,-3.5489,-3.5489,-3.5489,-3.5489,-3.5489,-3.5489,-3.5489,-3.5489,-3.5474,-3.5459,-3.5489,-3.5474,-3.5115,-3.4247,-3.4143,-3.4038,-3.3978,-3.3993,-3.3604,-3.308,-3.2976,-3.2557,-3.2123,-3.1884,-3.1688,-3.1655,-3.2555,-3.4097,-3.4537,-3.5283,-3.6231,-3.6941,-3.7218,-3.7821,-3.6417,-3.6013,-3.354,-3.3093,-3.3822,-3.0026,-2.8996,-2.9869,-2.8804,-2.8301,-2.8301,-2.8301,-2.8301,-2.8301,-2.8301,-2.8301,-2.8301,-2.8301,-2.8271,-2.8223,-2.8242,-2.8037,-2.7646,-2.766,-2.728,-2.6913,-2.6735,-2.6389,-2.5985,-2.703,-2.7636,-2.7908,-3.0135,-3.1223,-3.1444,-3.2463,-3.3074,-3.2918,-3.2441,-3.2139,-3.1947,-3.1097,-3.0369,-2.9905,-2.9792,-2.9779,-2.9779,-2.9779,-2.9779,-2.9779,-2.9779,-2.9779,-2.9779,-2.9779,-2.9779,-2.9779,-2.9779,-2.9779,-2.9779,-2.9779,-2.9779,-2.9779,-2.9779,-3.0203,-3.1254,-3.1389,-3.2249,-3.3925,-3.4211,-3.4509,-3.5344,-3.5489,-3.5489,-3.5489,-3.5489,-3.5489,-3.5489,-3.5489,-3.5489,-3.5489,-3.5489,-3.5489,-3.5489,-3.5489,-3.5489,-3.5489,-3.5489,-3.5489,-3.5489,-3.5489,-3.5489,-3.5489,-3.5489,-3.5459,-3.5385,-3.51,-3.5175,-3.51,-3.4637,-3.4367,-3.4219,-3.3919,-3.3245,-3.2721,-3.2557,-3.2316,-3.1994,-3.2851,-3.4598,-3.5554,-3.6245,-3.7043,-3.7702,-3.843,-3.8903,-3.6417,-3.6263,-3.441,-3.3464,-3.2794,-3.0525,-2.9398,-2.8996,-2.8495,-2.8301,-2.8301,-2.8301,-2.8301,-2.8301,-2.8301,-2.8301,-2.8301,-2.8301,-2.8301,-2.8301,-2.8301,-2.8671,-2.932,-2.9096,-2.9358,-2.9657,-2.9117,-2.8593,-2.8128,-2.853,-2.9177,-2.9909,-3.0732,-3.1589,-3.2326,-3.2884,-3.3124,-3.3099,-3.2867,-3.2591,-3.224,-3.1825,-3.1235,-3.0357,-2.9967,-2.9779,-2.9779,-2.9779,-2.9779,-2.9779,-2.9779,-2.9779,-2.9779,-2.9779,-2.9779,-2.9779,-2.9779,-2.9779,-2.9779,-2.9779,-2.9779,-2.9779,-2.9779,-3.0177,-3.097,-3.1241,-3.196,-3.3518,-3.3979,-3.4461,-3.5231,-3.5489,-3.5489,-3.5489,-3.5489,-3.5489,-3.5489,-3.5489,-3.5489,-3.5489,-3.5489,-3.5489,-3.5489,-3.5489,-3.5489,-3.5489,-3.5489,-3.5489,-3.5489,-3.5489,-3.5489,-3.5489,-3.5489,-3.5489,-3.5489,-3.5474,-3.5474,-3.5444,-3.5205,-3.4846,-3.4623,-3.4459,-3.3888,-3.335,-3.3155,-3.335,-3.3232,-3.4338,-3.5901,-3.6831,-3.7499,-3.7787,-3.8464,-3.8954,-3.9292,-3.6417,-3.6216,-3.4933,-3.3613,-3.218,-3.0876,-2.9565,-2.8344,-2.8301,-2.8301,-2.8301,-2.8301,-2.8301,-2.8301,-2.8301,-2.8301,-2.8301,-2.8301,-2.8301,-2.8301,-2.8301,-2.8794,-2.9556,-2.9807,-3.028,-3.0839,-3.0521,-3.0003,-2.9653,-2.9474,-2.9806,-3.0541,-3.0944,-3.1589,-3.2426,-3.2896,-3.3124,-3.3124,-3.3124,-3.2867,-3.2503,-3.2303,-3.1888,-3.1173,-3.0608,-3.0131,-2.9817,-2.9779,-2.9779,-2.9779,-2.9779,-2.9779,-2.9779,-2.9779,-2.9779,-2.9779,-2.9779,-2.9779,-2.9779,-2.9779,-2.9779,-2.9779,-2.9792,-3.0101,-3.0696,-3.0771,-3.1696,-3.3031,-3.3553,-3.4007,-3.5133,-3.5489,-3.5489,-3.5489,-3.5489,-3.5489,-3.5489,-3.5489,-3.5489,-3.5489,-3.5489,-3.5489,-3.5489,-3.5489,-3.5489,-3.5489,-3.5489,-3.5489,-3.5489,-3.5489,-3.5489,-3.5489,-3.5489,-3.5489,-3.5489,-3.5489,-3.5489,-3.5474,-3.5459,-3.516,-3.4981,-3.4831,-3.4593,-3.4038,-3.403,-3.4317,-3.5026,-3.6077,-3.7042,-3.8007,-3.8311,-3.8497,-3.8971,-3.9326,-3.9622,-3.6417,-3.6216,-3.4981,-3.3773,-3.2381,-3.1081,-2.9618,-2.8601,-2.8354,-2.8301,-2.8301,-2.8301,-2.8301,-2.8301,-2.8301,-2.8301,-2.8301,-2.8301,-2.8301,-2.8301,-2.8301,-2.8398,-2.8741,-2.9766,-3.027,-3.031,-3.0326,-3.0426,-3.043,-3.0102,-2.9932,-2.9875,-3.0956,-3.1545,-3.1356,-3.2568,-3.3124,-3.3124,-3.3124,-3.3099,-3.3048,-3.2554,-3.2227,-3.2064,-3.1587,-3.0884,-2.993,-2.9854,-2.9842,-2.9792,-2.9779,-2.9779,-2.9779,-2.9779,-2.9779,-2.9779,-2.9779,-2.9779,-2.9779,-2.9779,-2.9779,-2.9779,-2.9779,-2.9818,-2.9921,-2.996,-3.0746,-3.2357,-3.2806,-3.3429,-3.5067,-3.5489,-3.5489,-3.5489,-3.5489,-3.5489,-3.5489,-3.5489,-3.5489,-3.5489,-3.5489,-3.5489,-3.5489,-3.5489,-3.5489,-3.5489,-3.5489,-3.5489,-3.5489,-3.5489,-3.5489,-3.5489,-3.5489,-3.5489,-3.5489,-3.5489,-3.5489,-3.5489,-3.5489,-3.537,-3.5325,-3.5205,-3.504,-3.467,-3.5126,-3.5472,-3.6262,-3.7249,-3.7926,-3.8696,-3.8897,-3.914,-3.9462,-3.9791,-3.9893,-3.6417,-3.6358,-3.5966,-3.4969,-3.3662,-3.2241,-3.0927,-2.9608,-2.8751,-2.8291,-2.8301,-2.8301,-2.8301,-2.8301,-2.8301,-2.8301,-2.8301,-2.8301,-2.8301,-2.8301,-2.8301,-2.8804,-2.9555,-3.011,-3.0976,-3.2323,-3.3362,-3.3414,-3.275,-3.2507,-3.2309,-3.2138,-3.2295,-3.2513,-3.2469,-3.2939,-3.3124,-3.3124,-3.3124,-3.3124,-3.3068,-3.2905,-3.2629,-3.224,-3.2039,-3.1599,-3.0934,-3.0545,-3.0168,-2.9829,-2.9779,-2.9779,-2.9779,-2.9779,-2.9779,-2.9779,-2.9779,-2.9779,-2.9779,-2.9779,-2.9779,-2.9779,-2.9779,-2.9779,-2.9779,-2.9779,-3.0646,-3.2249,-3.2629,-3.3394,-3.4986,-3.5489,-3.5489,-3.5489,-3.5489,-3.5489,-3.5489,-3.5489,-3.5489,-3.5489,-3.5489,-3.5489,-3.5489,-3.5489,-3.5489,-3.5489,-3.5489,-3.5489,-3.5489,-3.5489,-3.5489,-3.5489,-3.5489,-3.5489,-3.5489,-3.5489,-3.5489,-3.5489,-3.5489,-3.5489,-3.5489,-3.5474,-3.5325,-3.5525,-3.5999,-3.6672,-3.7489,-3.8282,-3.8941,-3.9337,-3.9606,-3.9842,-4.0028,-4.0113,-4.0113,-3.6417,-3.6417,-3.6417,-3.5607,-3.4276,-3.2905,-3.1531,-3.0224,-2.89,-2.8291,-2.8301,-2.8301,-2.8301,-2.8301,-2.8301,-2.8301,-2.8301,-2.8301,-2.8301,-2.8301,-2.8301,-2.8804,-2.9713,-3.0669,-3.2007,-3.3681,-3.494,-3.5031,-3.4236,-3.3972,-3.3621,-3.3156,-3.3124,-3.3081,-3.3124,-3.3124,-3.3124,-3.3124,-3.3124,-3.3124,-3.3124,-3.3124,-3.2893,-3.2591,-3.2541,-3.2252,-3.1712,-3.1185,-3.0645,-3.0168,-2.993,-2.9792,-2.9779,-2.9779,-2.9779,-2.9779,-2.9779,-2.9779,-2.9779,-2.9779,-2.9779,-2.9779,-2.9779,-2.9779,-2.9779,-2.9779,-3.057,-3.1742,-3.2415,-3.322,-3.4624,-3.5311,-3.5457,-3.5489,-3.5489,-3.5489,-3.5489,-3.5489,-3.5489,-3.5489,-3.5489,-3.5489,-3.5489,-3.5489,-3.5489,-3.5489,-3.5489,-3.5489,-3.5489,-3.5489,-3.5489,-3.5489,-3.5489,-3.5489,-3.5489,-3.5489,-3.5489,-3.5489,-3.5489,-3.5489,-3.5489,-3.5489,-3.5415,-3.5819,-3.6292,-3.7046,-3.7862,-3.9023,-3.9842,-4.0079,-4.0096,-4.0113,-4.0113,-4.0113,-4.0113,-3.6417,-3.6417,-3.6417,-3.5715,-3.4483,-3.3143,-3.1774,-3.0421,-2.9049,-2.8451,-2.8344,-2.8301,-2.8301,-2.8301,-2.8301,-2.8301,-2.8301,-2.8301,-2.8301,-2.8301,-2.8301,-2.8451,-2.8751,-3.0927,-3.271,-3.395,-3.5115,-3.5295,-3.4718,-3.4274,-3.3671,-3.3244,-3.3187,-3.3124,-3.3124,-3.3124,-3.3124,-3.3124,-3.3124,-3.3124,-3.3124,-3.3124,-3.3056,-3.3061,-3.3048,-3.278,-3.2277,-3.1662,-3.1085,-3.057,-3.0005,-2.9779,-2.9779,-2.9779,-2.9779,-2.9779,-2.9779,-2.9779,-2.9779,-2.9779,-2.9779,-2.9779,-2.9779,-2.9779,-2.9779,-2.9818,-3.0203,-3.1241,-3.2105,-3.2996,-3.4027,-3.4953,-3.5424,-3.5489,-3.5489,-3.5489,-3.5489,-3.5489,-3.5489,-3.5489,-3.5489,-3.5489,-3.5489,-3.5489,-3.5489,-3.5489,-3.5489,-3.5489,-3.5489,-3.5489,-3.5489,-3.5489,-3.5489,-3.5489,-3.5489,-3.5489,-3.5489,-3.5489,-3.5489,-3.5489,-3.5489,-3.5489,-3.5686,-3.6101,-3.6492,-3.7324,-3.8234,-3.9236,-3.9952,-4.007,-4.007,-4.0096,-4.0113,-4.0113,-4.0113,-3.6417,-3.6417,-3.6417,-3.6203,-3.5715,-3.4422,-3.3055,-3.1673,-3.0317,-2.9154,-2.8495,-2.8301,-2.8301,-2.8301,-2.8301,-2.8301,-2.8301,-2.8301,-2.8301,-2.8301,-2.8301,-2.8301,-2.8847,-3.0968,-3.2482,-3.317,-3.5028,-3.5855,-3.527,-3.4738,-3.4198,-3.3684,-3.3257,-3.3124,-3.3124,-3.3124,-3.3124,-3.3124,-3.3124,-3.3124,-3.3124,-3.3124,-3.3124,-3.3124,-3.3124,-3.3036,-3.2754,-3.1901,-3.0934,-3.0093,-2.9892,-2.9779,-2.9779,-2.9779,-2.9779,-2.9779,-2.9779,-2.9779,-2.9779,-2.9779,-2.9779,-2.9779,-2.9779,-2.9779,-2.9779,-2.9779,-3.0279,-3.1119,-3.2069,-3.2961,-3.3891,-3.4905,-3.5424,-3.5489,-3.5489,-3.5489,-3.5489,-3.5489,-3.5489,-3.5489,-3.5489,-3.5489,-3.5489,-3.5489,-3.5489,-3.5489,-3.5489,-3.5489,-3.5489,-3.5489,-3.5489,-3.5489,-3.5489,-3.5489,-3.5489,-3.5489,-3.5489,-3.5489,-3.5489,-3.5489,-3.5489,-3.5489,-3.5863,-3.6306,-3.6461,-3.7084,-3.806,-3.9043,-3.9473,-3.9885,-4.007,-4.0087,-4.0113,-4.0113,-4.0113,-3.6417,-3.6417,-3.6417,-3.6417,-3.6216,-3.4981,-3.392,-3.2894,-3.1122,-2.9911,-2.9154,-2.8495,-2.8291,-2.8301,-2.8301,-2.8301,-2.8301,-2.8301,-2.8301,-2.8301,-2.8301,-2.8301,-2.8953,-3.1019,-3.228,-3.2632,-3.5102,-3.589,-3.547,-3.4944,-3.4405,-3.3872,-3.3345,-3.3136,-3.3124,-3.3124,-3.3124,-3.3124,-3.3124,-3.3124,-3.3124,-3.3124,-3.3124,-3.3124,-3.3111,-3.3048,-3.2654,-3.1851,-3.0984,-3.0294,-2.9942,-2.9779,-2.9779,-2.9779,-2.9779,-2.9779,-2.9779,-2.9779,-2.9779,-2.9779,-2.9779,-2.9779,-2.9779,-2.9779,-2.9779,-2.9792,-3.0152,-3.057,-3.1476,-3.2393,-3.3394,-3.4658,-3.5392,-3.5489,-3.5489,-3.5489,-3.5489,-3.5489,-3.5489,-3.5489,-3.5489,-3.5489,-3.5489,-3.5489,-3.5489,-3.5489,-3.5489,-3.5489,-3.5489,-3.5489,-3.5489,-3.5489,-3.5489,-3.5489,-3.5489,-3.5489,-3.5489,-3.5489,-3.5489,-3.5489,-3.5489,-3.5489,-3.5686,-3.6054,-3.6353,-3.6797,-3.7626,-3.8465,-3.9069,-3.9463,-3.9825,-4.007,-4.007,-4.0113,-4.0113,-3.6417,-3.6417,-3.6417,-3.6417,-3.6216,-3.5126,-3.4374,-3.3613,-3.1633,-3.0317,-2.9713,-2.8751,-2.8291,-2.8301,-2.8301,-2.8301,-2.8301,-2.8301,-2.8301,-2.8301,-2.8301,-2.8301,-2.8591,-3.1019,-3.2381,-3.3044,-3.5259,-3.5906,-3.5642,-3.5077,-3.45,-3.3997,-3.3432,-3.3149,-3.3124,-3.3124,-3.3124,-3.3124,-3.3124,-3.3124,-3.3124,-3.3124,-3.3124,-3.3124,-3.3124,-3.288,-3.2428,-3.1825,-3.1248,-3.0708,-3.0131,-2.9817,-2.9779,-2.9779,-2.9779,-2.9779,-2.9779,-2.9779,-2.9779,-2.9779,-2.9779,-2.9779,-2.9779,-2.9779,-2.9779,-2.9792,-2.9856,-2.996,-3.0658,-3.1779,-3.2996,-3.4409,-3.5213,-3.5424,-3.5489,-3.5489,-3.5489,-3.5489,-3.5489,-3.5489,-3.5489,-3.5489,-3.5489,-3.5489,-3.5489,-3.5489,-3.5489,-3.5489,-3.5489,-3.5489,-3.5489,-3.5489,-3.5489,-3.5489,-3.5489,-3.5489,-3.5489,-3.5489,-3.5489,-3.5489,-3.5489,-3.5489,-3.5489,-3.5653,-3.5975,-3.6337,-3.6797,-3.7613,-3.8353,-3.9069,-3.942,-3.9782,-4.0045,-4.007,-4.0113,-3.6417,-3.6417,-3.6417,-3.6417,-3.6358,-3.6061,-3.4751,-3.2794,-3.214,-3.0669,-2.9049,-2.8451,-2.8291,-2.8301,-2.8301,-2.8301,-2.8301,-2.8301,-2.8301,-2.8301,-2.8301,-2.8291,-2.89,-3.1071,-3.2794,-3.3909,-3.5511,-3.6282,-3.5981,-3.5215,-3.4675,-3.4437,-3.3571,-3.3124,-3.3124,-3.3124,-3.3124,-3.3124,-3.3124,-3.3124,-3.3124,-3.3124,-3.3124,-3.3124,-3.3124,-3.3074,-3.2817,-3.234,-3.1788,-3.1148,-3.0382,-2.9854,-2.9792,-2.9779,-2.9779,-2.9779,-2.9779,-2.9779,-2.9779,-2.9779,-2.9779,-2.9779,-2.9779,-2.9779,-2.9779,-2.9779,-2.9779,-2.996,-3.0658,-3.1779,-3.3276,-3.3959,-3.4725,-3.5279,-3.5489,-3.5489,-3.5489,-3.5489,-3.5489,-3.5489,-3.5489,-3.5489,-3.5489,-3.5489,-3.5489,-3.5489,-3.5489,-3.5489,-3.5489,-3.5489,-3.5489,-3.5489,-3.5489,-3.5489,-3.5489,-3.5489,-3.5489,-3.5489,-3.5489,-3.5489,-3.5489,-3.5489,-3.5489,-3.5537,-3.5587,-3.5943,-3.6322,-3.6752,-3.7496,-3.827,-3.9069,-3.9516,-3.9876,-3.9952,-4.0113,-3.6417,-3.6417,-3.6417,-3.6417,-3.6417,-3.637,-3.521,-3.3403,-3.2543,-3.1173,-2.9408,-2.8644,-2.8291,-2.8301,-2.8301,-2.8301,-2.8301,-2.8301,-2.8301,-2.8301,-2.8344,-2.8644,-2.9555,-3.1122,-3.2794,-3.3712,-3.5511,-3.631,-3.6128,-3.5341,-3.468,-3.458,-3.3621,-3.3174,-3.3124,-3.3124,-3.3124,-3.3124,-3.3124,-3.3124,-3.3124,-3.3124,-3.3124,-3.3124,-3.3124,-3.3124,-3.3061,-3.2516,-3.1938,-3.1336,-3.0633,-3.0043,-2.9829,-2.9779,-2.9779,-2.9779,-2.9779,-2.9779,-2.9779,-2.9779,-2.9779,-2.9779,-2.9779,-2.9779,-2.9779,-2.9779,-2.9779,-2.9895,-3.0355,-3.1304,-3.3101,-3.3842,-3.4428,-3.5213,-3.5489,-3.5489,-3.5489,-3.5489,-3.5489,-3.5489,-3.5489,-3.5489,-3.5489,-3.5489,-3.5489,-3.5489,-3.5489,-3.5489,-3.5489,-3.5489,-3.5489,-3.5489,-3.5489,-3.5489,-3.5489,-3.5489,-3.5489,-3.5489,-3.5489,-3.5489,-3.5489,-3.5489,-3.5489,-3.5522,-3.5537,-3.5587,-3.5943,-3.6337,-3.6843,-3.7803,-3.8608,-3.9236,-3.9705,-3.9901,-4.0045,-3.6417,-3.6417,-3.6417,-3.6417,-3.6417,-3.6417,-3.5415,-3.392,-3.2844,-3.1327,-2.9964,-2.8751,-2.8301,-2.8301,-2.8301,-2.8301,-2.8301,-2.8301,-2.8301,-2.8301,-2.8698,-2.925,-3.0369,-3.1785,-3.2894,-3.2955,-3.521,-3.631,-3.6128,-3.5341,-3.4705,-3.4492,-3.3621,-3.3174,-3.3124,-3.3124,-3.3124,-3.3124,-3.3124,-3.3124,-3.3124,-3.3124,-3.3124,-3.3124,-3.3124,-3.3124,-3.3048,-3.2629,-3.2077,-3.1424,-3.0972,-3.0432,-2.9955,-2.9779,-2.9779,-2.9779,-2.9779,-2.9779,-2.9779,-2.9779,-2.9779,-2.9779,-2.9779,-2.9779,-2.9779,-2.9779,-2.9779,-2.9895,-3.0216,-3.0945,-3.2429,-3.3463,-3.4428,-3.5198,-3.5489,-3.5489,-3.5489,-3.5489,-3.5489,-3.5489,-3.5489,-3.5489,-3.5489,-3.5489,-3.5489,-3.5489,-3.5489,-3.5489,-3.5489,-3.5489,-3.5489,-3.5489,-3.5489,-3.5489,-3.5489,-3.5489,-3.5489,-3.5489,-3.5489,-3.5489,-3.5489,-3.5489,-3.5489,-3.5489,-3.5522,-3.5554,-3.5636,-3.5943,-3.66,-3.7485,-3.7991,-3.8398,-3.9059,-3.9782,-3.9952,-3.6417,-3.6417,-3.6417,-3.6417,-3.6417,-3.6417,-3.5041,-3.2833,-3.2482,-3.0876,-2.8857,-2.8398,-2.8301,-2.8301,-2.8301,-2.8301,-2.8301,-2.8301,-2.8344,-2.8654,-2.9313,-3.011,-3.0824,-3.2755,-3.381,-3.4422,-3.5667,-3.637,-3.6166,-3.5316,-3.4731,-3.4442,-3.3621,-3.3136,-3.3124,-3.3124,-3.3124,-3.3124,-3.3124,-3.3124,-3.3124,-3.3124,-3.3124,-3.3124,-3.3124,-3.3124,-3.3124,-3.2986,-3.2466,-3.1524,-3.1323,-3.0721,-3.003,-2.9779,-2.9779,-2.9779,-2.9779,-2.9779,-2.9779,-2.9779,-2.9779,-2.9779,-2.9779,-2.9779,-2.9779,-2.9779,-2.9779,-2.996,-3.0482,-3.1352,-3.2451,-3.3359,-3.4394,-3.5133,-3.5489,-3.5489,-3.5489,-3.5489,-3.5489,-3.5489,-3.5489,-3.5489,-3.5489,-3.5489,-3.5489,-3.5489,-3.5489,-3.5489,-3.5489,-3.5489,-3.5489,-3.5489,-3.5489,-3.5489,-3.5489,-3.5489,-3.5489,-3.5489,-3.5489,-3.5489,-3.5489,-3.5489,-3.5489,-3.5489,-3.5489,-3.5522,-3.5604,-3.5718,-3.6165,-3.695,-3.7247,-3.7526,-3.8536,-3.9463,-3.9714,-3.6417,-3.6417,-3.6417,-3.6417,-3.6417,-3.6417,-3.5259,-3.3464,-3.2593,-3.1224,-2.9608,-2.8644,-2.8301,-2.8301,-2.8301,-2.8301,-2.8301,-2.8291,-2.8644,-2.9355,-3.0016,-3.0773,-3.1378,-3.3514,-3.4178,-3.4727,-3.5667,-3.6405,-3.6292,-3.5253,-3.4731,-3.4474,-3.3621,-3.3124,-3.3124,-3.3124,-3.3124,-3.3124,-3.3124,-3.3124,-3.3124,-3.3124,-3.3124,-3.3124,-3.3124,-3.3124,-3.3124,-3.3124,-3.2571,-3.165,-3.1386,-3.0783,-3.0143,-2.9779,-2.9779,-2.9779,-2.9779,-2.9779,-2.9779,-2.9779,-2.9779,-2.9779,-2.9779,-2.9779,-2.9779,-2.9779,-2.9779,-2.9895,-3.0113,-3.1082,-3.2429,-3.3031,-3.3939,-3.5133,-3.5489,-3.5489,-3.5489,-3.5489,-3.5489,-3.5489,-3.5489,-3.5489,-3.5489,-3.5489,-3.5489,-3.5489,-3.5489,-3.5489,-3.5489,-3.5489,-3.5489,-3.5489,-3.5489,-3.5489,-3.5489,-3.5489,-3.5489,-3.5489,-3.5489,-3.5489,-3.5489,-3.5489,-3.5489,-3.5489,-3.5489,-3.5489,-3.5522,-3.5604,-3.6023,-3.6353,-3.6707,-3.7217,-3.8286,-3.9059,-3.9289,-3.6417,-3.6417,-3.6417,-3.6417,-3.6417,-3.6417,-3.5619,-3.4325,-3.3254,-3.1836,-3.0266,-2.925,-2.8601,-2.8344,-2.8301,-2.8301,-2.8301,-2.8301,-2.9006,-3.0068,-3.0669,-3.1378,-3.2392,-3.3859,-3.4727,-3.4581,-3.5715,-3.6307,-3.5981,-3.519,-3.4738,-3.4286,-3.3508,-3.3124,-3.3124,-3.3124,-3.3124,-3.3124,-3.3124,-3.3124,-3.3124,-3.3124,-3.3124,-3.3124,-3.3124,-3.3124,-3.3124,-3.2893,-3.2365,-3.1637,-3.1198,-3.0771,-2.998,-2.9779,-2.9779,-2.9779,-2.9779,-2.9779,-2.9779,-2.9779,-2.9779,-2.9779,-2.9779,-2.9779,-2.9779,-2.9779,-2.9779,-2.983,-3.0139,-3.0709,-3.1997,-3.27,-3.3602,-3.4643,-3.5311,-3.5489,-3.5489,-3.5489,-3.5489,-3.5489,-3.5489,-3.5489,-3.5489,-3.5489,-3.5489,-3.5489,-3.5489,-3.5489,-3.5489,-3.5489,-3.5489,-3.5489,-3.5489,-3.5489,-3.5489,-3.5489,-3.5489,-3.5489,-3.5489,-3.5489,-3.5489,-3.5489,-3.5489,-3.5489,-3.5489,-3.5489,-3.5489,-3.5489,-3.5782,-3.6023,-3.629,-3.6768,-3.7571,-3.8314,-3.8789,-3.6417,-3.6417,-3.6417,-3.6417,-3.6417,-3.6417,-3.5667,-3.4532,-3.4178,-3.2655,-3.0618,-3.0057,-2.9303,-2.8495,-2.8301,-2.8301,-2.8301,-2.8344,-2.9059,-3.0276,-3.1224,-3.1774,-3.2632,-3.5041,-3.4921,-3.4629,-3.5655,-3.5962,-3.5629,-3.5002,-3.4462,-3.3997,-3.3495,-3.3124,-3.3124,-3.3124,-3.3124,-3.3124,-3.3124,-3.3124,-3.3124,-3.3124,-3.3124,-3.3124,-3.3124,-3.3124,-3.3048,-3.2679,-3.2039,-3.1486,-3.0947,-3.0432,-2.9892,-2.9779,-2.9779,-2.9779,-2.9779,-2.9779,-2.9779,-2.9779,-2.9779,-2.9779,-2.9779,-2.9779,-2.9779,-2.9779,-2.9779,-2.983,-3.0432,-3.0983,-3.1683,-3.2855,-3.3754,-3.4428,-3.5052,-3.5344,-3.5489,-3.5489,-3.5489,-3.5489,-3.5489,-3.5489,-3.5489,-3.5489,-3.5489,-3.5489,-3.5489,-3.5489,-3.5489,-3.5489,-3.5489,-3.5489,-3.5489,-3.5489,-3.5489,-3.5489,-3.5489,-3.5489,-3.5489,-3.5489,-3.5489,-3.5489,-3.5489,-3.5489,-3.5489,-3.5489,-3.5489,-3.5522,-3.5554,-3.5701,-3.5894,-3.6228,-3.6615,-3.7365,-3.8161,-3.6417,-3.6417,-3.6417,-3.6417,-3.6417,-3.6417,-3.6108,-3.5463,-3.4739,-3.3773,-3.2404,-3.0876,-2.9555,-2.8495,-2.8301,-2.8301,-2.8301,-2.8301,-2.9059,-3.0068,-3.0979,-3.1582,-3.2381,-3.3491,-3.381,-3.4532,-3.4872,-3.5137,-3.4943,-3.4793,-3.4449,-3.3872,-3.337,-3.3124,-3.3124,-3.3124,-3.3124,-3.3124,-3.3124,-3.3124,-3.3124,-3.3124,-3.3124,-3.3124,-3.3124,-3.3124,-3.2943,-3.2516,-3.1964,-3.1424,-3.0896,-3.0369,-2.9942,-2.9779,-2.9779,-2.9779,-2.9779,-2.9779,-2.9779,-2.9779,-2.9779,-2.9779,-2.9779,-2.9779,-2.9779,-2.9779,-2.9779,-2.9792,-3.0139,-3.0633,-3.1241,-3.2415,-3.3276,-3.4027,-3.4905,-3.5231,-3.5489,-3.5489,-3.5489,-3.5489,-3.5489,-3.5489,-3.5489,-3.5489,-3.5489,-3.5489,-3.5489,-3.5489,-3.5489,-3.5489,-3.5489,-3.5489,-3.5489,-3.5489,-3.5489,-3.5489,-3.5489,-3.5489,-3.5489,-3.5489,-3.5489,-3.5489,-3.5489,-3.5489,-3.5489,-3.5489,-3.5489,-3.5489,-3.5522,-3.5522,-3.5489,-3.5911,-3.6306,-3.6661,-3.7424,-3.6417,-3.6417,-3.6417,-3.6417,-3.6417,-3.6417,-3.6417,-3.6216,-3.4969,-3.4178,-3.3204,-3.103,-2.9154,-2.8495,-2.8301,-2.8301,-2.8301,-2.8301,-2.9102,-2.9911,-3.0421,-3.0865,-3.1622,-3.218,-3.2744,-3.3464,-3.4002,-3.4161,-3.4219,-3.4275,-3.4173,-3.3696,-3.3282,-3.3149,-3.3124,-3.3124,-3.3124,-3.3124,-3.3124,-3.3124,-3.3124,-3.3124,-3.3124,-3.3124,-3.3124,-3.3124,-3.298,-3.2315,-3.1725,-3.1424,-3.0696,-3.0143,-2.9842,-2.9779,-2.9779,-2.9779,-2.9779,-2.9779,-2.9779,-2.9779,-2.9779,-2.9779,-2.9779,-2.9779,-2.9779,-2.9779,-2.9779,-2.9779,-2.9818,-3.0381,-3.1106,-3.2092,-3.3031,-3.3959,-3.4872,-3.5198,-3.5489,-3.5489,-3.5489,-3.5489,-3.5489,-3.5489,-3.5489,-3.5489,-3.5489,-3.5489,-3.5489,-3.5489,-3.5489,-3.5489,-3.5489,-3.5489,-3.5489,-3.5489,-3.5489,-3.5489,-3.5489,-3.5489,-3.5489,-3.5489,-3.5489,-3.5489,-3.5489,-3.5489,-3.5489,-3.5489,-3.5489,-3.5489,-3.5489,-3.5489,-3.5554,-3.575,-3.6054,-3.6353,-3.6813,-3.6417,-3.6417,-3.6358,-3.6358,-3.6417,-3.6417,-3.6405,-3.6108,-3.4921,-3.3613,-3.2191,-2.9922,-2.8698,-2.8354,-2.8301,-2.8301,-2.8301,-2.8301,-2.9049,-2.9807,-3.0317,-3.0266,-3.0721,-3.1276,-3.1792,-3.1501,-3.2753,-3.3363,-3.3222,-3.3931,-3.3633,-3.3194,-3.3187,-3.3136,-3.3124,-3.3124,-3.3124,-3.3124,-3.3124,-3.3124,-3.3124,-3.3124,-3.3124,-3.3124,-3.3124,-3.3111,-3.3074,-3.2102,-3.1512,-3.1348,-3.0482,-2.998,-2.9817,-2.9779,-2.9779,-2.9779,-2.9779,-2.9779,-2.9779,-2.9779,-2.9779,-2.9779,-2.9779,-2.9779,-2.9779,-2.9779,-2.9779,-2.9779,-2.9779,-3.0177,-3.1044,-3.2033,-3.2961,-3.3719,-3.4591,-3.5279,-3.5489,-3.5489,-3.5489,-3.5489,-3.5489,-3.5489,-3.5489,-3.5489,-3.5489,-3.5489,-3.5489,-3.5489,-3.5489,-3.5489,-3.5489,-3.5489,-3.5489,-3.5489,-3.5489,-3.5489,-3.5489,-3.5489,-3.5489,-3.5489,-3.5489,-3.5489,-3.5489,-3.5489,-3.5489,-3.5489,-3.5489,-3.5489,-3.5489,-3.5489,-3.5554,-3.5686,-3.5831,-3.6054,-3.66,-3.3897,-3.3885,-3.3885,-3.4848,-3.6417,-3.6417,-3.5918,-3.5174,-3.4581,-3.3116,-3.1019,-2.9964,-2.9049,-2.8495,-2.8301,-2.8301,-2.8301,-2.8301,-2.8698,-2.8847,-2.9049,-2.9049,-2.9555,-3.0348,-3.1033,-3.1306,-3.2651,-3.3558,-3.3605,-3.3714,-3.3496,-3.3244,-3.3136,-3.3124,-3.3124,-3.3124,-3.3124,-3.3124,-3.3124,-3.3124,-3.3124,-3.3124,-3.3124,-3.3124,-3.3124,-3.3124,-3.296,-3.2005,-3.159,-3.1122,-3.0331,-2.9955,-2.9779,-2.9779,-2.9779,-2.9779,-2.9779,-2.9779,-2.9779,-2.9779,-2.9779,-2.9779,-2.9779,-2.9779,-2.9779,-2.9779,-2.9779,-2.9779,-2.9856,-3.0254,-3.0355,-3.1646,-3.2855,-3.3478,-3.4274,-3.5166,-3.5489,-3.5489,-3.5489,-3.5489,-3.5489,-3.5489,-3.5489,-3.5489,-3.5489,-3.5489,-3.5489,-3.5489,-3.5489,-3.5489,-3.5489,-3.5489,-3.5489,-3.5489,-3.5489,-3.5489,-3.5489,-3.5489,-3.5489,-3.5489,-3.5489,-3.5489,-3.5489,-3.5489,-3.5489,-3.5489,-3.5489,-3.5489,-3.5489,-3.5489,-3.5489,-3.5522,-3.5668,-3.5799,-3.6212,-3.228,-3.228,-3.228,-3.3392,-3.509,-3.5198,-3.4654,-3.381,-3.3266,-3.1949,-2.9713,-2.966,-2.925,-2.8495,-2.8301,-2.8301,-2.8301,-2.8301,-2.8301,-2.8398,-2.8398,-2.8416,-2.8888,-2.958,-3.0536,-3.1359,-3.232,-3.303,-3.3089,-3.347,-3.3376,-3.3169,-3.3124,-3.3124,-3.3124,-3.3124,-3.3124,-3.3124,-3.3124,-3.3124,-3.3124,-3.3124,-3.3124,-3.3124,-3.3124,-3.3124,-3.2835,-3.2051,-3.1502,-3.106,-3.0495,-2.988,-2.9779,-2.9779,-2.9779,-2.9779,-2.9779,-2.9779,-2.9779,-2.9779,-2.9779,-2.9779,-2.9779,-2.9779,-2.9779,-2.9779,-2.9779,-2.9818,-2.9998,-3.0216,-3.0279,-3.1938,-3.3066,-3.3788,-3.4658,-3.5489,-3.5489,-3.5489,-3.5489,-3.5489,-3.5489,-3.5489,-3.5489,-3.5489,-3.5489,-3.5489,-3.5489,-3.5489,-3.5489,-3.5489,-3.5489,-3.5489,-3.5489,-3.5489,-3.5489,-3.5489,-3.5489,-3.5489,-3.5489,-3.5489,-3.5489,-3.5489,-3.5489,-3.5489,-3.5489,-3.5489,-3.5489,-3.5489,-3.5489,-3.5489,-3.5489,-3.5489,-3.5522,-3.5636,-3.5604,-3.218,-3.228,-3.2191,-3.223,-3.2431,-3.2431,-3.2482,-3.218,-3.1071,-2.9817,-2.8654,-2.8495,-2.8495,-2.8301,-2.8301,-2.8301,-2.8301,-2.8291,-2.8252,-2.8213,-2.8453,-2.88,-2.9271,-2.9775,-3.063,-3.0863,-3.1914,-3.2611,-3.2265,-3.2971,-3.3113,-3.3149,-3.3124,-3.3124,-3.3124,-3.3124,-3.3124,-3.3124,-3.3124,-3.3124,-3.3124,-3.3124,-3.3124,-3.3124,-3.3124,-3.3124,-3.2885,-3.1989,-3.1436,-3.121,-3.0357,-2.9842,-2.9779,-2.9779,-2.9779,-2.9779,-2.9779,-2.9779,-2.9779,-2.9779,-2.9779,-2.9779,-2.9779,-2.9779,-2.9779,-2.9779,-2.9779,-2.9818,-3.0305,-3.0796,-3.1609,-3.25,-3.3101,-3.3671,-3.4476,-3.5198,-3.5166,-3.5489,-3.5489,-3.5489,-3.5489,-3.5489,-3.5489,-3.5489,-3.5489,-3.5489,-3.5489,-3.5489,-3.5489,-3.5489,-3.5489,-3.5489,-3.5489,-3.5489,-3.5489,-3.5489,-3.5489,-3.5489,-3.5489,-3.5489,-3.5489,-3.5489,-3.5489,-3.5489,-3.5489,-3.5489,-3.5489,-3.5489,-3.5489,-3.5489,-3.5489,-3.5489,-3.5489,-3.5489,-3.5489,-2.966,-2.966,-2.966,-2.966,-2.9911,-3.1582,-3.1836,-3.0824,-2.9608,-2.8698,-2.8398,-2.8301,-2.8301,-2.8301,-2.8271,-2.8252,-2.8262,-2.8281,-2.8223,-2.7986,-2.8565,-2.8911,-2.9489,-3.0568,-3.1415,-3.1798,-3.2497,-3.2879,-3.2772,-3.3002,-3.3063,-3.3124,-3.3124,-3.3124,-3.3124,-3.3124,-3.3124,-3.3124,-3.3124,-3.3124,-3.3124,-3.3124,-3.3124,-3.3124,-3.3124,-3.3111,-3.2998,-3.1913,-3.1424,-3.1223,-3.0319,-2.9829,-2.9779,-2.9779,-2.9779,-2.9779,-2.9779,-2.9779,-2.9779,-2.9779,-2.9779,-2.9779,-2.9779,-2.9779,-2.9779,-2.9779,-2.9779,-2.9856,-3.0203,-3.0457,-3.0533,-3.1328,-3.196,-3.2307,-3.3066,-3.4075,-3.4509,-3.5166,-3.5489,-3.5489,-3.5489,-3.5489,-3.5489,-3.5489,-3.5489,-3.5489,-3.5489,-3.5489,-3.5489,-3.5489,-3.5489,-3.5489,-3.5489,-3.5489,-3.5489,-3.5489,-3.5489,-3.5489,-3.5489,-3.5489,-3.5489,-3.5489,-3.5489,-3.5489,-3.5489,-3.5489,-3.5489,-3.5489,-3.5489,-3.5489,-3.5489,-3.5489,-3.5489,-3.5489,-3.5489,-2.8301,-2.8301,-2.8301,-2.8301,-2.8548,-3.0162,-3.0359,-2.9503,-2.8698,-2.8301,-2.8301,-2.8291,-2.8184,-2.8115,-2.8066,-2.792,-2.7881,-2.7832,-2.7783,-2.7648,-2.8656,-2.9139,-2.9969,-3.1235,-3.2002,-3.2499,-3.2987,-3.3351,-3.3057,-3.3093,-3.3124,-3.3124,-3.3124,-3.3124,-3.3124,-3.3124,-3.3124,-3.3124,-3.3124,-3.3124,-3.3124,-3.3124,-3.3124,-3.3124,-3.3099,-3.298,-3.2579,-3.1989,-3.1298,-3.0947,-3.0394,-2.9804,-2.9779,-2.9779,-2.9779,-2.9779,-2.9779,-2.9779,-2.9779,-2.9779,-2.9779,-2.9779,-2.9779,-2.9779,-2.9779,-2.9779,-2.9779,-2.9856,-2.9998,-2.9998,-3.0101,-3.0833,-3.1609,-3.2033,-3.2735,-3.3808,-3.461,-3.5279,-3.5489,-3.5489,-3.5489,-3.5489,-3.5489,-3.5489,-3.5489,-3.5489,-3.5489,-3.5489,-3.5489,-3.5489,-3.5489,-3.5489,-3.5489,-3.5489,-3.5489,-3.5489,-3.5489,-3.5489,-3.5489,-3.5489,-3.5489,-3.5489,-3.5489,-3.5489,-3.5489,-3.5489,-3.5489,-3.5489,-3.5489,-3.5489,-3.5489,-3.5489,-3.5489,-3.5489,-3.5489,-2.8301,-2.8301,-2.8301,-2.8301,-2.8344,-2.8499,-2.8455,-2.8335,-2.8291,-2.8281,-2.8252,-2.8223,-2.8008,-2.7748,-2.7699,-2.7461,-2.7217,-2.7148,-2.707,-2.7358,-2.8246,-2.8976,-3.0011,-3.117,-3.2163,-3.2791,-3.3199,-3.3275,-3.3124,-3.3124,-3.3124,-3.3124,-3.3124,-3.3124,-3.3124,-3.3124,-3.3124,-3.3124,-3.3124,-3.3124,-3.3124,-3.3124,-3.3124,-3.3124,-3.3099,-3.278,-3.234,-3.1738,-3.1185,-3.0683,-3.0118,-2.988,-2.9779,-2.9779,-2.9779,-2.9779,-2.9779,-2.9779,-2.9779,-2.9779,-2.9779,-2.9779,-2.9779,-2.9779,-2.9779,-2.9779,-2.9779,-2.996,-3.0177,-3.0177,-3.0228,-3.1267,-3.2213,-3.2749,-3.3345,-3.4177,-3.4953,-3.5359,-3.5457,-3.5489,-3.5489,-3.5489,-3.5489,-3.5489,-3.5489,-3.5489,-3.5489,-3.5489,-3.5489,-3.5489,-3.5489,-3.5489,-3.5489,-3.5489,-3.5489,-3.5489,-3.5489,-3.5489,-3.5489,-3.5489,-3.5489,-3.5489,-3.5489,-3.5489,-3.5489,-3.5489,-3.5489,-3.5489,-3.5489,-3.5489,-3.5489,-3.5489,-3.5489,-3.5489,-3.5489,-2.8301,-2.8301,-2.8301,-2.8301,-2.8252,-2.7978,-2.8008,-2.8271,-2.8291,-2.8154,-2.7904,-2.7842,-2.7607,-2.7217,-2.7207,-2.7109,-2.7041,-2.6963,-2.6797,-2.7212,-2.7922,-2.8795,-2.9788,-3.0945,-3.1998,-3.2773,-3.3124,-3.3124,-3.3124,-3.3124,-3.3124,-3.3124,-3.3124,-3.3124,-3.3124,-3.3124,-3.3124,-3.3124,-3.3124,-3.3124,-3.3124,-3.3124,-3.3124,-3.3124,-3.3124,-3.2742,-3.2164,-3.1662,-3.1148,-3.0595,-3.0068,-2.9804,-2.9779,-2.9779,-2.9779,-2.9779,-2.9779,-2.9779,-2.9779,-2.9779,-2.9779,-2.9779,-2.9779,-2.9779,-2.9779,-2.9779,-2.9779,-2.9998,-3.0152,-3.0075,-3.0279,-3.1119,-3.1938,-3.2486,-3.3087,-3.3788,-3.4476,-3.4839,-3.4986,-3.5231,-3.5231,-3.5392,-3.5392,-3.5489,-3.5489,-3.5489,-3.5489,-3.5489,-3.5489,-3.5489,-3.5489,-3.5489,-3.5489,-3.5489,-3.5489,-3.5489,-3.5489,-3.5489,-3.5489,-3.5489,-3.5489,-3.5489,-3.5489,-3.5489,-3.5489,-3.5489,-3.5489,-3.5489,-3.5489,-3.5489,-3.5489,-3.5489,-3.5489,-3.5489,-3.5489,-2.7783,-2.7783,-2.7783,-2.7793,-2.7744,-2.7519,-2.7568,-2.7764,-2.7783,-2.7627,-2.7422,-2.7412,-2.7178,-2.6807,-2.6758,-2.666,-2.6475,-2.6416,-2.6309,-2.6576,-2.7875,-2.8813,-2.9806,-3.1057,-3.2307,-3.2939,-3.3124,-3.3124,-3.3124,-3.3124,-3.3124,-3.3124,-3.3124,-3.3124,-3.3124,-3.3124,-3.3124,-3.3124,-3.3124,-3.3124,-3.3124,-3.3124,-3.3124,-3.3124,-3.3124,-3.2629,-3.1989,-3.1512,-3.1047,-3.0432,-2.988,-2.9792,-2.9779,-2.9779,-2.9779,-2.9779,-2.9779,-2.9779,-2.9779,-2.9779,-2.9779,-2.9779,-2.9779,-2.9779,-2.9779,-2.9779,-2.9779,-2.9856,-2.9895,-2.9972,-3.0355,-3.0733,-3.1328,-3.1924,-3.2536,-3.3171,-3.3685,-3.4124,-3.4442,-3.4758,-3.4953,-3.5133,-3.5246,-3.5392,-3.5489,-3.5489,-3.5489,-3.5489,-3.5489,-3.5489,-3.5489,-3.5489,-3.5489,-3.5489,-3.5489,-3.5457,-3.5424,-3.5457,-3.5489,-3.5489,-3.5489,-3.5489,-3.5489,-3.5489,-3.5489,-3.5489,-3.5489,-3.5489,-3.5489,-3.5489,-3.5489,-3.5489,-3.5489,-3.5489,-3.5489,-2.7031,-2.7051,-2.7012,-2.709,-2.7012,-2.7002,-2.6982,-2.6953,-2.6943,-2.6943,-2.6953,-2.6963,-2.6738,-2.6396,-2.6338,-2.6152,-2.6163,-2.6172,-2.6192,-2.5888,-2.8171,-2.9303,-3.0045,-3.1613,-3.2426,-3.2896,-3.3124,-3.3124,-3.3124,-3.3124,-3.3124,-3.3124,-3.3124,-3.3124,-3.3124,-3.3124,-3.3124,-3.3124,-3.3124,-3.3124,-3.3124,-3.3124,-3.3124,-3.3099,-3.2923,-3.2516,-3.1712,-3.1198,-3.0871,-3.0181,-2.9804,-2.9779,-2.9779,-2.9779,-2.9779,-2.9779,-2.9779,-2.9779,-2.9779,-2.9779,-2.9779,-2.9779,-2.9779,-2.9779,-2.9779,-2.9779,-2.9779,-2.9779,-2.983,-3.0101,-3.0495,-3.0733,-3.1143,-3.1742,-3.2357,-3.2855,-3.3276,-3.3602,-3.3719,-3.4075,-3.4461,-3.4691,-3.5344,-3.5489,-3.5489,-3.5489,-3.5489,-3.5489,-3.5344,-3.5344,-3.5279,-3.5279,-3.5085,-3.5085,-3.5392,-3.5344,-3.5344,-3.5359,-3.5457,-3.5489,-3.5489,-3.5489,-3.5489,-3.5489,-3.5489,-3.5489,-3.5489,-3.5489,-3.5489,-3.5489,-3.5489,-3.5489,-3.5489,-3.5489,-3.5489,-2.7012,-2.7012,-2.7012,-2.7012,-2.6963,-2.667,-2.6543,-2.6504,-2.6182,-2.625,-2.6494,-2.6504,-2.6318,-2.5937,-2.5957,-2.583,-2.5869,-2.6245,-2.638,-2.6706,-2.8168,-2.9212,-2.9624,-3.1057,-3.2196,-3.2884,-3.3124,-3.3124,-3.3124,-3.3124,-3.3124,-3.3124,-3.3124,-3.3124,-3.3124,-3.3124,-3.3124,-3.3124,-3.3124,-3.3124,-3.3124,-3.3124,-3.3124,-3.2986,-3.2717,-3.2215,-3.1512,-3.0997,-3.0507,-2.9917,-2.9817,-2.9779,-2.9779,-2.9779,-2.9779,-2.9779,-2.9779,-2.9779,-2.9779,-2.9779,-2.9779,-2.9779,-2.9779,-2.9779,-2.9779,-2.9779,-2.9779,-2.9779,-2.9921,-3.0241,-3.0482,-3.0696,-3.0932,-3.1549,-3.2046,-3.2429,-3.2806,-3.2925,-3.2961,-3.3415,-3.3842,-3.4461,-3.5166,-3.5489,-3.5489,-3.5489,-3.5489,-3.5392,-3.5034,-3.4887,-3.4773,-3.4691,-3.4428,-3.4461,-3.4953,-3.5133,-3.5052,-3.5279,-3.5457,-3.5489,-3.5489,-3.5489,-3.5489,-3.5489,-3.5489,-3.5489,-3.5489,-3.5489,-3.5489,-3.5489,-3.5489,-3.5489,-3.5489,-3.5489,-3.5489,-2.6445,-2.6445,-2.6395,-2.6395,-2.6356,-2.6201,-2.6103,-2.6055,-2.5791,-2.582,-2.6074,-2.6084,-2.5957,-2.5693,-2.5684,-2.5684,-2.583,-2.6342,-2.6207,-2.6524,-2.7673,-2.8716,-2.9636,-3.0676,-3.1921,-3.2797,-3.3038,-3.3124,-3.3124,-3.3124,-3.3124,-3.3124,-3.3124,-3.3124,-3.3124,-3.3124,-3.3124,-3.3124,-3.3124,-3.3124,-3.3124,-3.3124,-3.3124,-3.296,-3.2704,-3.2152,-3.1562,-3.1035,-3.0545,-3.0043,-2.9792,-2.9779,-2.9779,-2.9779,-2.9779,-2.9779,-2.9779,-2.9779,-2.9779,-2.9779,-2.9779,-2.9779,-2.9779,-2.9779,-2.9779,-2.9779,-2.9779,-2.9779,-2.9779,-3.0062,-3.0101,-3.0279,-3.0317,-3.0709,-3.0846,-3.1033,-3.1415,-3.1659,-3.2177,-3.2947,-3.3449,-3.4007,-3.4739,-3.5489,-3.5457,-3.5311,-3.5344,-3.4839,-3.4543,-3.4124,-3.409,-3.4007,-3.3671,-3.4279,-3.518,-3.5019,-3.4643,-3.4971,-3.5489,-3.5489,-3.5489,-3.5489,-3.5489,-3.5489,-3.5489,-3.5489,-3.5489,-3.5489,-3.5489,-3.5489,-3.5489,-3.5489,-3.5489,-3.5489,-3.5489,-2.5713,-2.5684,-2.5703,-2.5693,-2.5684,-2.5693,-2.5703,-2.5693,-2.5684,-2.5684,-2.5723,-2.5723,-2.5684,-2.5684,-2.5684,-2.5684,-2.5917,-2.6428,-2.6149,-2.6245,-2.7673,-2.8762,-2.9818,-3.0855,-3.2108,-3.2797,-3.3081,-3.3124,-3.3124,-3.3124,-3.3124,-3.3124,-3.3124,-3.3124,-3.3124,-3.3124,-3.3124,-3.3124,-3.3124,-3.3124,-3.3124,-3.3124,-3.3124,-3.3124,-3.2918,-3.2403,-3.1725,-3.1148,-3.0696,-3.0231,-2.9779,-2.9779,-2.9779,-2.9779,-2.9779,-2.9779,-2.9779,-2.9779,-2.9779,-2.9779,-2.9779,-2.9779,-2.9779,-2.9779,-2.9779,-2.9779,-2.9779,-2.9779,-2.9779,-2.9818,-2.9869,-2.9908,-2.9934,-2.9921,-2.9972,-2.9972,-3.0317,-3.0671,-3.1476,-3.2357,-3.2925,-3.3512,-3.4327,-3.5133,-3.5052,-3.4953,-3.4658,-3.4177,-3.3671,-3.3185,-3.2904,-3.289,-3.2735,-3.365,-3.492,-3.4706,-3.4075,-3.5019,-3.5489,-3.5489,-3.5489,-3.5489,-3.5489,-3.5489,-3.5489,-3.5489,-3.5489,-3.5489,-3.5489,-3.5489,-3.5489,-3.5489,-3.5489,-3.5489,-3.5489,-2.5684,-2.5684,-2.5684,-2.5684,-2.5684,-2.5684,-2.5684,-2.5684,-2.5684,-2.5684,-2.5684,-2.5684,-2.5684,-2.5684,-2.5684,-2.5732,-2.583,-2.6476,-2.6342,-2.6159,-2.8541,-2.9407,-3.0226,-3.15,-3.2612,-3.3025,-3.3124,-3.3124,-3.3124,-3.3124,-3.3124,-3.3124,-3.3124,-3.3124,-3.3124,-3.3124,-3.3124,-3.3124,-3.3124,-3.3124,-3.3124,-3.3124,-3.3124,-3.2918,-3.2604,-3.2039,-3.1474,-3.0972,-3.0432,-3.0005,-2.9779,-2.9779,-2.9779,-2.9779,-2.9779,-2.9779,-2.9779,-2.9779,-2.9779,-2.9779,-2.9779,-2.9779,-2.9779,-2.9779,-2.9779,-2.9779,-2.9779,-2.9779,-2.9779,-2.9779,-2.983,-2.9818,-2.9856,-2.9856,-2.9856,-2.9856,-3.0037,-3.0279,-3.0771,-3.1476,-3.2069,-3.289,-3.3842,-3.4027,-3.3533,-3.3429,-3.3325,-3.2876,-3.277,-3.2285,-3.1756,-3.1756,-3.1742,-3.277,-3.3891,-3.3837,-3.3602,-3.4691,-3.5344,-3.5067,-3.5067,-3.5457,-3.5457,-3.5198,-3.5392,-3.5489,-3.5489,-3.5489,-3.5489,-3.5489,-3.5489,-3.5489,-3.5489,-3.5489,-3.5489]}]]